[[{"header":{"parameterUnit":"m.s-1","parameterCategory":1,"la1":30.6,"la2":29.2853,"lo1":-89.7004,"lo2":-87.6739,"dx":0.0162,"dy":0.0183,"nx":112,"ny":82,"refTime":"2023-01-30T06:00:00:Z","depth":0,"parameterNumber":2,"parameterNumberName":"U-component_of_WINDS"},"data":[0.0,0.0,0.0,0.0,0.0,0.0,0.0,0.0,0.0,0.0,0.0,0.0,0.0,0.0,0.0,0.0,0.0,0.0,0.0,0.0,0.0,0.0,0.0,0.0,0.0,0.0,0.0,0.0,0.0,0.0,0.0,0.0,0.0,0.0,0.0,0.0,0.0,0.0,0.0,0.0,0.0,0.0,0.0,0.0,0.0,0.0,0.0,0.0,0.0,0.0,0.0,0.0,0.0,0.0,0.0,0.0,0.0,0.0,0.0,0.0,0.0,0.0,0.0,0.0,0.0,0.0,0.0,0.0,0.0,0.0,0.0,0.0,0.0,0.0,0.0,0.0,0.0,0.0,0.0,0.0,0.0,0.0,0.0,0.0,0.0,0.0,0.0,0.0,0.0,0.0,0.0,-0.7004,-0.7376,-0.7629,-0.7676,-0.8441,-0.8926,-0.8986,0.0,0.0,0.0,0.0,0.0,0.0,0.0,0.0,0.0,0.0,0.0,0.0,0.0,0.0,0.0,0.0,0.0,0.0,0.0,0.0,0.0,0.0,0.0,0.0,0.0,0.0,0.0,0.0,0.0,0.0,0.0,0.0,0.0,0.0,0.0,0.0,0.0,0.0,0.0,0.0,0.0,0.0,0.0,0.0,0.0,0.0,0.0,0.0,0.0,0.0,0.0,0.0,0.0,0.0,0.0,0.0,0.0,0.0,0.0,0.0,0.0,0.0,0.0,0.0,0.0,0.0,0.0,0.0,0.0,0.0,0.0,0.0,0.0,0.0,0.0,0.0,0.0,0.0,0.0,0.0,0.0,0.0,0.0,0.0,0.0,0.0,0.0,0.0,0.0,0.0,0.0,0.0,0.0,0.0,0.0,0.0,0.0,0.0,0.0,0.0,0.0,0.0,0.0,0.0,-0.6529,-0.6366,-0.7104,-0.7599,-0.7606,-0.8409,-0.8937,-0.8999,0.0,0.0,0.0,0.0,0.0,0.0,0.0,0.0,0.0,0.0,0.0,0.0,0.0,0.0,0.0,0.0,0.0,0.0,0.0,0.0,0.0,0.0,0.0,0.0,0.0,0.0,0.0,0.0,0.0,0.0,0.0,0.0,0.0,0.0,0.0,0.0,0.0,0.0,0.0,0.0,0.0,0.0,0.0,0.0,0.0,0.0,0.0,0.0,0.0,0.0,0.0,0.0,0.0,0.0,0.0,0.0,0.0,0.0,0.0,0.0,0.0,0.0,0.0,0.0,0.0,0.0,0.0,0.0,0.0,0.0,0.0,0.0,0.0,0.0,0.0,0.0,0.0,0.0,0.0,0.0,0.0,0.0,0.0,0.0,0.0,0.0,0.0,0.0,0.0,0.0,0.0,0.0,0.0,0.0,0.0,0.0,0.0,0.0,0.0,0.0,0.0,0.0,0.0,-0.6879,-0.5989,-0.5501,-0.5849,-0.6149,-0.6188,-0.7389,-0.8234,-0.8449,-0.9072,0.0,0.0,0.0,0.0,0.0,0.0,0.0,0.0,0.0,0.0,0.0,0.0,0.0,0.0,0.0,0.0,0.0,0.0,0.0,0.0,0.0,0.0,0.0,0.0,0.0,0.0,0.0,0.0,0.0,0.0,0.0,0.0,0.0,0.0,0.0,0.0,0.0,0.0,0.0,0.0,0.0,0.0,0.0,0.0,0.0,0.0,0.0,0.0,0.0,0.0,0.0,0.0,0.0,0.0,0.0,0.0,0.0,0.0,0.0,0.0,0.0,0.0,0.0,0.0,0.0,0.0,0.0,0.0,0.0,0.0,0.0,0.0,0.0,0.0,0.0,0.0,0.0,0.0,0.0,0.0,0.0,0.0,0.0,0.0,0.0,0.0,0.0,0.0,0.0,0.0,0.0,0.0,0.0,0.0,0.0,0.0,0.0,0.0,0.0,0.0,0.0,0.0,-0.6316,-0.5321,-0.4856,-0.4853,-0.4972,-0.5239,-0.6528,-0.7585,-0.8216,-0.8817,0.0,0.0,0.0,0.0,0.0,0.0,0.0,0.0,0.0,0.0,0.0,0.0,0.0,0.0,0.0,0.0,0.0,0.0,0.0,0.0,0.0,0.0,0.0,0.0,0.0,0.0,0.0,0.0,0.0,0.0,0.0,0.0,0.0,0.0,0.0,0.0,0.0,0.0,0.0,0.0,0.0,0.0,0.0,0.0,0.0,0.0,0.0,0.0,0.0,0.0,0.0,0.0,0.0,0.0,0.0,0.0,0.0,0.0,0.0,0.0,0.0,0.0,0.0,0.0,0.0,0.0,0.0,0.0,0.0,0.0,0.0,0.0,0.0,0.0,0.0,0.0,0.0,0.0,0.0,0.0,0.0,0.0,0.0,0.0,0.0,0.0,0.0,0.0,0.0,0.0,0.0,0.0,0.0,0.0,0.0,0.0,0.0,0.0,0.0,0.0,0.0,0.0,-0.572,-0.4652,-0.4777,-0.4798,-0.5142,-0.5952,-0.6467,-0.7408,-0.8941,-0.867,0.0,0.0,0.0,0.0,0.0,0.0,0.0,0.0,0.0,0.0,0.0,0.0,0.0,0.0,0.0,0.0,0.0,0.0,0.0,0.0,0.0,0.0,0.0,0.0,0.0,0.0,0.0,0.0,0.0,0.0,0.0,0.0,0.0,0.0,0.0,0.0,0.0,0.0,0.0,0.0,0.0,0.0,0.0,0.0,0.0,0.0,0.0,0.0,0.0,0.0,0.0,0.0,0.0,0.0,0.0,0.0,0.0,0.0,0.0,0.0,0.0,0.0,0.0,0.0,0.0,0.0,0.0,0.0,0.0,0.0,0.0,0.0,0.0,0.0,0.0,0.0,0.0,0.0,0.0,0.0,0.0,0.0,0.0,0.0,0.0,0.0,0.0,0.0,0.0,0.0,0.0,0.0,0.0,0.0,0.0,0.0,0.0,0.0,0.0,0.0,0.0,0.0,-0.6434,-0.504,0.0,-0.4688,-0.4891,-0.5259,-0.6427,-0.6966,-0.6578,0.0,0.0,0.0,0.0,0.0,0.0,0.0,0.0,0.0,0.0,0.0,0.0,0.0,0.0,0.0,0.0,0.0,0.0,0.0,0.0,0.0,0.0,0.0,0.0,0.0,0.0,0.0,0.0,0.0,0.0,0.0,0.0,0.0,0.0,0.0,0.0,0.0,0.0,0.0,0.0,0.0,0.0,0.0,0.0,0.0,0.0,0.0,0.0,0.0,0.0,0.0,0.0,0.0,0.0,0.0,0.0,0.0,0.0,0.0,0.0,0.0,0.0,0.0,0.0,0.0,0.0,0.0,0.0,0.0,0.0,0.0,0.0,0.0,0.0,0.0,0.0,0.0,0.0,0.0,0.0,0.0,0.0,0.0,0.0,0.0,0.0,0.0,0.0,0.0,0.0,0.0,0.0,0.0,0.0,0.0,0.0,0.0,0.0,0.0,0.0,0.0,0.0,-0.8333,-0.6224,-0.4727,0.0,-0.4678,-0.4887,-0.5594,-0.6218,-0.6131,-0.5059,0.0,0.0,0.0,0.0,0.0,0.0,0.0,0.0,0.0,0.0,0.0,0.0,0.0,0.0,0.0,0.0,0.0,0.0,0.0,0.0,0.0,0.0,0.0,0.0,0.0,0.0,0.0,0.0,0.0,0.0,0.0,0.0,0.0,0.0,0.0,0.0,0.0,0.0,0.0,0.0,0.0,0.0,0.0,0.0,0.0,0.0,0.0,0.0,0.0,0.0,0.0,0.0,0.0,0.0,0.0,0.0,0.0,0.0,0.0,0.0,0.0,0.0,0.0,0.0,0.0,0.0,0.0,0.0,0.0,0.0,0.0,0.0,0.0,0.0,0.0,0.0,0.0,0.0,0.0,0.0,0.0,0.0,0.0,0.0,0.0,0.0,0.0,0.0,0.0,0.0,0.0,0.0,0.0,0.0,0.0,0.0,0.0,0.0,0.0,0.0,0.0,0.0,-0.756,-0.4793,-0.3487,-0.5222,-0.4794,-0.5227,-0.7286,-0.58,-0.481,0.0,0.0,0.0,0.0,0.0,0.0,0.0,0.0,0.0,0.0,0.0,0.0,0.0,0.0,0.0,0.0,0.0,0.0,0.0,0.0,0.0,0.0,0.0,0.0,0.0,0.0,0.0,0.0,0.0,0.0,0.0,0.0,0.0,0.0,0.0,0.0,0.0,0.0,0.0,0.0,0.0,0.0,0.0,0.0,0.0,0.0,0.0,0.0,0.0,0.0,0.0,0.0,0.0,0.0,0.0,0.0,0.0,0.0,0.0,0.0,0.0,0.0,0.0,0.0,0.0,0.0,0.0,0.0,0.0,0.0,0.0,0.0,0.0,0.0,0.0,0.0,0.0,0.0,0.0,0.0,0.0,0.0,0.0,0.0,0.0,0.0,0.0,0.0,0.0,0.0,0.0,0.0,0.0,0.0,0.0,0.0,0.0,0.0,0.0,0.0,0.0,0.0,0.0,0.0,-0.4751,-0.4225,-0.5352,-0.4864,-0.4714,-0.5334,-0.2948,-0.1961,-0.3222,0.0,0.0,0.0,0.0,0.0,0.0,0.0,0.0,0.0,0.0,0.0,0.0,0.0,0.0,0.0,0.0,0.0,0.0,0.0,0.0,0.0,0.0,0.0,0.0,0.0,0.0,0.0,0.0,0.0,0.0,0.0,0.0,0.0,0.0,0.0,0.0,0.0,0.0,0.0,0.0,0.0,0.0,0.0,0.0,0.0,0.0,0.0,0.0,0.0,0.0,0.0,0.0,0.0,0.0,0.0,0.0,0.0,0.0,0.0,0.0,0.0,0.0,0.0,0.0,0.0,0.0,0.0,0.0,0.0,0.0,0.0,0.0,0.0,0.0,0.0,0.0,0.0,0.0,0.0,0.0,0.0,0.0,0.0,0.0,0.0,0.0,0.0,0.0,0.0,0.0,0.0,0.0,0.0,0.0,0.0,0.0,0.0,0.0,0.0,0.0,0.0,0.0,-0.6247,-0.5112,-0.4744,-0.5643,-0.4402,-0.4141,-0.5724,-0.2254,-0.0446,-0.1496,0.0,0.0,0.0,0.0,0.0,0.0,0.0,0.0,0.0,0.0,0.0,0.0,0.0,0.0,0.0,0.0,0.0,0.0,0.0,0.0,0.0,0.0,0.0,0.0,0.0,0.0,0.0,0.0,0.0,0.0,0.0,0.0,0.0,0.0,0.0,0.0,0.0,0.0,0.0,0.0,0.0,0.0,0.0,0.0,0.0,0.0,0.0,0.0,0.0,0.0,0.0,0.0,0.0,0.0,0.0,0.0,0.0,0.0,0.0,0.0,0.0,0.0,0.0,0.0,0.0,0.0,0.0,0.0,0.0,0.0,0.0,0.0,0.0,0.0,0.0,0.0,0.0,0.0,0.0,0.0,0.0,0.0,0.0,0.0,0.0,0.0,0.0,0.0,0.0,0.0,0.0,0.0,0.0,0.0,0.0,0.0,0.0,0.0,0.0,0.0,0.0,0.0,-0.6994,-0.5652,-0.5085,-0.5983,-0.3616,-0.3383,-0.6867,-0.2758,0.0,0.0,0.0,0.0,0.0,0.0,0.0,0.0,0.0,0.0,0.0,0.0,0.0,0.0,0.0,0.0,0.0,0.0,0.0,0.0,0.0,0.0,0.0,0.0,0.0,0.0,0.0,0.0,0.0,0.0,0.0,0.0,0.0,0.0,0.0,0.0,0.0,0.0,0.0,0.0,0.0,0.0,0.0,0.0,0.0,0.0,0.0,0.0,0.0,0.0,0.0,0.0,0.0,0.0,0.0,0.0,0.0,0.0,0.0,0.0,0.0,0.0,-1.0255,0.0,0.0,0.0,0.0,0.0,0.0,0.0,0.0,0.0,0.0,0.0,0.0,0.0,0.0,0.0,0.0,0.0,0.0,0.0,0.0,0.0,0.0,0.0,0.0,0.0,0.0,0.0,0.0,0.0,0.0,0.0,0.0,0.0,0.0,0.0,0.0,0.0,0.0,0.0,0.0,0.0,-0.6518,-0.5603,-0.525,-0.5873,-0.3484,-0.1799,-0.1692,-0.0645,0.0,0.0,0.0,0.0,0.0,0.0,0.0,0.0,0.0,0.0,0.0,0.0,0.0,0.0,0.0,0.0,0.0,0.0,0.0,0.0,0.0,0.0,0.0,0.0,0.0,0.0,0.0,0.0,0.0,0.0,0.0,0.0,0.0,0.0,0.0,0.0,0.0,0.0,0.0,0.0,0.0,0.0,0.0,0.0,0.0,0.0,0.0,0.0,0.0,0.0,0.0,0.0,0.0,0.0,0.0,0.0,0.0,0.0,0.0,0.0,0.0,0.0,0.0,-0.9936,0.0,0.0,0.0,0.0,0.0,0.0,0.0,0.0,0.0,0.0,0.0,0.0,0.0,0.0,0.0,0.0,0.0,0.0,0.0,0.0,0.0,0.0,0.0,0.0,0.0,0.0,0.0,0.0,0.0,0.0,0.0,0.0,0.0,0.0,0.0,0.0,0.0,0.0,0.0,0.0,-0.5813,-0.5059,-0.4709,-0.5213,-0.3511,-0.2152,-0.1717,-0.1176,-0.0862,-0.0862,-0.1473,0.0,0.0,0.0,0.0,0.0,0.0,0.0,0.0,0.0,0.0,0.0,0.0,0.0,0.0,0.0,0.0,0.0,0.0,0.0,0.0,0.0,0.0,0.0,0.0,0.0,0.0,0.0,0.0,0.0,0.0,0.0,0.0,0.0,0.0,0.0,0.0,0.0,0.0,0.0,0.0,0.0,0.0,0.0,0.0,0.0,0.0,0.0,0.0,0.0,0.0,0.0,0.0,0.0,0.0,0.0,-0.9822,-0.988,-0.9979,-1.0098,-1.0039,-1.0013,-1.0016,0.0,0.0,0.0,0.0,0.0,0.0,0.0,0.0,0.0,0.0,0.0,0.0,0.0,0.0,0.0,0.0,0.0,0.0,0.0,0.0,0.0,0.0,0.0,0.0,0.0,-0.2801,-0.3204,0.0,0.0,0.0,0.0,0.0,0.0,0.0,0.0,0.0,0.0,0.0,0.0,-0.4844,-0.4208,-0.3874,-0.4349,-0.3523,-0.309,-0.3474,-0.2641,-0.2142,-0.2251,-0.33,-0.3843,0.0,0.0,0.0,0.0,0.0,0.0,0.0,0.0,0.0,0.0,0.0,0.0,0.0,0.0,0.0,0.0,0.0,0.0,0.0,0.0,0.0,0.0,0.0,0.0,0.0,0.0,0.0,0.0,0.0,0.0,0.0,0.0,-0.9805,-1.2109,0.0,0.0,0.0,0.0,0.0,0.0,0.0,0.0,0.0,0.0,0.0,0.0,0.0,0.0,-1.011,-1.0122,-1.0088,-0.9959,-1.0012,-0.9978,-0.9877,-0.9904,-0.9971,-1.0096,-1.0087,0.0,-0.9656,-0.9494,0.0,0.0,0.0,0.0,0.0,0.0,0.0,0.0,0.0,0.0,0.0,0.0,0.0,0.0,0.0,0.0,0.0,0.0,0.0,0.0,0.0,0.0,-0.2685,-0.2685,-0.2725,-0.281,0.0,-0.3524,-0.3852,-0.3806,0.0,0.0,0.0,0.0,0.0,0.0,0.0,0.0,-0.3389,-0.3073,-0.3062,-0.3577,-0.3297,-0.3202,-0.3478,-0.336,-0.3493,-0.4021,-0.4218,-0.4094,-0.3556,-0.3449,0.0,0.0,0.0,0.0,0.0,0.0,0.0,0.0,0.0,0.0,0.0,0.0,0.0,0.0,0.0,0.0,0.0,0.0,0.0,0.0,0.0,0.0,0.0,0.0,0.0,0.0,0.0,0.0,0.0,-1.1196,-1.0866,-1.0932,-1.2172,-1.2826,0.0,0.0,0.0,0.0,0.0,0.0,0.0,0.0,0.0,-1.0103,-1.0052,-1.0037,-1.0037,-1.0059,-1.0044,-0.9934,-0.9967,-0.9957,-0.9906,-0.9978,-1.0038,-1.0091,-1.0136,-1.0045,-0.9877,-0.9871,-0.9515,-0.8927,0.0,0.0,0.0,0.0,0.0,-0.7463,-0.8399,0.0,0.0,0.0,0.0,0.0,0.0,0.0,0.0,0.0,0.0,0.0,0.0,0.0,0.0,-0.2529,-0.2469,-0.2511,-0.2768,-0.3013,-0.3065,0.0,-0.3146,-0.3681,-0.3895,0.0,0.0,0.0,0.0,0.0,-0.3017,-0.2689,-0.2633,-0.3221,-0.3177,-0.3346,-0.3947,-0.3868,-0.3955,-0.4375,-0.4337,-0.4182,-0.3915,-0.3561,-0.3319,0.0,0.0,0.0,0.0,0.0,0.0,0.0,0.0,0.0,0.0,0.0,0.0,0.0,0.0,0.0,0.0,0.0,0.0,0.0,0.0,0.0,0.0,0.0,0.0,0.0,0.0,0.0,0.0,-1.1214,-1.2041,-1.0363,-1.1556,-1.2083,0.0,0.0,0.0,0.0,0.0,0.0,-1.0234,-1.0148,-1.0191,-1.0378,-1.0263,-1.0225,-1.0288,-1.0225,-1.0101,-0.9901,-0.9901,-0.9898,-0.9905,-1.0006,-1.0053,-1.0086,-1.0133,-1.0115,-1.0057,-1.0102,-0.9802,-0.9276,-0.9068,-0.8444,0.0,-0.7571,-0.7446,-0.7429,-0.8111,-0.8305,-0.8223,-0.8312,0.0,-0.6239,-0.5562,0.0,0.0,0.0,0.0,-0.2666,-0.2579,0.0,-0.2367,-0.1887,-0.1696,-0.1783,-0.2242,-0.2542,-0.2433,0.0,-0.2071,-0.2695,-0.2742,0.0,0.0,0.0,0.0,-0.2094,-0.2685,-0.2416,-0.2438,-0.3078,-0.3159,-0.3489,-0.4343,-0.4101,-0.405,-0.4334,-0.4181,-0.4079,-0.402,-0.368,-0.3198,0.0,0.0,0.0,0.0,0.0,0.0,0.0,0.0,0.0,0.0,0.0,0.0,0.0,0.0,0.0,0.0,0.0,0.0,0.0,0.0,0.0,0.0,0.0,0.0,0.0,0.0,0.0,0.0,0.0,0.0,-1.1175,-1.0407,0.0,0.0,0.0,0.0,-1.0152,-1.0211,-1.0233,-1.0209,-1.0139,-1.0411,-1.1122,-1.0892,-1.0841,-1.1036,-1.086,-1.0476,-0.9891,-0.9891,-0.9898,-0.9901,-0.9911,-0.9942,-1.001,-1.0006,-0.9974,-0.9892,-0.9719,-0.9711,-0.9797,-0.916,-0.8821,-0.8711,-0.8717,-0.815,-0.752,-0.8442,-0.8192,-0.7415,-0.7177,-0.6005,-0.463,-0.4205,-0.3756,0.0,0.0,-0.3003,-0.2683,-0.2686,-0.2686,-0.2242,-0.0532,-0.01,-0.0333,-0.1203,-0.2058,-0.2199,0.0,-0.0145,-0.0258,-0.0426,0.0,-0.1686,-0.1104,-0.1197,-0.155,-0.2084,-0.2133,-0.2403,-0.3193,-0.3296,-0.359,-0.4349,-0.3986,-0.3843,-0.4188,-0.3962,-0.374,-0.3528,-0.3827,-0.2779,-0.0234,0.0141,0.0,0.0,0.0,0.0,0.0,0.0,0.0,0.0,0.0,0.0,0.0,0.0,0.0,0.0,0.0,0.0,0.0,0.0,0.0,0.0,0.0,0.0,0.0,0.0,0.0,0.0,0.0,0.0,-1.1276,-1.086,0.0,0.0,-1.0683,-1.0496,-1.0129,-1.0114,-1.0155,-1.0208,-1.054,-1.0866,-1.1118,-1.1461,-1.1672,-1.1743,-1.1672,-1.1266,-1.0539,-1.0539,-1.0294,-0.9825,-0.9738,-0.9782,-0.9927,-0.9756,-0.9987,-1.0453,-1.0166,-0.9919,-0.9648,-0.9115,-0.8606,-0.8156,-0.8068,-0.7586,-0.7075,-0.7492,-0.7363,-0.6828,-0.5793,-0.4702,-0.3677,-0.3303,-0.3047,-0.2918,-0.2918,-0.2823,-0.252,-0.1742,-0.1238,-0.0801,-0.0167,0.0903,0.1642,0.1338,0.0535,0.0067,0.072,0.1313,0.1513,0.0848,0.0927,0.0757,-0.0172,-0.0257,-0.0541,-0.1468,-0.229,-0.3008,-0.3552,-0.3435,-0.3633,-0.4448,-0.3931,-0.3462,-0.3183,-0.2849,-0.2328,-0.1679,-0.1489,-0.0979,-0.0035,0.0614,0.1196,0.0,0.0,0.0,0.0,0.0,0.0,0.0,0.0,0.0,0.0,0.0,0.0,0.0,0.0,0.0,0.0,0.0,0.0,0.0,0.0,0.0,0.0,0.0,0.0,0.0,0.0,-1.2406,-1.2139,-1.1503,-1.1125,-1.1193,-1.0893,-1.0527,-1.0122,-1.012,-1.0273,-1.0597,-1.0923,-1.1364,-1.1925,-1.2234,-1.243,-1.2499,-1.243,-1.19,-1.0893,-1.0858,-1.0436,-0.9699,-0.9563,-0.9568,-0.968,-0.9431,-0.9843,-1.0622,-1.0241,-1.0085,-1.0086,-0.9611,-0.8843,-0.7969,-0.798,-0.7629,-0.705,-0.673,-0.6347,-0.5837,-0.4565,-0.3681,-0.3043,-0.2786,-0.2417,-0.2047,-0.1845,-0.1776,-0.1605,-0.0801,-0.0133,0.0467,0.1032,0.2106,0.2959,0.2981,0.2338,0.1835,0.2006,0.239,0.2497,0.1866,0.2273,0.2284,0.1093,0.0299,-0.0476,-0.1364,-0.2387,-0.3211,-0.3668,-0.3465,-0.3635,-0.4456,-0.3543,-0.2748,-0.2368,-0.1301,-0.0435,0.0197,0.0957,0.138,0.1465,0.2,0.261,0.3275,0.0,0.0,0.0,0.0,0.0,0.0,0.0,0.0,0.0,0.0,0.0,0.0,0.0,0.0,0.0,0.0,0.0,0.0,0.0,0.0,0.0,0.0,0.0,-1.5075,-1.3772,-1.3024,-1.3807,-1.2244,-1.1154,-1.1247,-1.0445,-0.9978,-1.0125,-1.0195,-1.0597,-1.1399,-1.1277,-1.1932,-1.3543,-1.3233,-1.3145,-1.3325,-1.3127,-1.2325,-1.0912,-1.0794,-1.0295,-0.9491,-0.9358,-0.9303,-0.9311,-0.9101,-0.9543,-1.0383,-0.9872,-1.0255,-1.1127,-1.0677,-0.9603,-0.8373,-0.868,-0.8298,-0.7442,-0.6212,-0.5248,-0.4413,-0.3584,-0.3047,-0.2696,-0.2633,-0.178,-0.0736,-0.0134,0.0067,0.01,0.01,0.0536,0.1406,0.3088,0.3526,0.3513,0.3514,0.3118,0.29,0.3381,0.3059,0.273,0.2696,0.2696,0.2696,0.2696,0.0468,0.0,-0.1697,-0.2266,-0.2894,-0.3495,-0.342,-0.3578,-0.4253,-0.2747,-0.1713,-0.1692,0.0518,0.1848,0.189,0.3261,0.4155,0.4432,0.4393,0.4391,0.4378,0.0,0.0,0.0,0.0,0.0,0.0,0.0,0.0,0.0,0.0,0.0,0.0,0.0,0.0,0.0,0.0,0.0,0.0,0.0,0.0,0.0,0.0,-1.2876,-1.3219,-1.3437,-1.3652,-1.3867,-1.2419,-1.1621,-1.223,-1.0966,-1.0399,-1.1066,-1.1125,-1.1518,-1.2362,-1.2818,-1.3221,-1.358,-1.4017,-1.4136,-1.3938,-1.3889,-1.3047,-1.1406,-1.1373,-1.0649,-0.9358,-0.9208,-0.9387,-0.9795,-0.9546,-1.0018,-1.0962,-1.0728,-1.059,-1.0505,-1.0296,-0.9718,-0.8966,-0.8536,-0.7298,-0.5822,-0.548,-0.463,-0.3649,-0.3504,-0.3121,-0.2441,-0.0978,-0.0378,-0.0102,0.0659,0.1533,0.2261,0.2384,0.2706,0.3088,0.3473,0.3711,0.3863,0.3858,0.3756,0.3593,0.3397,0.3237,0.3039,0.2749,0.2686,0.2686,0.2696,0.0,0.0,-0.0361,-0.1031,-0.1799,-0.2819,-0.3477,-0.3472,-0.2577,-0.1281,-0.007,0.0,0.1854,0.2816,0.3782,0.4492,0.494,0.5055,0.4427,0.4156,0.0,0.0,0.0,0.0,0.0,0.0,0.0,0.0,0.0,0.0,0.0,0.0,0.0,0.0,0.0,0.0,0.0,0.0,0.0,0.0,0.0,0.0,-1.2635,-1.226,-1.2031,-1.2809,-1.353,-1.3895,-1.2469,-1.1648,-1.2155,-1.1329,-1.0953,-1.1462,-1.1841,-1.2404,-1.3267,-1.3568,-1.3849,-1.4143,-1.4436,-1.4526,-1.4338,-1.4245,-1.337,-1.171,-1.1583,-1.0662,-0.9091,-0.9247,-0.9396,0.0,-0.959,-1.0104,-1.0871,-1.047,-1.0179,0.0,0.0,0.0,0.0,0.0,-0.6241,-0.4922,-0.472,-0.4092,-0.3352,-0.32,-0.2356,-0.1188,-0.0,0.0841,0.1557,0.2338,0.2983,0.3552,0.3876,0.4026,0.409,0.4216,0.4358,0.4471,0.4528,0.4493,0.43,0.3709,0.0,0.0,0.2843,0.2774,0.2801,0.2834,0.2349,0.1626,0.0,-0.0,-0.0657,-0.147,-0.1939,-0.1848,-0.1121,0.0217,0.0,0.0,0.0,0.4296,0.5356,0.5449,0.0,0.0,0.0,0.5,0.0,0.0,0.0,0.0,0.5208,0.5313,0.0,0.0,0.0,0.0,0.0,0.0,0.0,0.0,0.0,0.0,0.0,0.0,0.0,0.0,0.0,0.0,-1.1775,-1.2154,-1.1656,-1.2234,-1.2982,-1.3769,-1.2409,-1.1438,-1.1492,-1.1503,-1.1545,-1.1641,-1.2459,-1.3273,-1.4074,0.0,0.0,0.0,0.0,-1.4499,-1.4464,-1.4179,-1.3347,-1.1971,-1.1458,-1.0384,-0.8879,-0.9252,-0.9228,-0.8919,-0.9292,-0.9739,-1.0157,-0.9403,-0.9168,-0.9312,-0.9654,-0.8892,-0.7435,-0.6196,-0.5123,0.0,0.0,0.0,0.0,-0.2514,-0.113,0.0443,0.0699,0.1963,0.3462,0.4203,0.4224,0.4154,0.4793,0.4745,0.4643,0.5074,0.5192,0.5246,0.5366,0.531,0.5033,0.4305,0.3911,0.3572,0.3184,0.3075,0.3051,0.3113,0.2578,0.0,0.1611,0.1152,0.0823,0.0627,0.0,0.0,0.0621,0.1856,0.3183,0.4521,0.533,0.6029,0.6685,0.6308,0.6342,0.6866,0.6455,0.6304,0.6499,0.6499,0.6669,0.6989,0.6014,0.5979,0.0,0.0,0.0,0.0,0.0,0.0,0.0,0.0,0.0,0.0,0.0,0.0,0.0,0.0,0.0,-1.2554,-1.259,-1.2655,-1.3231,-1.2966,-1.276,-1.2924,-1.208,-1.1482,-1.1495,-1.1492,-1.1787,-1.249,-1.3303,-1.4104,-1.4852,-1.4781,0.0,-1.4728,-1.4697,-1.453,-1.427,-1.3469,-1.2833,-1.2375,0.0,0.0,-0.9275,-0.8668,-0.8544,-0.8803,-0.8571,-0.8483,-0.8443,-0.7967,-0.7601,-0.7325,-0.7184,-0.7077,-0.6832,-0.5734,-0.405,-0.2293,-0.2048,-0.1341,-0.05,-0.0339,-0.0,0.0658,0.2447,0.3115,0.0,0.4173,0.4269,0.431,0.5047,0.5346,0.5488,0.5566,0.5788,0.5986,0.6035,0.5996,0.5834,0.5299,0.4771,0.4426,0.451,0.4098,0.3809,0.3804,0.42,0.4311,0.3839,0.3829,0.3968,0.4244,0.3245,0.3091,0.4419,0.4191,0.4553,0.5858,0.6812,0.7546,0.8023,0.7498,0.7237,0.7381,0.674,0.6645,0.7027,0.7027,0.7444,0.8131,0.6847,0.6818,0.0,0.0,0.0,0.0,0.0,0.0,0.0,0.0,0.0,0.0,0.0,-1.2279,0.0,0.0,-1.2073,-1.2613,-1.2931,-1.2976,-1.2642,-1.2688,-1.2586,-1.2154,-1.1366,-1.0842,-1.0846,-1.1644,-1.2339,-1.2767,-1.395,-1.4783,-1.508,-1.4995,-1.4875,-1.4717,-1.4635,-1.4526,-1.4362,-1.3797,-1.3035,-1.209,-1.1186,-0.9974,-0.8552,-0.8511,-0.813,-0.7535,-0.8289,-0.7735,-0.6277,-0.5341,-0.4442,-0.3664,-0.3167,-0.3703,-0.4544,-0.3266,-0.195,-0.0765,-0.0622,0.0298,0.1391,0.1458,0.2202,0.3319,0.44,0.4559,0.4459,0.5119,0.5351,0.5524,0.6033,0.6241,0.6319,0.6182,0.6285,0.6371,0.623,0.631,0.6212,0.5614,0.5312,0.5157,0.5196,0.5141,0.4979,0.4587,0.4913,0.5131,0.4875,0.4928,0.5048,0.5171,0.4595,0.4486,0.5184,0.5247,0.5749,0.6898,0.762,0.8218,0.8691,0.8455,0.8238,0.8106,0.8088,0.8142,0.8265,0.8528,0.8893,0.9304,0.8873,0.8879,0.0,0.0,0.0,0.0,0.0,0.0,0.0,0.0,-1.1701,-1.2196,-1.2327,-1.2319,-1.2262,-1.2528,-1.2695,-1.2506,-1.3178,-1.3294,-1.2073,-1.2418,-1.247,-1.1594,-1.0722,-1.0208,-1.0229,-1.1772,-1.2792,-1.2788,-1.4342,-1.523,-1.5076,-1.5109,-1.4991,-1.4666,-1.4714,-1.4641,-1.4453,-1.4039,-1.3209,-1.1915,-1.1492,-1.0158,-0.804,-0.8438,-0.7802,-0.6455,-0.7112,-0.5999,-0.3617,-0.2237,-0.0948,0.0257,0.0897,0.0448,-0.0533,-0.0035,0.0686,0.1497,0.1647,0.2376,0.3229,0.329,0.4404,0.5796,0.5782,0.555,0.5443,0.6108,0.6446,0.6705,0.7067,0.7154,0.7047,0.6814,0.6801,0.6811,0.657,0.6708,0.6686,0.6092,0.5921,0.5878,0.5895,0.6194,0.6215,0.5619,0.5677,0.5862,0.5936,0.5979,0.5905,0.5815,0.5691,0.5497,0.5164,0.6028,0.6967,0.7772,0.8246,0.8695,0.9259,0.9251,0.9181,0.907,0.9575,0.9788,0.9639,1.0096,1.0487,1.0878,1.1386,1.116,-1.0803,-1.1159,-1.1607,-1.1203,-1.1711,-1.2369,0.0,0.0,-1.1744,-1.1628,-1.1286,-1.1068,-1.1298,-1.1612,-1.2206,-1.3269,-1.3636,-1.378,-1.3715,-1.3141,-1.2407,-1.1606,-1.0721,-1.021,-1.0273,-1.1814,-1.2773,-1.2727,-1.432,-1.5196,-1.4944,-1.5583,-1.5515,-1.4552,-1.5209,-1.5154,-1.4245,-1.3156,-1.2631,-1.2639,-1.0745,-0.9619,-0.9172,-0.8075,-0.7434,-0.6988,-0.3308,-0.1131,-0.0103,0.083,0.1928,0.3015,0.3614,0.501,0.6278,0.315,0.3701,0.6011,0.6188,0.5936,0.5545,0.5653,0.554,0.5363,0.5346,0.5351,0.5479,0.6315,0.6588,0.6796,0.7576,0.7622,0.7453,0.7419,0.7603,0.7762,0.7732,0.7755,0.7728,0.7643,0.7032,0.6663,0.7179,0.7255,0.7229,0.7152,0.7411,0.7773,0.8252,0.8333,0.8325,0.8286,0.739,0.6596,0.6096,0.7484,0.8471,0.856,0.9132,0.9695,1.0239,0.9864,0.9841,1.0306,1.0383,1.0586,1.0909,1.0965,1.1908,1.3642,1.3704,1.2977,-1.0508,-1.0947,0.0,0.0,-1.1704,-1.2347,-1.259,-1.2011,-1.1475,-1.1585,-1.1527,-1.1582,-1.204,-1.2568,-1.3167,0.0,-1.4211,-1.4035,-1.3198,-1.2796,-1.2108,-1.0842,-1.0357,-1.0164,-1.0231,-1.1367,-1.2263,-1.2676,-1.382,-1.4612,-1.4883,-1.5444,-1.5311,-1.4356,-1.4945,-1.482,-1.38,-1.3134,-1.2389,-1.1558,-1.0343,-0.8965,-0.7463,-0.677,-0.5775,-0.4402,-0.1391,0.1375,0.3758,0.3561,0.4276,0.5556,0.6028,0.7228,0.8426,0.5831,0.5647,0.6695,0.6525,0.6492,0.6492,0.6241,0.6198,0.6295,0.6295,0.6446,0.6635,0.7026,0.7058,0.7055,0.7194,0.7014,0.6809,0.7042,0.7295,0.7615,0.8018,0.8446,0.8617,0.8197,0.8008,0.7955,0.801,0.8157,0.833,0.8603,0.8709,0.8844,0.9084,0.9345,0.9506,0.9462,0.878,0.8245,0.8039,0.8635,0.9064,0.9168,0.9403,0.9915,1.0735,1.087,1.1023,1.1174,1.2038,1.2397,1.222,1.319,1.4096,1.4943,1.5627,1.5612,-1.0655,0.0,0.0,-1.1843,-1.2148,-1.2624,-1.3104,-1.2448,-1.1818,-1.2087,-1.1925,-1.1856,-1.2235,-1.2804,0.0,-1.3847,-1.4198,-1.4073,-1.3073,-1.2571,-1.1975,-1.0999,-1.0512,-1.0252,-1.0254,-1.1052,-1.1881,-1.2639,-1.3427,-1.4245,-1.5076,-1.5575,-1.5442,-1.4606,-1.4935,-1.464,-1.37,-1.3168,-1.2193,-1.0793,-1.0234,-0.8688,-0.6338,-0.5751,-0.4417,-0.2414,-0.0374,0.2307,0.5175,0.5253,0.5942,0.7051,0.7509,0.8452,0.943,0.8135,0.7715,0.7763,0.723,0.7608,0.8177,0.7482,0.7645,0.8052,0.7853,0.785,0.7875,0.7767,0.7527,0.7211,0.6829,0.647,0.6304,0.6838,0.7301,0.7819,0.852,0.9229,0.957,0.9097,0.9158,0.9234,0.9003,0.927,0.9703,1.0148,1.0218,1.0136,0.9865,1.04,1.0784,1.073,1.0419,1.013,1.0002,1.0139,1.0266,1.0355,1.0359,1.0852,1.2046,1.2144,1.2484,1.2998,1.395,1.4253,1.396,1.5172,1.5935,1.6233,1.712,1.759,0.0,0.0,-1.313,-1.3436,-1.3399,-1.3527,-1.4498,-1.3921,-1.3164,-1.324,-1.2226,-1.1263,-1.1085,-1.1391,-1.1889,-1.2629,-1.3302,-1.385,-1.4201,-1.2896,-1.2178,-1.2832,-1.159,-1.0603,0.0,-1.1081,-1.1842,-1.2634,-1.3383,-1.4351,-1.5603,-1.6292,-1.6325,-1.5588,-1.5444,-1.5008,-1.4198,-1.3008,-1.1966,-1.1084,-1.0396,-0.8983,-0.6924,-0.5412,-0.3895,-0.2264,-0.0077,0.1501,0.2719,0.5343,0.6665,0.7071,0.7641,0.8798,1.008,1.0029,1.0345,1.0639,0.9716,1.0371,1.1387,1.0325,1.0358,1.0658,1.0007,0.935,0.8786,0.8393,0.781,0.7189,0.6727,0.6403,0.6396,0.7121,0.7966,0.8852,0.9533,1.023,1.0731,1.0731,1.0533,1.0364,1.0333,1.0802,1.1342,1.1916,1.2194,1.1981,1.1071,1.1872,1.2518,1.2517,1.2519,1.2299,1.1762,1.2215,1.2519,1.2508,1.2505,1.3178,1.4739,1.38,1.4236,1.6306,1.5883,1.5883,1.639,1.6431,1.7001,1.8006,1.805,1.8346,0.0,0.0,-1.3955,-1.4578,-1.4687,-1.4763,-1.5339,-1.4475,-1.3206,-1.2014,-1.119,-1.0542,-1.0034,-1.0865,-1.1926,-1.2988,-1.3944,-1.4409,-1.4024,-1.3957,-1.36,-1.2596,-1.2088,0.0,0.0,0.0,0.0,-1.1434,-1.183,-1.2643,-1.3972,-1.4209,-1.4143,-1.3744,-1.3735,-1.3295,-1.2347,-1.1762,-1.0908,-0.9808,-0.7849,-0.62,-0.4875,-0.4416,-0.3859,-0.3111,-0.1861,-0.0577,0.073,0.2449,0.4073,0.5434,0.5798,0.6866,0.8306,0.8692,0.9382,1.0174,1.0328,1.0696,1.0978,1.0215,1.0081,1.0176,0.9959,0.9588,0.9186,0.9094,0.7954,0.6812,0.6622,0.6147,0.5931,0.6637,0.7904,0.928,1.0382,1.1507,1.2292,1.2287,1.2457,1.2292,1.1425,1.1831,1.2508,1.3186,1.3725,1.3823,1.3141,1.3701,1.4105,1.4067,1.3786,1.3667,1.38,1.3967,1.4117,1.4174,1.4209,1.4563,1.5417,1.5099,1.5392,1.6473,1.6578,1.6732,1.6904,1.7937,1.8601,1.8976,1.969,2.0115,0.0,-1.4827,-1.5767,-1.6088,-1.6191,-1.6113,-1.5708,-1.4624,-1.3192,-1.1374,-1.0592,-1.0039,-0.9419,-1.0234,-1.1311,-1.2207,-1.341,-1.4121,-1.3702,-1.4129,-1.4324,-1.3853,-1.3362,0.0,0.0,0.0,0.0,-1.0832,-1.1059,-1.1679,-1.2691,-1.2814,-1.2729,-1.2481,-1.2199,-1.1641,-1.0883,-1.0557,-0.984,-0.8787,-0.6731,-0.5318,-0.4465,-0.4652,-0.4591,-0.4341,-0.3792,-0.286,-0.1641,-0.0274,0.1271,0.2837,0.3954,0.5233,0.6533,0.7013,0.8133,0.9501,1.0111,1.0831,1.1398,1.0876,1.1104,1.158,1.1361,1.0983,1.0507,1.0016,0.8841,0.7676,0.741,0.6972,0.6806,0.7564,0.8711,1.0059,1.1429,1.2705,1.3671,1.3839,1.4306,1.4279,1.3246,1.3307,1.3672,1.4136,1.5061,1.5492,1.4778,1.5133,1.5475,1.5405,1.5124,1.5174,1.5649,1.5691,1.5815,1.6111,1.5925,1.6136,1.684,1.6487,1.6706,1.7648,1.7879,1.8086,1.8257,1.9412,1.9955,1.9971,2.0671,2.0991,-1.6175,-1.7394,-1.8315,-1.7877,-1.7798,-1.7385,-1.5659,-1.4399,-1.3053,-1.1276,-1.0368,-0.9701,0.0,0.0,-1.0273,-1.0667,-1.2054,-1.3204,-1.3515,-1.3749,-1.459,0.0,0.0,0.0,0.0,0.0,0.0,-1.0975,0.0,-1.1472,-1.1832,-1.2099,-1.2094,-1.1801,-1.0855,-1.0169,-0.9818,-0.9347,-0.8746,-0.7989,-0.7019,-0.6268,-0.5728,-0.5958,-0.5943,-0.5723,-0.5725,-0.5291,-0.4412,-0.278,-0.1654,-0.0679,0.2078,0.3742,0.4657,0.4934,0.6463,0.8474,0.9036,1.0724,1.2599,1.2192,1.3232,1.4514,1.4003,1.3406,1.2648,1.1379,1.0463,0.9753,0.9109,0.8903,0.902,0.9658,1.0378,1.1239,1.2561,1.3814,1.4846,1.546,1.5979,1.6181,1.5624,1.5106,1.4767,1.483,1.6207,1.6831,1.5878,1.6257,1.6625,1.6574,1.6595,1.6795,1.7353,1.7394,1.7626,1.8145,1.772,1.7876,1.8939,1.7993,1.8186,1.9747,1.9687,1.9904,2.0348,2.0797,2.1023,2.1023,2.1071,2.1071,-1.7547,-1.8272,-1.8921,-1.861,-1.7714,-1.6498,-1.4858,-1.3188,-1.1527,-0.9926,-0.9425,-0.9403,0.0,0.0,0.0,-1.3535,-1.4837,0.0,-1.5832,-1.6842,0.0,0.0,0.0,-1.6765,-1.6258,-1.5149,0.0,0.0,-1.1789,-1.1527,-1.1406,-1.0626,-1.0211,-1.0339,-0.9138,-0.8459,-0.8319,-0.7475,-0.6907,-0.6587,-0.6303,-0.5992,-0.5742,-0.6463,-0.6611,-0.6276,-0.711,-0.7134,-0.6585,-0.616,-0.5247,-0.3979,-0.2349,-0.1379,-0.0672,0.1292,0.3016,0.452,0.5387,0.7813,1.063,1.1572,1.2541,1.3433,1.415,1.4244,1.4098,1.4136,1.3257,1.2268,1.2109,1.178,1.1384,1.1106,1.1661,1.2503,1.3318,1.4415,1.558,1.6634,1.6889,1.678,1.6268,1.5704,1.5316,1.5409,1.6448,1.6994,1.6362,1.7479,1.8121,1.772,1.7706,1.7907,1.8458,1.8496,1.8727,1.9244,1.917,1.9358,1.9919,1.9682,1.9875,2.0665,2.0649,2.0715,2.0829,2.1244,2.143,2.146,2.1811,2.1991,-1.9846,-2.0255,-2.0326,-1.9748,-1.836,-1.6734,-1.504,-1.3136,-1.1405,-1.0155,-0.9849,0.0,0.0,0.0,0.0,0.0,0.0,0.0,-1.5702,-1.7071,-1.8206,0.0,-1.8243,0.0,-1.7349,-1.6383,-1.4885,0.0,-1.2047,-1.1365,-1.0544,-0.96,-0.9042,-0.8973,-0.7991,-0.7321,-0.7113,-0.6012,-0.558,-0.576,-0.6266,-0.6334,-0.6156,-0.7637,-0.8091,-0.7766,0.0,-0.9124,-0.8854,-0.8459,-0.7895,-0.7075,-0.5631,-0.4614,-0.3764,-0.2065,-0.0536,0.0817,0.2064,0.4044,0.6639,0.9988,1.1889,1.309,1.454,1.4969,1.5089,1.5794,1.5423,1.4853,1.5061,1.4767,1.4238,1.3667,1.3573,1.3684,1.4054,1.4846,1.6016,1.7679,1.7946,1.7853,1.7531,1.6793,1.6328,1.6663,1.7343,1.7843,1.7847,1.846,1.8688,1.8185,1.8106,1.8341,1.8855,1.8893,1.9132,1.969,1.969,1.9874,2.028,2.0314,2.0516,2.0991,2.1181,2.1244,2.1275,2.1816,2.2022,2.1928,2.2298,2.2398,-2.2087,-2.2305,-2.1784,-2.0771,-1.905,-1.7122,-1.5412,-1.3531,-1.1911,-1.1165,0.0,0.0,-1.1481,0.0,-1.199,-1.1867,0.0,-1.4264,-1.4738,-1.6154,-1.7921,-2.001,-1.9012,-1.8069,-1.7791,-1.7274,-1.5689,-1.2648,-1.1919,-1.1042,-0.9808,-0.9138,-0.8472,-0.7787,-0.7182,-0.6592,-0.5959,-0.4854,-0.4587,-0.5178,-0.637,-0.6813,-0.6675,-0.8771,-0.9597,-0.9449,0.0,0.0,-1.0889,-1.014,-0.9875,-0.9804,-0.8107,-0.6819,-0.5875,-0.5115,-0.4028,-0.2711,-0.1246,0.0108,0.2209,0.7762,1.0963,1.2946,1.4778,1.5533,1.6028,1.7103,1.7458,1.7625,1.8049,1.7775,1.7262,1.6632,1.5684,1.4936,1.4949,1.5407,1.6473,1.8569,1.9029,1.9066,1.8991,1.8154,1.7666,1.8118,1.8508,1.8987,1.9667,1.939,1.9014,1.8593,1.8531,1.8684,1.9222,1.92,1.9376,1.9839,1.9889,2.0035,2.0449,2.0467,2.0682,2.115,2.1552,2.1744,2.1744,2.2415,2.2652,2.2415,2.2652,2.2625,-2.1828,-2.1737,-2.1384,-2.0411,-1.8027,-1.5598,-1.4403,-1.2923,0.0,0.0,0.0,-1.3003,-1.3233,-1.353,0.0,-1.4079,0.0,0.0,0.0,0.0,-1.836,0.0,0.0,0.0,0.0,0.0,0.0,0.0,0.0,0.0,-1.0413,-0.9753,-0.8691,-0.721,-0.6554,-0.5749,-0.4739,-0.4183,-0.4138,-0.4565,-0.5664,-0.6334,-0.6669,-0.8601,-0.9437,-0.9498,0.0,0.0,-1.1607,-1.1478,-1.1388,-1.1282,-0.9824,-0.9146,-0.8799,-0.7512,-0.6828,-0.6343,-0.5237,-0.2625,0.092,0.4934,0.8731,1.2033,1.3868,1.5823,1.7788,1.9615,2.0414,2.075,2.1098,2.0606,1.9777,1.8809,1.7589,1.6565,1.6182,1.6915,1.8011,1.9244,1.9798,1.9919,1.9549,1.9302,1.9067,1.8717,1.909,1.9708,2.0429,2.0572,2.0701,2.0894,2.0669,2.0668,2.1021,2.0798,2.0682,2.0764,2.0764,2.0959,2.1368,2.1383,2.1598,2.2077,2.2358,2.2512,2.2512,2.2923,2.3093,2.3038,2.3093,2.3093,-2.3324,-2.2968,-2.2046,-2.1076,-1.86,-1.613,-1.4951,0.0,0.0,0.0,0.0,-1.4077,-1.4241,0.0,0.0,0.0,0.0,0.0,0.0,0.0,0.0,0.0,0.0,0.0,0.0,0.0,0.0,0.0,0.0,0.0,-0.996,-0.9392,-0.8586,-0.7516,-0.6904,-0.6301,-0.5754,-0.4963,-0.4657,-0.4874,-0.5871,-0.669,-0.7451,-0.876,-0.9862,-1.0664,0.0,0.0,-1.1814,-1.2187,-1.2129,-1.1715,-1.1082,-1.057,-1.0171,-0.9141,-0.8265,-0.7433,-0.6539,-0.5027,-0.2795,0.1303,0.5655,0.991,1.2878,1.5186,1.7351,2.0007,2.125,2.1945,2.2571,2.2228,2.147,2.06,1.8915,1.741,1.7182,1.7783,1.8612,1.9447,2.0181,2.0583,2.0366,2.0128,1.9958,1.9928,2.067,2.1279,2.1566,2.2371,2.2607,2.1814,2.1566,2.148,2.1497,2.1348,2.118,2.0991,2.0991,2.1259,2.1845,2.1874,2.2158,2.2747,2.289,2.2972,2.2972,2.3388,2.3541,2.3352,2.3635,2.3678,-2.4366,-2.4076,-2.2949,-2.1601,-1.9158,-1.6745,-1.5533,-1.4758,0.0,0.0,-1.515,-1.5152,-1.5051,0.0,0.0,0.0,0.0,0.0,0.0,0.0,0.0,0.0,0.0,0.0,0.0,0.0,0.0,0.0,0.0,0.0,0.0,-0.8882,-0.8578,-0.839,-0.7811,-0.7493,-0.7493,-0.6367,-0.5828,-0.5828,-0.6405,-0.7225,-0.8186,-0.9099,-1.0319,-1.1746,0.0,0.0,0.0,-1.2666,-1.2559,-1.203,-1.1864,-1.1466,-1.0914,-0.9902,-0.8862,-0.7765,-0.6804,-0.6173,-0.5124,-0.1047,0.3425,0.7912,1.1636,1.4227,1.6545,1.9618,2.1361,2.2496,2.3368,2.3303,2.2733,2.1918,2.0051,1.8461,1.828,1.8627,1.9118,1.9738,2.0552,2.1118,2.1118,2.0813,2.0732,2.1165,2.2153,2.2811,2.2762,2.3975,2.4252,2.2685,2.2332,2.2183,2.2044,2.1928,2.1732,2.1486,2.1456,2.1724,2.23,2.239,2.2685,2.3247,2.3315,2.3379,2.3379,2.387,2.3969,2.3737,2.4188,2.4273,-2.312,-2.3591,-2.3515,-2.1099,-1.8378,-1.6037,-1.5012,0.0,0.0,-1.5538,-1.6471,-1.6824,-1.6033,-1.4924,0.0,0.0,0.0,0.0,0.0,0.0,0.0,0.0,0.0,0.0,0.0,0.0,0.0,0.0,0.0,0.0,0.0,-0.8585,-0.9041,-0.9943,-0.94,-0.9072,-0.9085,-0.7998,-0.7473,-0.7481,-0.7141,-0.7468,-0.8414,-0.942,-1.0453,-1.1498,0.0,0.0,0.0,-1.2881,-1.2871,-1.2715,-1.208,-1.1765,-1.1458,-0.9504,-0.8731,-0.837,-0.6593,-0.4765,-0.2749,0.0274,0.371,0.7167,0.9875,1.3146,1.6465,1.914,2.1299,2.301,2.3757,2.4045,2.3786,2.2387,2.1368,2.0523,1.9847,1.9882,2.0175,2.0606,2.1163,2.1552,2.1552,2.1521,2.1595,2.1955,2.2704,2.3399,2.3879,2.4721,2.5053,2.458,2.3823,2.3455,2.3757,2.3325,2.3028,2.3003,2.3003,2.3028,2.3093,2.3267,2.339,2.3473,2.3775,2.393,2.393,2.4282,2.4442,2.4407,2.4651,2.4741,-2.3338,-2.3589,-2.2988,-2.0976,-1.8429,-1.6165,-1.5072,0.0,0.0,-1.6015,-1.7035,-1.749,-1.6476,-1.5725,-1.4926,0.0,0.0,0.0,0.0,0.0,0.0,0.0,0.0,0.0,0.0,0.0,0.0,0.0,0.0,0.0,0.0,-0.7944,-0.8996,-0.97,-0.9789,-0.9993,-1.027,-0.9256,-0.8543,-0.8222,-0.7928,-0.8296,-0.9322,-0.9525,-1.0612,-1.2263,0.0,0.0,0.0,-1.1149,-1.1007,-1.0981,-1.0199,-0.9936,-0.9813,-0.8995,-0.799,-0.6735,-0.4747,-0.2817,-0.0773,0.1756,0.4981,0.8218,1.0023,1.2858,1.589,1.8223,2.0368,2.222,2.344,2.4111,2.4297,2.3581,2.2774,2.2065,2.1756,2.167,2.1673,2.186,2.2634,2.3209,2.3011,2.3161,2.3431,2.3841,2.4212,2.4582,2.4947,2.5522,2.5709,2.5216,2.4631,2.4219,2.4026,2.3812,2.3541,2.3212,2.3302,2.3462,2.3668,2.3876,2.4026,2.41,2.4228,2.4229,2.4116,2.4491,2.4685,2.4685,2.4962,2.5103,-2.2251,-2.2602,-2.2086,-2.013,-1.7868,-1.5811,0.0,0.0,-1.5374,-1.6309,-1.7239,-1.7608,-1.6759,-1.6218,-1.5437,0.0,0.0,0.0,0.0,0.0,0.0,0.0,0.0,0.0,0.0,0.0,0.0,0.0,0.0,0.0,0.0,-0.7085,-0.8635,-0.9621,-1.0176,-1.0598,-1.0908,-1.007,-0.9367,-0.8842,-0.847,-0.896,-1.0165,-0.9835,-1.0736,0.0,0.0,0.0,0.0,-1.032,-1.0087,-0.9851,-0.9487,-0.9054,-0.8626,-0.8205,-0.6593,-0.4316,-0.2648,-0.0717,0.1382,0.3741,0.6431,0.891,1.0097,1.2387,1.5053,1.7062,1.9458,2.1735,2.3213,2.4053,2.4482,2.4377,2.3966,2.3567,2.3494,2.3305,2.3187,2.344,2.3967,2.4396,2.4401,2.4611,2.4895,2.5331,2.5493,2.5602,2.5727,2.6072,2.6075,2.5464,2.5086,2.4705,2.4279,2.4137,2.3886,2.3522,2.3689,2.3912,2.4137,2.4377,2.4554,2.4651,2.4651,2.4588,2.4442,2.4666,2.4804,2.4804,2.5084,2.5214,-1.9139,-2.0214,-2.0896,-1.828,-1.6257,-1.4646,0.0,0.0,-1.4309,-1.6383,-1.7072,-1.7214,-1.6943,-1.6208,-1.5228,-1.4057,0.0,0.0,0.0,0.0,0.0,0.0,0.0,0.0,0.0,0.0,0.0,0.0,0.0,0.0,0.0,0.0,-0.7976,-1.0138,-1.0695,-1.095,-1.0908,-1.0436,-0.9934,-0.9385,-0.8648,-0.9181,-1.0758,-1.0497,0.0,0.0,0.0,0.0,0.0,-1.0995,-1.0933,-1.0157,-1.0584,-0.9953,-0.8517,-0.7116,-0.4433,-0.1318,-0.0333,0.1435,0.3733,0.6485,0.7943,0.8842,0.9599,1.1617,1.3963,1.5636,1.8758,2.1919,2.3256,2.395,2.4344,2.4474,2.4838,2.5136,2.4932,2.4617,2.4637,2.5407,2.4938,2.4655,2.5443,2.5585,2.5686,2.6033,2.6257,2.632,2.6113,2.6209,2.6069,2.5457,2.5218,2.5004,2.4804,2.4445,2.4208,2.419,2.4375,2.4495,2.4495,2.4818,2.4979,2.4979,2.4979,2.4979,2.4998,2.485,2.4804,2.4804,2.4937,2.501,-1.7825,-1.838,-1.8459,-1.6945,-1.526,-1.3787,-1.315,0.0,-1.3785,-1.5308,-1.6221,-1.6591,-1.6107,-1.5945,-1.5409,-1.3982,-1.373,0.0,0.0,0.0,0.0,0.0,0.0,0.0,0.0,0.0,0.0,0.0,0.0,0.0,0.0,0.0,-0.3793,-0.9003,-1.004,-1.0845,-1.1506,-0.9607,-0.8552,-0.8382,-0.8128,-0.8339,-0.8997,-0.9684,0.0,0.0,0.0,0.0,0.0,-0.5227,-0.4407,-0.38,-0.2424,-0.1937,-0.1931,-0.1355,-0.0435,0.0924,0.4014,0.5529,0.6199,0.6707,0.7706,0.8731,0.8999,1.0939,1.3657,1.6466,1.8926,2.1028,2.2419,2.3174,2.3821,2.491,2.519,2.5403,2.611,2.6091,2.5986,2.6222,2.6536,2.6721,2.6698,2.7158,2.7601,2.7898,2.7135,2.6674,2.7068,2.6155,2.5411,2.5213,2.5434,2.5366,2.4832,2.4561,2.4358,2.4209,2.4393,2.4559,2.47,2.4885,2.501,2.501,2.501,2.4949,2.485,2.4917,2.4943,2.4937,2.513,2.5084,0.0,-1.6079,-1.5901,-1.4845,-1.3743,0.0,0.0,0.0,-1.3198,-1.4145,-1.5043,-1.5492,-1.5058,-1.5051,-1.4801,-1.3669,-1.3525,0.0,0.0,0.0,0.0,0.0,0.0,0.0,0.0,0.0,0.0,0.0,0.0,0.0,0.0,0.0,0.2545,-0.1991,-0.5333,-0.7337,-0.798,-0.6786,-0.6235,-0.6341,-0.7025,-0.7637,-0.8187,0.0,0.0,0.0,0.0,0.0,0.0,-0.1187,0.0377,0.1713,0.4398,0.5156,0.4729,0.4334,0.4183,0.4459,0.6637,0.7285,0.7052,0.6701,0.7447,0.8609,0.9234,1.1293,1.4037,1.6824,1.8783,2.0371,2.1794,2.2365,2.2959,2.4462,2.4968,2.5411,2.6567,2.6736,2.6752,2.72,2.7442,2.7638,2.784,2.8366,2.8842,2.9005,2.8109,2.7455,2.7547,2.6448,2.5633,2.5539,2.5461,2.5353,2.5161,2.4961,2.4654,2.4227,2.4393,2.4591,2.479,2.4943,2.5034,2.5111,2.5111,2.5065,2.4994,2.5329,2.5316,2.501,2.5466,2.5432,0.0,0.0,0.0,0.0,0.0,0.0,0.0,0.0,0.0,-1.2953,-1.3575,-1.3969,-1.3727,-1.3639,-1.3416,-1.2904,0.0,0.0,0.0,0.0,0.0,0.0,0.0,0.0,0.0,0.0,0.0,0.0,0.0,0.0,0.0,0.0,0.0,0.8265,0.2337,-0.0985,-0.1219,-0.2326,-0.311,-0.3523,-0.5434,-0.6944,-0.8078,0.0,0.0,0.0,0.0,0.0,0.0,0.1571,0.357,0.6245,0.9493,1.0735,1.0669,0.939,0.8871,0.8639,0.783,0.7155,0.6696,0.6642,0.7235,0.8359,1.0009,1.2352,1.4844,1.6823,1.8407,1.9895,2.144,2.1649,2.188,2.3408,2.4354,2.5268,2.6458,2.6753,2.7102,2.8172,2.7781,2.7652,2.8759,2.9203,2.9394,2.9414,2.9066,2.8488,2.7649,2.7041,2.6546,2.6244,2.5456,2.5167,2.5686,2.5466,2.5035,2.4318,2.4467,2.4706,2.4959,2.5031,2.5172,2.538,2.5322,2.5322,2.538,2.6018,2.5939,2.5201,2.5977,2.5979,0.0,0.0,0.0,0.0,0.0,0.0,0.0,0.0,0.0,0.0,0.0,-1.2468,-1.1567,-1.1388,-1.1093,0.0,0.0,0.0,0.0,0.0,0.0,0.0,0.0,0.0,0.0,0.0,0.0,0.0,0.0,0.0,0.0,0.0,0.0,0.384,0.5402,0.5443,0.3684,0.2416,0.061,-0.1794,-0.3802,-0.5202,-0.5977,0.0,0.0,0.0,0.0,0.0,0.3539,0.6044,0.7469,0.8115,0.9494,1.0355,1.0785,1.0454,0.9984,0.9524,0.9309,0.8461,0.7348,0.6804,0.6512,0.6818,0.9212,1.1844,1.4573,1.706,1.8398,1.9565,2.1644,2.1764,2.1845,2.3885,2.4839,2.5589,2.6744,2.7315,2.7713,2.7974,2.8076,2.8204,2.8504,2.9016,2.9454,2.9607,2.9162,2.8548,2.79,2.7546,2.709,2.6352,2.6494,2.6434,2.5973,2.5041,2.4649,2.509,2.5148,2.5615,2.6604,2.6084,2.5945,2.6283,2.563,2.563,2.6294,2.6455,2.6696,2.6988,2.6677,2.6362,0.0,0.0,0.0,0.0,0.0,0.0,0.0,0.0,0.0,0.0,0.0,-1.0785,-1.042,-0.9355,0.0,0.0,0.0,0.0,0.0,0.0,0.0,0.0,0.0,0.0,0.0,0.0,0.0,0.0,0.0,0.0,0.0,0.0,0.0,0.0,0.3477,0.5661,0.683,0.3514,0.0937,-0.0845,-0.4267,-0.5186,-0.3849,0.0,0.0,0.0,0.0,0.0,0.7132,0.8275,0.9113,0.9673,0.9747,1.0218,1.0762,1.0466,1.0115,0.9762,0.9465,0.8402,0.7052,0.6097,0.6107,0.68,0.9092,1.1906,1.4797,1.7014,1.8248,1.9287,2.0814,2.1094,2.1402,2.2928,2.3867,2.4783,2.5981,2.6472,2.679,2.7261,2.7434,2.7787,2.8533,2.9003,2.9419,2.9876,2.9694,2.9245,2.8453,2.8242,2.7774,2.6826,2.6666,2.6591,2.6437,2.5466,2.5079,2.5522,2.5541,2.6041,2.7151,2.6525,2.6117,2.6053,2.6015,2.6207,2.6698,2.7488,2.7849,2.7783,2.7796,2.7528,0.0,0.0,0.0,0.0,0.0,0.0,0.0,0.0,0.0,0.0,0.0,0.0,0.0,0.0,0.0,0.0,0.0,0.0,0.0,0.0,0.0,0.0,0.0,0.0,0.0,0.0,0.0,0.0,0.0,0.0,0.0,0.0,0.0,0.0,-0.1517,0.1353,0.5985,0.2004,-0.0227,-0.0741,-0.5148,-0.5318,-0.1781,-0.0216,0.0,0.0,0.0,0.0,1.0233,0.9256,0.9622,1.0762,1.0167,1.0312,1.0762,1.0261,0.9961,0.971,0.8896,0.786,0.6639,0.553,0.6078,0.7469,0.9272,1.1987,1.4841,1.6636,1.8194,1.9426,2.0053,2.0528,2.1063,2.1804,2.2735,2.3716,2.4862,2.5144,2.5458,2.6439,2.6545,2.7002,2.8585,2.9002,2.9326,3.0016,3.0278,3.0037,2.903,2.8946,2.8536,2.7339,2.6701,2.6507,2.6897,2.6302,2.593,2.6061,2.6059,2.6441,2.7239,2.6928,2.6389,2.5639,2.6534,2.7064,2.7208,2.8676,2.9052,2.8413,2.8956,2.8799,-1.3852,-1.4241,-1.48,-1.4718,-1.4593,0.0,0.0,0.0,0.0,0.0,0.0,0.0,0.0,0.0,0.0,0.0,0.0,0.0,0.0,0.0,0.0,0.0,0.0,0.0,0.0,0.0,0.0,0.0,0.0,0.0,0.0,0.0,0.0,0.0,0.0,-0.7767,-0.6048,-0.2013,-0.0826,-0.2503,-0.3595,-0.2675,-0.0,0.1894,0.4534,0.0,0.0,0.9134,1.0643,0.9909,1.0108,1.0762,1.0669,1.072,1.0864,1.1316,1.0762,0.9607,0.8302,0.7924,0.78,0.6673,0.6744,0.7581,0.9234,1.1219,1.3442,1.5793,1.8434,2.0716,2.1426,2.1571,2.1816,2.3018,2.3411,2.3682,2.4358,2.4855,2.5429,2.6134,2.6412,2.6875,2.8048,2.8728,2.925,2.9696,3.0133,3.0011,2.8946,2.9408,2.914,2.739,2.7697,2.7794,2.7213,2.6877,2.7009,2.7698,2.7736,2.7677,2.754,2.8313,2.8058,2.6615,2.7457,2.8265,2.901,2.9257,2.9674,3.0173,2.9515,2.9133,-1.2821,-1.352,-1.4175,-1.3527,0.0,-1.4461,-1.258,0.0,0.0,0.0,0.0,0.0,0.0,0.0,0.0,0.0,0.0,0.0,0.0,0.0,0.0,0.0,0.0,0.0,0.0,0.0,0.0,0.0,0.0,0.0,0.0,0.0,0.0,0.0,0.0,0.0,-0.8206,-0.4605,-0.3626,-0.5309,-0.3636,-0.1217,0.1769,0.4368,0.6725,0.8771,0.0,0.999,1.0261,1.0312,1.0517,1.072,1.0012,0.9969,1.0312,1.0618,1.0568,1.021,0.9148,0.8871,0.8878,0.8082,0.8203,0.8908,1.0405,1.2169,1.3992,1.5832,1.8274,2.0452,2.0735,2.1511,2.2292,2.26,2.3139,2.3636,2.3906,2.4158,2.4524,2.5191,2.5338,2.5832,2.7318,2.7915,2.8519,2.9494,2.9865,2.9867,2.9404,2.9544,2.9155,2.7846,2.8034,2.7998,2.7399,2.728,2.7544,2.8276,2.8765,2.8851,2.8479,2.8974,2.8708,2.7526,2.8383,2.9045,2.9455,2.9964,3.0353,3.0638,3.0173,2.9941,-1.1991,-1.2767,-1.3308,0.0,0.0,-1.2779,-1.1626,0.0,0.0,0.0,0.0,0.0,0.0,0.0,0.0,0.0,0.0,0.0,0.0,0.0,0.0,0.0,0.0,0.0,0.0,0.0,0.0,0.0,0.0,0.0,0.0,0.0,0.0,0.0,0.0,0.0,-0.7402,-0.5367,-0.4947,-0.6079,-0.2744,0.0354,0.3278,0.6147,0.7931,0.8743,1.0179,1.057,1.0202,1.078,1.1015,1.0914,0.971,0.9562,1.0012,1.0012,1.0458,1.0948,1.0351,1.0367,1.0584,0.9986,1.0187,1.0897,1.2007,1.3541,1.5155,1.6467,1.8543,2.0338,2.0168,2.1409,2.2624,2.2367,2.2834,2.3421,2.3551,2.3595,2.3761,2.4297,2.442,2.4926,2.6512,2.7126,2.7863,2.9262,2.9444,2.9433,2.9495,2.9101,2.8496,2.7705,2.7777,2.7816,2.7604,2.7669,2.7988,2.8609,2.9364,2.9618,2.9214,2.9458,2.9214,2.8395,2.9305,2.9773,2.9785,3.0527,3.0837,3.0696,3.0619,3.0543,-1.171,-1.2557,-1.3218,-1.2011,-0.9264,0.0,-1.1539,-0.8559,0.0,-0.9294,0.0,0.0,0.0,0.0,0.0,0.0,0.0,0.0,0.0,0.0,0.0,0.0,0.0,0.0,0.0,0.0,0.0,0.0,0.0,0.0,0.0,0.0,0.0,0.0,0.0,0.0,-0.6155,-0.342,-0.216,-0.2368,0.0707,0.2752,0.4004,0.6549,0.7896,0.845,1.0105,1.097,1.13,1.1621,1.1715,1.1665,1.0965,1.0669,1.072,1.072,1.109,1.1612,1.1554,1.245,1.3479,1.2686,1.2939,1.3587,1.3573,1.4713,1.6387,1.767,1.9761,2.1484,2.0939,2.1758,2.2815,2.3362,2.3113,2.292,2.3465,2.3595,2.3614,2.3749,2.413,2.4733,2.5735,2.6723,2.7797,2.8961,2.8817,2.8596,2.8598,2.7714,2.6837,2.6222,2.6826,2.7443,2.785,2.8174,2.8536,2.902,2.9531,2.9612,2.9213,3.0039,3.0095,2.9231,3.0128,3.0618,3.0605,3.0801,3.0829,3.0689,3.063,3.0472,-1.0919,-1.2024,-1.2811,-1.0973,-0.7808,0.0,0.0,-1.163,-1.01,-1.0033,0.0,0.0,0.0,0.0,0.0,0.0,0.0,0.0,0.0,0.0,0.0,0.0,0.0,0.0,0.0,0.0,0.0,0.0,0.0,0.0,0.0,0.0,0.0,0.0,0.0,0.0,0.0,-0.1436,0.1152,0.2808,0.41,0.6141,0.8721,0.892,0.8976,0.9074,1.0466,1.07,1.0205,1.1055,1.1549,1.1765,1.1516,1.1416,1.1458,1.1895,1.2425,1.3052,1.3423,1.4133,1.4846,1.4552,1.4891,1.5466,1.5799,1.633,1.7106,1.8288,1.9861,2.1338,2.1863,2.264,2.3334,2.3551,2.3421,2.3334,2.3551,2.3595,2.3626,2.3644,2.3788,2.4245,2.525,2.6132,2.711,2.8355,2.827,2.8312,2.897,2.8104,2.7457,2.7488,2.707,2.6835,2.7023,2.7165,2.766,2.8725,2.9456,2.9909,2.9999,3.039,3.044,3.011,3.0467,3.0655,3.0695,3.076,3.075,3.0679,3.0456,3.0305,-1.0614,-1.1866,-1.2796,0.0,0.0,0.0,-1.3992,-1.2729,-1.0728,0.0,0.0,0.0,0.0,0.0,0.0,0.0,0.0,0.0,0.0,0.0,0.0,0.0,0.0,0.0,0.0,0.0,0.0,0.0,0.0,0.0,0.0,0.0,0.0,0.0,0.0,0.0,0.0,0.0656,0.4002,0.7019,0.7912,0.9621,1.1966,1.1031,1.0501,1.0318,1.1077,1.0919,1.015,1.1122,1.164,1.1868,1.2483,1.2492,1.2199,1.3062,1.3831,1.4411,1.4824,1.5584,1.6273,1.6114,1.6557,1.7167,1.7424,1.7599,1.792,1.8931,2.0104,2.1258,2.232,2.3092,2.355,2.3355,2.331,2.331,2.331,2.331,2.3327,2.3333,2.3623,2.4127,2.4916,2.5909,2.6974,2.8204,2.8054,2.808,2.8888,2.8073,2.7474,2.7611,2.6854,2.6267,2.6112,2.6337,2.6905,2.7864,2.8799,2.9678,3.0448,3.0292,3.0302,3.0564,3.0595,3.0634,3.0698,3.0704,3.0679,3.066,3.0348,3.007,-1.0932,-1.2185,0.0,0.0,0.0,0.0,-1.7614,-1.0784,-0.613,0.0,0.0,0.0,0.0,0.0,0.0,0.0,0.0,0.0,0.0,0.0,0.0,0.0,0.0,0.0,0.0,0.0,0.0,0.0,0.0,0.0,0.0,0.0,0.0,0.0,0.0,0.0,0.0,0.2924,0.6271,0.992,1.2107,1.3023,1.2805,1.2465,1.2263,1.2214,1.1985,1.1759,1.1528,1.2075,1.2155,1.2102,1.3984,1.3924,1.3014,1.4261,1.5096,1.5632,1.5632,1.6718,1.8027,1.7504,1.8027,1.8817,1.8302,1.8496,1.9037,1.9724,2.0565,2.1456,2.213,2.296,2.343,2.2858,2.2709,2.2709,2.2724,2.2724,2.2678,2.2714,2.3636,2.4474,2.4786,2.6101,2.7496,2.8638,2.8227,2.7859,2.807,2.7221,2.6434,2.5947,2.5967,2.5779,2.5259,2.6007,2.6492,2.6516,2.7524,2.8797,3.0331,2.9683,2.9694,3.0487,3.0568,3.0634,3.0702,3.0704,3.066,3.0602,3.0309,2.9805,-1.1226,0.0,0.0,0.0,0.0,0.0,0.0,-1.2724,0.0,0.0,0.0,0.0,0.0,0.0,0.0,0.0,0.0,0.0,0.0,0.0,0.0,0.0,0.0,0.0,0.0,0.0,0.0,0.0,0.0,0.0,0.0,0.0,0.0,0.0,0.0,0.0,0.0,0.3943,0.7409,1.0355,1.3108,1.437,1.4269,1.4149,1.3728,1.3016,1.3024,1.2452,1.1562,1.2486,1.304,1.3455,1.4731,1.526,1.5377,1.6175,1.6311,1.6262,1.7094,1.7679,1.8145,1.8341,1.8893,1.9442,1.9281,1.9332,1.9487,1.9694,2.0515,2.1347,2.1549,2.2388,2.3063,2.2532,2.2203,2.2113,2.2619,2.2724,2.293,2.3728,2.4184,2.4729,2.582,2.6618,2.7414,2.8373,2.8109,2.7831,2.788,2.7683,2.7161,2.6273,2.5752,2.5221,2.4657,2.5484,2.6429,2.7363,2.7842,2.8544,2.9523,2.9486,2.9829,3.0621,3.0614,3.0624,3.0701,3.0608,3.0544,3.0513,3.0053,2.9568,-1.1273,0.0,0.0,0.0,0.0,0.0,0.0,0.0,0.0,0.0,0.0,0.0,0.0,0.0,0.0,0.0,0.0,0.0,0.0,0.0,0.0,0.0,0.0,0.0,0.0,0.0,0.0,0.0,0.0,0.0,0.0,0.0,0.0,0.0,0.0,0.0,0.2019,0.6494,0.9628,1.1387,1.4101,1.5593,1.5993,1.5772,1.5353,1.484,1.428,1.3503,1.2708,1.3837,1.4411,1.4667,1.6214,1.6741,1.6741,1.7545,1.7505,1.7177,1.7854,1.8263,1.8458,1.8779,1.9244,1.969,1.969,1.969,1.9711,1.9909,2.052,2.1211,2.1365,2.1935,2.2419,2.2236,2.184,2.1712,2.2394,2.244,2.2697,2.4138,2.4576,2.5157,2.6505,2.7116,2.7727,2.8676,2.8607,2.8439,2.8439,2.8232,2.7734,2.6727,2.608,2.5459,2.4776,2.5277,2.6087,2.7212,2.7486,2.8061,2.9157,2.9386,2.9879,3.0691,3.0626,3.063,3.0698,3.0564,3.0506,3.0475,2.9623,2.9006,0.0,0.0,0.0,0.0,0.0,0.0,0.0,0.0,0.0,0.0,0.0,0.0,0.0,0.0,0.0,0.0,0.0,0.0,0.0,0.0,0.0,0.0,0.0,0.0,0.0,0.0,0.0,0.0,0.0,0.0,0.0,0.0,0.0,0.0,0.0,0.0,0.5418,0.9741,1.2151,0.0,1.4979,1.6625,1.7693,1.7166,1.6966,1.7014,1.5601,1.475,1.4418,1.5598,1.5872,1.5707,1.7859,1.818,1.7557,1.8503,1.8574,1.8249,1.8249,1.8535,1.893,1.9006,1.9354,1.9747,1.9818,1.9818,1.9874,2.0246,2.0682,2.115,2.1491,2.1628,2.1732,2.1972,2.1629,2.143,2.2068,2.1949,2.2212,2.3955,2.4791,2.5586,2.675,2.7502,2.8272,2.9251,2.9433,2.9414,2.9412,2.8837,2.8094,2.7204,2.6734,2.6114,2.5201,2.5258,2.5687,2.6462,2.6804,2.7676,2.9245,2.9419,2.9854,3.0675,3.0638,3.0609,3.0679,3.0544,3.0475,3.0412,2.9186,2.8367,0.0,0.0,0.0,0.0,0.0,0.0,0.0,0.0,0.0,0.0,0.0,0.0,0.0,0.0,0.0,0.0,0.0,0.0,0.0,0.0,0.0,0.0,0.0,0.0,0.0,0.0,0.0,0.0,0.0,0.0,0.0,0.0,0.0,0.0,0.0,0.5171,0.7447,0.981,1.1543,0.0,1.5205,1.6849,1.7715,1.7769,1.7557,1.7035,1.6042,1.5255,1.4726,1.5172,1.5683,1.6279,1.7346,1.8395,1.9298,1.9162,1.9186,1.928,1.9354,1.9169,1.9029,1.9743,2.0074,2.0227,2.0599,2.0698,2.0731,2.0829,2.115,2.1491,2.1582,2.1869,2.2157,2.222,2.1644,2.1142,2.145,2.1748,2.2213,2.3211,2.4454,2.5456,2.5785,2.7219,2.8529,2.9291,2.9514,2.957,2.9414,2.8983,2.8301,2.7217,2.6734,2.5913,2.4452,2.5229,2.6022,2.6628,2.7642,2.8817,3.0147,2.9661,2.9753,3.0609,3.0561,3.053,3.0544,3.0467,3.0318,3.0095,2.9642,2.8986,0.0,0.0,0.0,0.0,0.0,0.0,0.0,0.0,0.0,0.0,0.0,0.0,0.0,0.0,0.0,0.0,0.0,0.0,0.0,0.0,0.0,0.0,0.0,0.0,0.0,0.0,0.0,0.0,0.0,0.0,0.0,0.0,0.0,0.0,0.8514,0.9494,0.9702,1.0872,1.2093,1.3406,1.5228,1.653,1.7328,1.8027,1.8191,1.789,1.7204,1.6629,1.6218,1.6464,1.6771,1.7155,1.8063,1.9026,1.9875,1.9843,1.9874,1.9989,2.0227,1.9969,1.9671,2.0416,2.0616,2.0682,2.0926,2.0991,2.1023,2.1244,2.143,2.1658,2.1899,2.2106,2.231,2.231,2.1781,2.1407,2.1821,2.1963,2.2289,2.3219,2.4182,2.4978,2.5429,2.7149,2.8584,2.8914,2.9466,2.9796,2.9696,2.9339,2.8792,2.8013,2.7617,2.6853,2.5443,2.5721,2.6284,2.7086,2.7531,2.8496,3.0052,2.9711,2.9794,3.0433,3.0388,3.036,3.036,3.04,3.0254,2.9999,2.9415,2.8783,0.0,0.0,0.0,0.0,0.0,0.0,0.0,0.0,0.0,0.0,0.0,0.0,0.0,0.0,0.0,0.0,0.0,0.0,0.0,0.0,0.0,0.0,0.0,0.0,0.0,0.0,0.0,0.0,0.0,0.0,0.0,0.0,1.8582,1.4761,1.4186,1.3204,1.163,1.2234,1.3086,1.4159,1.533,1.626,1.6927,1.8048,1.8574,1.8588,1.837,1.8104,1.7876,1.8028,1.8009,1.7967,1.8886,1.9512,1.997,2.0361,2.0505,2.0567,2.0894,2.0764,2.0483,2.0959,2.1086,2.1134,2.1197,2.1229,2.1291,2.1628,2.1718,2.1794,2.2209,2.231,2.231,2.231,2.2003,2.1853,2.2324,2.2216,2.2329,2.3259,2.3782,2.4471,2.5506,2.7001,2.8161,2.8464,2.9277,2.9875,2.9935,2.9661,2.9275,2.8769,2.8408,2.7725,2.6578,2.6139,2.6315,2.7262,2.7073,2.7718,2.9512,2.9514,2.9664,3.015,3.0148,3.0167,3.0167,3.0318,3.0241,2.9935,2.9096,2.8519,0.0,0.0,0.0,0.0,0.0,0.0,0.0,0.0,0.0,0.0,0.0,0.0,0.0,0.0,0.0,0.0,0.0,0.0,0.0,0.0,0.0,0.0,0.0,0.0,0.0,0.0,0.0,0.0,0.0,0.0,0.0,1.9071,1.8374,1.6515,1.5687,1.4364,1.2537,1.3233,1.384,1.4297,1.5958,1.68,1.6933,1.7953,1.8221,1.7902,1.8573,1.8734,1.8432,1.7949,1.7907,1.818,1.8435,1.9133,2.0023,2.0378,2.0882,2.1399,2.1086,2.0959,2.0959,2.1399,2.1521,2.1598,2.2003,2.2123,2.2152,2.218,2.2209,2.2209,2.2282,2.231,2.231,2.231,2.2237,2.2123,2.1804,2.2019,2.2257,2.2315,2.3092,2.4347,2.6147,2.6395,2.6824,2.8275,2.8897,2.9353,2.9704,2.9696,2.936,2.8535,2.7814,2.69,2.5764,2.5614,2.574,2.609,2.6675,2.7661,2.9116,2.8686,2.8755,2.9509,2.9853,3.0037,3.0037,3.0286,3.0169,2.9748,2.96,2.9114,0.0,0.0,0.0,0.0,0.0,0.0,0.0,0.0,0.0,0.0,0.0,0.0,0.0,0.0,0.0,0.0,0.0,0.0,0.0,0.0,0.0,0.0,0.0,0.0,0.0,0.0,0.0,0.0,0.0,0.0,1.8969,1.9204,1.8823,1.7732,1.7224,0.0,1.4566,1.4429,1.4192,1.3932,1.6469,1.7165,1.6282,1.8279,1.8833,1.8252,1.9015,1.9178,1.891,1.857,1.8415,1.8426,1.8317,1.9201,2.0501,2.0491,2.108,2.1915,2.2163,2.1967,2.1694,2.2317,2.2405,2.2303,2.2456,2.2426,2.231,2.231,2.231,2.231,2.231,2.231,2.231,2.231,2.231,2.2237,2.2032,2.2135,2.2409,2.28,2.332,2.4099,2.5373,2.5831,2.6303,2.7144,2.7924,2.8653,2.9287,2.8745,2.8349,2.8439,2.7493,2.6477,2.5529,2.5661,2.5828,2.5942,2.6527,2.7323,2.839,2.8345,2.8474,2.8837,2.9267,2.9618,2.9829,3.0215,3.0155,2.9696,2.9696,2.9359,0.0,0.0,0.0,0.0,0.0,0.0,0.0,0.0,0.0,0.0,0.0,0.0,0.0,0.0,0.0,0.0,0.0,0.0,0.0,0.0,0.0,0.0,0.0,0.0,0.0,0.0,0.0,0.0,0.0,0.0,1.9162,1.9442,1.9326,1.8718,1.8433,1.769,1.6427,1.5485,1.4596,1.3865,1.6265,1.6834,1.5848,1.8085,1.8933,1.8694,1.9363,1.9545,1.9331,1.9157,1.8963,1.8753,1.8896,1.9741,2.0902,2.1034,2.1575,2.2317,2.2797,2.2669,2.2344,2.2905,2.3007,2.2875,2.2738,2.2563,2.2388,2.2338,2.231,2.231,2.231,2.2349,2.2388,2.231,2.2432,2.248,2.2321,2.2415,2.2704,2.3307,2.3687,2.406,2.4556,2.5265,2.5849,2.6192,2.6991,2.7841,2.8603,2.7828,2.7433,2.8024,2.7008,2.6043,2.5458,2.5782,2.5943,2.5888,2.6481,2.7126,2.7718,2.7974,2.8219,2.8394,2.8805,2.9248,2.9696,3.0095,3.008,2.9696,2.9643,2.9397,0.0,0.0,0.0,0.0,0.0,0.0,0.0,0.0,0.0,0.0,0.0,0.0,0.0,0.0,0.0,0.0,0.0,0.0,0.0,0.0,0.0,0.0,0.0,0.0,0.0,0.0,0.0,0.0,0.0,0.0,1.9292,1.9504,1.9588,1.9535,1.9097,1.8468,1.7615,1.6252,1.5177,1.4468,1.4805,1.5336,1.6011,1.6849,1.7821,1.8838,1.9498,1.9778,1.9755,1.95,1.929,1.9282,2.0481,2.0932,2.1043,2.216,2.2626,2.2643,2.2426,2.2473,2.2669,2.2721,2.2923,2.3117,2.2797,2.2695,2.2634,2.236,2.231,2.231,2.231,2.2473,2.2625,2.236,2.2738,2.2989,2.2415,2.2747,2.3183,2.3212,2.3886,2.4409,2.4266,2.4682,2.5273,2.5924,2.6402,2.6894,2.7491,2.7365,2.7142,2.7009,2.6057,2.5458,2.5403,2.5782,2.5846,2.5552,2.6627,2.7282,2.7317,2.7348,2.7689,2.8394,2.8651,2.9122,2.9696,2.9908,2.9908,2.9696,2.9494,2.9267,0.0,0.0,0.0,0.0,0.0,0.0,0.0,0.0,0.0,0.0,0.0,0.0,0.0,0.0,0.0,0.0,0.0,0.0,0.0,0.0,0.0,0.0,0.0,0.0,0.0,0.0,0.0,0.0,0.0,0.0,1.9234,1.9063,1.9115,1.9463,1.9394,1.8581,1.6946,1.6265,1.5095,1.3497,1.5168,1.6026,1.6181,1.7826,1.8938,1.9583,1.9964,2.0375,2.0701,1.9967,1.9964,2.0442,2.059,2.104,2.168,2.2378,2.2805,2.3045,2.3153,2.3111,2.3069,2.3259,2.3414,2.3459,2.3117,2.2873,2.2634,2.2388,2.231,2.2349,2.25,2.2634,2.2721,2.2857,2.3038,2.3159,2.2933,2.3224,2.3595,2.3856,2.4118,2.4392,2.4659,2.4809,2.4972,2.531,2.5589,2.6062,2.6833,2.627,2.5944,2.6279,2.5425,2.4986,2.5366,2.5782,2.6079,2.625,2.6911,2.7178,2.6939,2.7409,2.7794,2.8075,2.8927,2.9476,2.9696,2.9908,2.9893,2.9696,2.9644,2.9474,0.0,0.0,0.0,0.0,0.0,0.0,0.0,0.0,0.0,0.0,0.0,0.0,0.0,0.0,0.0,0.0,0.0,0.0,0.0,0.0,0.0,0.0,0.0,0.0,0.0,0.0,0.0,0.0,0.0,0.0,1.9109,1.8726,1.872,1.9178,1.9143,1.8414,1.6944,1.6308,1.5298,1.3951,1.5482,1.645,1.6951,1.8239,1.9276,2.0031,2.0173,2.0507,2.0919,2.0249,2.0294,2.0796,2.1025,2.1507,2.2182,2.2832,2.3229,2.3472,2.3526,2.3459,2.3392,2.3628,2.3774,2.3816,2.3459,2.3212,2.2989,2.2669,2.2598,2.2634,2.2822,2.2873,2.2972,2.3414,2.3437,2.3437,2.3617,2.3723,2.3868,2.4153,2.4349,2.4556,2.479,2.4904,2.4962,2.4943,2.513,2.5514,2.6101,2.544,2.5113,2.5555,2.512,2.4912,2.5186,2.595,2.6422,2.649,2.7009,2.7178,2.6906,2.753,2.7992,2.8201,2.9116,2.9661,2.9796,2.9939,2.9939,2.9796,2.9731,2.9661,0.0,0.0,0.0,0.0,0.0,0.0,0.0,0.0,0.0,0.0,0.0,0.0,0.0,0.0,0.0,0.0,0.0,0.0,0.0,0.0,0.0,0.0,0.0,0.0,0.0,0.0,0.0,0.0,0.0,1.8912,1.8929,1.8521,1.8438,1.8785,1.8395,1.8063,1.7795,1.6484,1.5892,1.5971,1.5629,1.6448,1.8251,1.7923,1.8619,2.0095,2.0096,2.0184,2.0304,2.0299,2.0241,2.0307,2.1883,2.2417,2.2448,2.3617,2.4007,2.393,2.3406,2.3437,2.3692,2.3692,2.3917,2.4151,2.3795,2.3692,2.3628,2.3282,2.3189,2.3189,2.3212,2.3212,2.3392,2.4054,2.3976,2.3881,2.4391,2.4246,2.4026,2.4026,2.455,2.4898,2.4575,2.4949,2.5171,2.4842,2.5091,2.5303,2.5303,2.5,2.4804,2.4804,2.5169,2.5241,2.4874,2.6279,2.6898,2.6182,2.6887,2.7303,2.7303,2.7678,2.8183,2.8792,2.9193,2.9607,2.9999,2.9999,2.9999,2.9999,2.9796,2.9813,-0.2514,0.0,0.0,0.0,0.0,0.0,0.0,0.0,0.0,0.0,0.0,0.0,0.0,0.0,0.0,0.0,0.0,0.0,0.0,0.0,0.0,0.0,0.0,0.0,0.0,0.0,0.0,0.0,1.6454,1.7156,1.7391,1.7645,1.8137,1.8846,1.8159,1.7688,1.7504,1.6948,1.6179,1.521,1.6464,1.7292,1.7754,1.8566,1.9298,1.9974,2.0212,2.0366,2.0435,2.0385,2.0689,2.1276,2.2219,2.2526,2.2626,2.4057,2.4332,2.3988,2.3832,2.3726,2.3692,2.3692,2.3917,2.4151,2.3795,2.3692,2.3628,2.3282,2.3189,2.3277,2.35,2.3735,2.3976,2.4151,2.4247,2.432,2.4478,2.4629,2.4714,2.4714,2.4785,2.4869,2.4858,2.4986,2.5053,2.4949,2.5141,2.5303,2.5303,2.5096,2.4917,2.4818,2.529,2.5646,2.5677,2.661,2.7139,2.6987,2.7455,2.7589,2.7303,2.7918,2.8435,2.8773,2.9341,2.9729,2.9999,2.9999,2.9999,2.9999,2.9939,2.9954,0.0,0.0,0.0,0.0,0.0,0.0,0.0,0.0,0.0,0.0,0.0,0.0,0.0,0.0,0.0,0.0,0.0,0.0,0.0,0.0,0.0,0.0,0.0,0.0,0.0,0.0,0.0,0.0,1.5825,1.6366,1.6497,1.7547,1.8251,1.8479,1.8345,1.8192,1.8069,1.7528,1.6918,1.6292,1.7398,1.8038,1.831,1.9045,1.9625,2.0037,2.0219,2.0399,2.0546,2.0492,2.0744,2.1254,2.2308,2.269,2.2849,2.4341,2.4655,2.4332,2.4246,2.408,2.3917,2.3917,2.4114,2.4284,2.4079,2.4022,2.3983,2.3806,2.3678,2.3671,2.3876,2.4036,2.4228,2.4303,2.4409,2.4543,2.4678,2.4872,2.501,2.501,2.5005,2.5012,2.4998,2.5077,2.5099,2.5022,2.5163,2.5398,2.5631,2.552,2.548,2.5665,2.6209,2.6499,2.6312,2.7012,2.7384,2.7049,2.7272,2.7439,2.7547,2.7946,2.8517,2.9163,2.9532,2.9845,3.0182,3.0182,3.0182,3.0182,3.0182,3.0182,0.0,0.0,0.0,0.0,0.0,0.0,0.0265,0.0116,-0.0326,0.0,0.0,0.0,0.0,0.0,0.0,0.0,0.0,0.0,0.0,0.0,0.0,0.0,0.0,0.0,0.0,0.0,1.4685,1.4828,1.5628,1.6074,1.5985,1.7687,1.8435,1.7921,1.8651,1.9046,1.902,1.8195,1.7928,1.8266,1.8366,1.8784,1.9449,1.9481,1.9738,2.0195,2.0229,2.0361,2.0598,2.0605,2.0566,2.0663,2.2297,2.2912,2.3064,2.4514,2.4943,2.4785,2.4591,2.441,2.4228,2.4228,2.4357,2.4512,2.4528,2.4545,2.4545,2.4545,2.4393,2.4228,2.4228,2.4228,2.4266,2.4461,2.4526,2.4636,2.4949,2.5022,2.5034,2.5034,2.5173,2.5234,2.5057,2.5173,2.5224,2.5034,2.5163,2.5472,2.5971,2.5939,2.6094,2.6711,2.7311,2.7409,2.6747,2.7427,2.7577,2.6758,2.6774,2.7147,2.7869,2.7982,2.8524,2.9643,2.9713,2.9943,3.0398,3.0398,3.0398,3.0398,3.0398,3.0398,0.0,0.0,0.0,0.0,0.0,0.0,-0.1178,-0.0983,-0.0083,0.0,0.0,0.0,0.0,0.0,0.0,0.0,0.0,0.0,0.0,0.0,0.0,0.0,0.0,0.0,0.0,0.0,1.3498,1.3835,1.4531,1.501,1.5198,1.6421,1.7389,1.7959,1.8086,1.8484,1.9162,1.8931,1.8774,1.8688,1.9335,1.966,1.9736,1.9892,2.0047,2.0214,2.0373,2.0496,2.0594,2.0605,2.0566,2.0664,2.2396,2.3004,2.3093,2.4716,2.5168,2.4937,2.4785,2.4607,2.4426,2.4426,2.4461,2.4528,2.4685,2.4746,2.4746,2.4746,2.4591,2.4426,2.4426,2.4426,2.4444,2.4495,2.4708,2.4924,2.4998,2.5141,2.5234,2.5234,2.5274,2.5303,2.5253,2.5274,2.5224,2.5034,2.5163,2.5258,2.5096,2.5045,2.5264,2.5873,2.6462,2.6786,2.6711,2.7427,2.7577,2.6758,2.7303,2.7754,2.7897,2.8456,2.9007,2.9454,2.9763,3.0095,3.0398,3.0398,3.0398,3.0398,3.0398,3.0398,0.0,0.0,0.0,0.3554,0.0,0.0,0.0,0.0505,0.0,0.0,0.0,0.0,0.0,0.0,0.0,0.0,0.0,0.0,0.0,0.0,0.0,0.0,0.0,0.0,0.0,0.0,1.3147,1.386,1.4441,1.4823,1.498,1.6465,1.7517,1.7988,1.8789,1.9405,1.9842,1.9789,1.9696,1.96,2.0005,2.0164,2.0098,2.0203,2.0298,2.0365,2.0463,2.0541,2.0605,2.0605,2.0586,2.0723,2.2422,2.3049,2.3144,2.4783,2.5176,2.4891,2.4814,2.467,2.4495,2.4495,2.462,2.478,2.4877,2.4904,2.4877,2.4832,2.4731,2.4545,2.4098,2.432,2.4576,2.4233,2.4612,2.5075,2.5168,2.5282,2.5341,2.5341,2.5322,2.5303,2.5303,2.5214,2.5152,2.5152,2.5152,2.5213,2.5385,2.5397,2.5743,2.6652,2.7027,2.7273,2.7539,2.7751,2.7619,2.7036,2.7378,2.7678,2.7897,2.8412,2.8971,2.9533,2.9845,3.0136,3.0398,3.0398,3.0398,3.0398,3.0398,3.0398,0.0,0.0,0.0,0.0,0.0,0.2877,0.0,0.0,0.0,0.0,0.0,0.0,0.0,0.0,0.0,0.0,0.0,0.0,0.0,0.0,0.0,0.0,0.0,0.0,0.0,0.0,1.3132,1.4005,1.4592,1.5026,1.5259,1.6948,1.8024,1.8242,1.9727,2.0527,2.0527,2.0445,2.0418,2.0418,2.0404,2.041,2.0403,2.0404,2.0446,2.0493,2.0508,2.0546,2.0605,2.0605,2.0605,2.0742,2.2266,2.2912,2.3178,2.4626,2.5027,2.4828,2.4842,2.4731,2.4559,2.4591,2.4823,2.5065,2.5065,2.5065,2.5041,2.4923,2.4855,2.4639,2.3793,2.4077,2.4433,2.3724,2.4243,2.4977,2.5129,2.5274,2.5408,2.537,2.5341,2.5303,2.5253,2.5099,2.5022,2.5118,2.5041,2.5118,2.5587,2.5831,2.6372,2.7445,2.7714,2.7944,2.8373,2.8156,2.7794,2.7317,2.7439,2.7619,2.7897,2.8368,2.8915,2.9625,2.9845,3.0061,3.0323,3.0323,3.0355,3.0398,3.0398,3.0398,0.0,0.0,0.0,0.0,0.5212,0.0,0.0,0.0,0.0,0.0,0.0,0.0,0.0,0.0,0.0,0.0,0.0,0.0,0.0,0.0,0.0,0.0,0.0,0.0,0.0,0.0,0.0,1.355,1.4444,1.5367,1.62,1.7346,1.8358,1.9121,2.0098,2.0586,2.0586,2.0527,2.0486,2.0484,2.0435,2.0409,2.0405,2.0469,2.0485,2.0508,2.0561,2.0584,2.0605,2.0605,2.0605,2.0703,2.166,2.2424,2.312,2.4019,2.4613,2.4981,2.4974,2.4891,2.479,2.4898,2.5088,2.5264,2.5264,2.5264,2.5264,2.5243,2.5118,2.4784,2.3972,2.3838,2.3686,2.286,2.3513,2.4303,2.4255,2.4849,2.5372,2.5313,2.5303,2.5234,2.5057,2.5022,2.4911,2.462,2.4712,2.4719,2.445,2.5171,2.5987,2.6652,2.7365,2.7944,2.8373,2.8368,2.8057,2.7348,2.7901,2.8166,2.7926,2.8772,2.9332,2.9434,2.9625,2.9829,3.0061,3.0061,3.0182,3.0398,3.0398,3.0398,0.0,0.0,0.0,0.0,0.0,0.0,0.0,0.0,0.7376,0.0,0.0,0.0,0.0,0.0,0.0,0.0,0.0,0.0,0.0,0.0,0.0,0.0,0.0,0.0,0.0,0.0,0.0,0.0,0.0,1.5411,1.6347,1.7415,1.8398,1.9277,2.0156,2.0575,2.0541,2.0517,2.05,2.0508,2.0463,2.0474,2.0513,2.0545,2.0533,2.0498,2.0538,2.0515,2.0482,2.0482,2.0482,2.0523,2.0936,2.1876,2.3101,2.3895,2.4492,2.491,2.4974,2.4917,2.4847,2.5096,2.5224,2.5303,2.5303,2.5322,2.5341,2.5303,2.5311,2.4962,2.3572,2.363,2.3679,2.2317,2.3122,2.4197,2.4159,2.482,2.5387,2.5361,2.5322,2.5243,2.5034,2.4943,2.4864,2.479,2.4697,2.4607,2.4543,2.481,2.528,2.6004,2.6696,2.7269,2.7687,2.7942,2.7992,2.7648,2.8112,2.8446,2.8533,2.8938,2.9246,2.9392,2.9474,2.9607,2.9829,2.9939,3.0061,3.0163,3.0323,3.0398,0.7701,0.0,0.0,0.0,0.0,0.0,0.0,0.0,0.0,0.0,0.0,0.0,0.0,0.0,0.0,0.0,0.0,0.0,0.0,0.0,0.0,0.0,0.0,0.0,0.0,0.0,0.0,0.0,1.4784,0.0,1.6739,1.7571,1.8516,1.9629,2.0243,2.0434,2.0157,2.0142,2.0139,2.0133,2.0134,2.0293,2.0605,2.0575,2.0554,2.0504,2.0485,2.045,2.04,2.04,2.04,2.043,2.074,2.1738,2.3065,2.3662,2.4297,2.4883,2.503,2.5005,2.4981,2.5222,2.5303,2.5284,2.5043,2.5178,2.5293,2.4755,2.487,2.4716,2.2928,2.2983,2.3174,2.1922,2.278,2.3938,2.4149,2.4841,2.538,2.5301,2.5302,2.5243,2.5034,2.493,2.4883,2.4943,2.4737,2.4607,2.47,2.4781,2.5019,2.556,2.6403,2.7057,2.7338,2.7867,2.8201,2.8201,2.8316,2.8565,2.8975,2.9067,2.9178,2.9289,2.913,2.9119,2.9267,2.9241,2.9269,2.9365,3.0056,3.0398,0.0,0.0,0.0,0.0,0.0,0.0,0.0,0.0,0.8826,0.0,0.0,0.0,0.0,0.0,0.0,0.0,0.0,0.0,0.0,0.0,0.0,0.0,0.0,0.0,0.0,0.0,0.0,0.0,1.4518,0.0,1.776,1.7942,1.8789,2.0508,2.0522,2.0094,1.9238,1.9239,1.9244,1.9246,1.9244,1.9727,2.0605,2.0521,2.05,2.0504,2.0427,2.0389,2.0396,2.0396,2.0396,2.05,2.1398,2.2267,2.2994,2.3037,2.3864,2.5022,2.5214,2.5293,2.5293,2.5303,2.5341,2.5236,2.4399,2.4736,2.5043,2.3351,2.3494,2.3764,2.2073,2.166,2.1679,2.1687,2.2385,2.3244,2.4033,2.4832,2.5311,2.5065,2.5163,2.5243,2.5034,2.4998,2.4949,2.4832,2.4804,2.4716,2.4526,2.5184,2.5597,2.5443,2.6835,2.7769,2.7787,2.8517,2.8952,2.8952,2.859,2.8565,2.8975,2.9246,2.9267,2.9017,2.8454,2.8146,2.8166,2.7577,2.7422,2.7714,2.955,3.0398,0.0,0.0,1.1215,1.1026,0.0,0.0,0.0,0.0,0.0,0.0,0.0,0.0,0.0,0.0,0.0,0.0,0.0,0.0,0.0,0.0,0.0,0.0,0.0,0.0,0.0,0.0,0.0,1.4573,1.4899,1.5658,0.0,1.7669,1.8501,1.9648,2.0204,2.0327,1.9926,1.993,1.9949,1.999,1.9994,2.0219,2.0605,2.0529,2.0485,2.0427,2.0369,2.0331,2.0331,2.0331,2.0658,2.1177,2.1575,2.259,2.3788,2.3785,2.4331,2.5077,2.5091,2.4839,2.4505,2.4505,2.4149,2.3793,2.403,2.3967,2.3802,2.3687,2.3512,2.3105,2.1908,2.1679,2.1737,2.1764,2.2391,2.3211,2.4033,2.4803,2.5312,2.5214,2.5253,2.5274,2.5214,2.5203,2.5141,2.4968,2.4855,2.4799,2.4831,2.5001,2.5067,2.5003,2.5856,2.6256,2.5855,2.7048,2.7792,2.7792,2.7947,2.8059,2.8209,2.8279,2.8301,2.8209,2.8025,2.7643,2.7108,2.7047,2.7039,2.7159,2.8117,2.8624,1.1318,1.1771,0.0,0.0,1.2336,0.0,0.0,0.0,0.0,0.0,0.0,0.0,0.0,0.0,0.0,0.0,0.0,0.0,0.0,0.0,0.0,0.0,0.0,0.0,0.0,0.0,1.4349,1.5046,1.5108,1.5562,0.0,0.0,1.8329,1.9175,1.9988,2.0254,1.9869,1.985,1.9872,1.9947,1.9944,2.0143,2.0534,2.0468,2.0408,2.0369,2.0331,2.0312,2.0331,2.0619,2.1023,2.1562,2.2326,2.3269,2.4237,2.4213,2.4617,2.512,2.4788,2.4436,2.4053,2.3765,2.3352,2.2996,2.3158,2.311,2.3013,2.3148,2.2838,2.2334,2.1782,2.1469,2.1396,2.1726,2.2411,2.3215,2.4032,2.4784,2.5274,2.5214,2.5253,2.5274,2.5203,2.5253,2.5264,2.5141,2.5037,2.4962,2.4943,2.4855,2.4775,2.47,2.5221,2.5556,2.5455,2.6395,2.6999,2.6999,2.7218,2.7493,2.7787,2.753,2.7816,2.8772,2.7643,2.7089,2.7167,2.6487,2.611,2.6076,2.6719,2.6956]},{"header":{"parameterUnit":"m.s-1","parameterCategory":1,"la1":30.6,"la2":29.2853,"lo1":-89.7004,"lo2":-87.6739,"dx":0.0162,"dy":0.0183,"nx":112,"ny":82,"refTime":"2023-01-30T06:00:00:Z","depth":0,"parameterNumber":3,"parameterNumberName":"V-component_of_WINDS"},"data":[0.0,0.0,0.0,0.0,0.0,0.0,0.0,0.0,0.0,0.0,0.0,0.0,0.0,0.0,0.0,0.0,0.0,0.0,0.0,0.0,0.0,0.0,0.0,0.0,0.0,0.0,0.0,0.0,0.0,0.0,0.0,0.0,0.0,0.0,0.0,0.0,0.0,0.0,0.0,0.0,0.0,0.0,0.0,0.0,0.0,0.0,0.0,0.0,0.0,0.0,0.0,0.0,0.0,0.0,0.0,0.0,0.0,0.0,0.0,0.0,0.0,0.0,0.0,0.0,0.0,0.0,0.0,0.0,0.0,0.0,0.0,0.0,0.0,0.0,0.0,0.0,0.0,0.0,0.0,0.0,0.0,0.0,0.0,0.0,0.0,0.0,0.0,0.0,0.0,0.0,0.0,-0.2515,-0.1652,-0.1004,-0.0773,-0.0962,-0.1877,-0.3722,0.0,0.0,0.0,0.0,0.0,0.0,0.0,0.0,0.0,0.0,0.0,0.0,0.0,0.0,0.0,0.0,0.0,0.0,0.0,0.0,0.0,0.0,0.0,0.0,0.0,0.0,0.0,0.0,0.0,0.0,0.0,0.0,0.0,0.0,0.0,0.0,0.0,0.0,0.0,0.0,0.0,0.0,0.0,0.0,0.0,0.0,0.0,0.0,0.0,0.0,0.0,0.0,0.0,0.0,0.0,0.0,0.0,0.0,0.0,0.0,0.0,0.0,0.0,0.0,0.0,0.0,0.0,0.0,0.0,0.0,0.0,0.0,0.0,0.0,0.0,0.0,0.0,0.0,0.0,0.0,0.0,0.0,0.0,0.0,0.0,0.0,0.0,0.0,0.0,0.0,0.0,0.0,0.0,0.0,0.0,0.0,0.0,0.0,0.0,0.0,0.0,0.0,0.0,0.0,-0.2958,-0.2023,-0.1429,-0.1085,-0.1035,-0.107,-0.192,-0.3843,0.0,0.0,0.0,0.0,0.0,0.0,0.0,0.0,0.0,0.0,0.0,0.0,0.0,0.0,0.0,0.0,0.0,0.0,0.0,0.0,0.0,0.0,0.0,0.0,0.0,0.0,0.0,0.0,0.0,0.0,0.0,0.0,0.0,0.0,0.0,0.0,0.0,0.0,0.0,0.0,0.0,0.0,0.0,0.0,0.0,0.0,0.0,0.0,0.0,0.0,0.0,0.0,0.0,0.0,0.0,0.0,0.0,0.0,0.0,0.0,0.0,0.0,0.0,0.0,0.0,0.0,0.0,0.0,0.0,0.0,0.0,0.0,0.0,0.0,0.0,0.0,0.0,0.0,0.0,0.0,0.0,0.0,0.0,0.0,0.0,0.0,0.0,0.0,0.0,0.0,0.0,0.0,0.0,0.0,0.0,0.0,0.0,0.0,0.0,0.0,0.0,0.0,0.0,-0.3619,-0.273,-0.1841,-0.1486,-0.1223,-0.1008,-0.1286,-0.2459,-0.478,-0.6004,0.0,0.0,0.0,0.0,0.0,0.0,0.0,0.0,0.0,0.0,0.0,0.0,0.0,0.0,0.0,0.0,0.0,0.0,0.0,0.0,0.0,0.0,0.0,0.0,0.0,0.0,0.0,0.0,0.0,0.0,0.0,0.0,0.0,0.0,0.0,0.0,0.0,0.0,0.0,0.0,0.0,0.0,0.0,0.0,0.0,0.0,0.0,0.0,0.0,0.0,0.0,0.0,0.0,0.0,0.0,0.0,0.0,0.0,0.0,0.0,0.0,0.0,0.0,0.0,0.0,0.0,0.0,0.0,0.0,0.0,0.0,0.0,0.0,0.0,0.0,0.0,0.0,0.0,0.0,0.0,0.0,0.0,0.0,0.0,0.0,0.0,0.0,0.0,0.0,0.0,0.0,0.0,0.0,0.0,0.0,0.0,0.0,0.0,0.0,0.0,0.0,0.0,-0.3592,-0.2453,-0.1791,-0.1624,-0.1437,-0.1185,-0.1507,-0.2912,-0.57,-0.7236,0.0,0.0,0.0,0.0,0.0,0.0,0.0,0.0,0.0,0.0,0.0,0.0,0.0,0.0,0.0,0.0,0.0,0.0,0.0,0.0,0.0,0.0,0.0,0.0,0.0,0.0,0.0,0.0,0.0,0.0,0.0,0.0,0.0,0.0,0.0,0.0,0.0,0.0,0.0,0.0,0.0,0.0,0.0,0.0,0.0,0.0,0.0,0.0,0.0,0.0,0.0,0.0,0.0,0.0,0.0,0.0,0.0,0.0,0.0,0.0,0.0,0.0,0.0,0.0,0.0,0.0,0.0,0.0,0.0,0.0,0.0,0.0,0.0,0.0,0.0,0.0,0.0,0.0,0.0,0.0,0.0,0.0,0.0,0.0,0.0,0.0,0.0,0.0,0.0,0.0,0.0,0.0,0.0,0.0,0.0,0.0,0.0,0.0,0.0,0.0,0.0,0.0,-0.3488,-0.2269,-0.1834,-0.1723,-0.1745,-0.1905,-0.1672,-0.2937,-0.6232,-0.8228,0.0,0.0,0.0,0.0,0.0,0.0,0.0,0.0,0.0,0.0,0.0,0.0,0.0,0.0,0.0,0.0,0.0,0.0,0.0,0.0,0.0,0.0,0.0,0.0,0.0,0.0,0.0,0.0,0.0,0.0,0.0,0.0,0.0,0.0,0.0,0.0,0.0,0.0,0.0,0.0,0.0,0.0,0.0,0.0,0.0,0.0,0.0,0.0,0.0,0.0,0.0,0.0,0.0,0.0,0.0,0.0,0.0,0.0,0.0,0.0,0.0,0.0,0.0,0.0,0.0,0.0,0.0,0.0,0.0,0.0,0.0,0.0,0.0,0.0,0.0,0.0,0.0,0.0,0.0,0.0,0.0,0.0,0.0,0.0,0.0,0.0,0.0,0.0,0.0,0.0,0.0,0.0,0.0,0.0,0.0,0.0,0.0,0.0,0.0,0.0,0.0,0.0,-0.4568,-0.2751,0.0,-0.2051,-0.1865,-0.1824,-0.1889,-0.2832,-0.4934,0.0,0.0,0.0,0.0,0.0,0.0,0.0,0.0,0.0,0.0,0.0,0.0,0.0,0.0,0.0,0.0,0.0,0.0,0.0,0.0,0.0,0.0,0.0,0.0,0.0,0.0,0.0,0.0,0.0,0.0,0.0,0.0,0.0,0.0,0.0,0.0,0.0,0.0,0.0,0.0,0.0,0.0,0.0,0.0,0.0,0.0,0.0,0.0,0.0,0.0,0.0,0.0,0.0,0.0,0.0,0.0,0.0,0.0,0.0,0.0,0.0,0.0,0.0,0.0,0.0,0.0,0.0,0.0,0.0,0.0,0.0,0.0,0.0,0.0,0.0,0.0,0.0,0.0,0.0,0.0,0.0,0.0,0.0,0.0,0.0,0.0,0.0,0.0,0.0,0.0,0.0,0.0,0.0,0.0,0.0,0.0,0.0,0.0,0.0,0.0,0.0,0.0,-0.7703,-0.4819,-0.2826,0.0,-0.2435,-0.2227,-0.2418,-0.2217,-0.2843,-0.4656,0.0,0.0,0.0,0.0,0.0,0.0,0.0,0.0,0.0,0.0,0.0,0.0,0.0,0.0,0.0,0.0,0.0,0.0,0.0,0.0,0.0,0.0,0.0,0.0,0.0,0.0,0.0,0.0,0.0,0.0,0.0,0.0,0.0,0.0,0.0,0.0,0.0,0.0,0.0,0.0,0.0,0.0,0.0,0.0,0.0,0.0,0.0,0.0,0.0,0.0,0.0,0.0,0.0,0.0,0.0,0.0,0.0,0.0,0.0,0.0,0.0,0.0,0.0,0.0,0.0,0.0,0.0,0.0,0.0,0.0,0.0,0.0,0.0,0.0,0.0,0.0,0.0,0.0,0.0,0.0,0.0,0.0,0.0,0.0,0.0,0.0,0.0,0.0,0.0,0.0,0.0,0.0,0.0,0.0,0.0,0.0,0.0,0.0,0.0,0.0,0.0,0.0,-0.6927,-0.3951,-0.2374,-0.3327,-0.2867,-0.2897,-0.3895,-0.2628,-0.2991,0.0,0.0,0.0,0.0,0.0,0.0,0.0,0.0,0.0,0.0,0.0,0.0,0.0,0.0,0.0,0.0,0.0,0.0,0.0,0.0,0.0,0.0,0.0,0.0,0.0,0.0,0.0,0.0,0.0,0.0,0.0,0.0,0.0,0.0,0.0,0.0,0.0,0.0,0.0,0.0,0.0,0.0,0.0,0.0,0.0,0.0,0.0,0.0,0.0,0.0,0.0,0.0,0.0,0.0,0.0,0.0,0.0,0.0,0.0,0.0,0.0,0.0,0.0,0.0,0.0,0.0,0.0,0.0,0.0,0.0,0.0,0.0,0.0,0.0,0.0,0.0,0.0,0.0,0.0,0.0,0.0,0.0,0.0,0.0,0.0,0.0,0.0,0.0,0.0,0.0,0.0,0.0,0.0,0.0,0.0,0.0,0.0,0.0,0.0,0.0,0.0,0.0,0.0,0.0,-0.4297,-0.3155,-0.453,-0.3406,-0.2694,-0.2987,-0.1486,-0.2358,-0.6643,0.0,0.0,0.0,0.0,0.0,0.0,0.0,0.0,0.0,0.0,0.0,0.0,0.0,0.0,0.0,0.0,0.0,0.0,0.0,0.0,0.0,0.0,0.0,0.0,0.0,0.0,0.0,0.0,0.0,0.0,0.0,0.0,0.0,0.0,0.0,0.0,0.0,0.0,0.0,0.0,0.0,0.0,0.0,0.0,0.0,0.0,0.0,0.0,0.0,0.0,0.0,0.0,0.0,0.0,0.0,0.0,0.0,0.0,0.0,0.0,0.0,0.0,0.0,0.0,0.0,0.0,0.0,0.0,0.0,0.0,0.0,0.0,0.0,0.0,0.0,0.0,0.0,0.0,0.0,0.0,0.0,0.0,0.0,0.0,0.0,0.0,0.0,0.0,0.0,0.0,0.0,0.0,0.0,0.0,0.0,0.0,0.0,0.0,0.0,0.0,0.0,0.0,-0.7784,-0.5804,-0.4785,-0.5402,-0.3533,-0.2767,-0.4083,-0.1615,-0.1251,-0.4194,0.0,0.0,0.0,0.0,0.0,0.0,0.0,0.0,0.0,0.0,0.0,0.0,0.0,0.0,0.0,0.0,0.0,0.0,0.0,0.0,0.0,0.0,0.0,0.0,0.0,0.0,0.0,0.0,0.0,0.0,0.0,0.0,0.0,0.0,0.0,0.0,0.0,0.0,0.0,0.0,0.0,0.0,0.0,0.0,0.0,0.0,0.0,0.0,0.0,0.0,0.0,0.0,0.0,0.0,0.0,0.0,0.0,0.0,0.0,0.0,0.0,0.0,0.0,0.0,0.0,0.0,0.0,0.0,0.0,0.0,0.0,0.0,0.0,0.0,0.0,0.0,0.0,0.0,0.0,0.0,0.0,0.0,0.0,0.0,0.0,0.0,0.0,0.0,0.0,0.0,0.0,0.0,0.0,0.0,0.0,0.0,0.0,0.0,0.0,0.0,0.0,0.0,-0.9452,-0.8035,-0.6904,-0.6196,-0.3648,-0.3073,-0.5762,-0.2304,0.0,0.0,0.0,0.0,0.0,0.0,0.0,0.0,0.0,0.0,0.0,0.0,0.0,0.0,0.0,0.0,0.0,0.0,0.0,0.0,0.0,0.0,0.0,0.0,0.0,0.0,0.0,0.0,0.0,0.0,0.0,0.0,0.0,0.0,0.0,0.0,0.0,0.0,0.0,0.0,0.0,0.0,0.0,0.0,0.0,0.0,0.0,0.0,0.0,0.0,0.0,0.0,0.0,0.0,0.0,0.0,0.0,0.0,0.0,0.0,0.0,0.0,-0.1901,0.0,0.0,0.0,0.0,0.0,0.0,0.0,0.0,0.0,0.0,0.0,0.0,0.0,0.0,0.0,0.0,0.0,0.0,0.0,0.0,0.0,0.0,0.0,0.0,0.0,0.0,0.0,0.0,0.0,0.0,0.0,0.0,0.0,0.0,0.0,0.0,0.0,0.0,0.0,0.0,0.0,-1.0689,-0.9325,-0.8281,-0.79,-0.563,-0.3401,-0.1564,-0.0538,0.0,0.0,0.0,0.0,0.0,0.0,0.0,0.0,0.0,0.0,0.0,0.0,0.0,0.0,0.0,0.0,0.0,0.0,0.0,0.0,0.0,0.0,0.0,0.0,0.0,0.0,0.0,0.0,0.0,0.0,0.0,0.0,0.0,0.0,0.0,0.0,0.0,0.0,0.0,0.0,0.0,0.0,0.0,0.0,0.0,0.0,0.0,0.0,0.0,0.0,0.0,0.0,0.0,0.0,0.0,0.0,0.0,0.0,0.0,0.0,0.0,0.0,0.0,-0.1685,0.0,0.0,0.0,0.0,0.0,0.0,0.0,0.0,0.0,0.0,0.0,0.0,0.0,0.0,0.0,0.0,0.0,0.0,0.0,0.0,0.0,0.0,0.0,0.0,0.0,0.0,0.0,0.0,0.0,0.0,0.0,0.0,0.0,0.0,0.0,0.0,0.0,0.0,0.0,0.0,-1.1286,-0.9983,-0.8998,-0.8762,-0.6782,-0.526,-0.4717,-0.3209,-0.2305,-0.2305,-0.4819,0.0,0.0,0.0,0.0,0.0,0.0,0.0,0.0,0.0,0.0,0.0,0.0,0.0,0.0,0.0,0.0,0.0,0.0,0.0,0.0,0.0,0.0,0.0,0.0,0.0,0.0,0.0,0.0,0.0,0.0,0.0,0.0,0.0,0.0,0.0,0.0,0.0,0.0,0.0,0.0,0.0,0.0,0.0,0.0,0.0,0.0,0.0,0.0,0.0,0.0,0.0,0.0,0.0,0.0,0.0,0.0214,-0.0237,0.0152,0.1084,0.0088,-0.1141,-0.2614,0.0,0.0,0.0,0.0,0.0,0.0,0.0,0.0,0.0,0.0,0.0,0.0,0.0,0.0,0.0,0.0,0.0,0.0,0.0,0.0,0.0,0.0,0.0,0.0,0.0,-1.408,-1.4454,0.0,0.0,0.0,0.0,0.0,0.0,0.0,0.0,0.0,0.0,0.0,0.0,-1.1481,-1.0286,-0.941,-0.9221,-0.7774,-0.7599,-0.9544,-0.7207,-0.5767,-0.606,-1.0387,-1.308,0.0,0.0,0.0,0.0,0.0,0.0,0.0,0.0,0.0,0.0,0.0,0.0,0.0,0.0,0.0,0.0,0.0,0.0,0.0,0.0,0.0,0.0,0.0,0.0,0.0,0.0,0.0,0.0,0.0,0.0,0.0,0.0,0.3257,0.333,0.0,0.0,0.0,0.0,0.0,0.0,0.0,0.0,0.0,0.0,0.0,0.0,0.0,0.0,-0.1714,-0.1513,-0.1172,-0.0653,-0.0393,0.0218,0.1125,0.1063,0.0982,0.0905,0.0462,0.0,-0.2746,-0.3716,0.0,0.0,0.0,0.0,0.0,0.0,0.0,0.0,0.0,0.0,0.0,0.0,0.0,0.0,0.0,0.0,0.0,0.0,0.0,0.0,0.0,0.0,-1.5036,-1.5036,-1.5068,-1.535,0.0,-1.6403,-1.6851,-1.8499,0.0,0.0,0.0,0.0,0.0,0.0,0.0,0.0,-1.1259,-1.0375,-0.9786,-0.9631,-0.9441,-0.9432,-0.9687,-0.9294,-0.9661,-1.1049,-1.1829,-1.2983,-1.4673,-1.4939,0.0,0.0,0.0,0.0,0.0,0.0,0.0,0.0,0.0,0.0,0.0,0.0,0.0,0.0,0.0,0.0,0.0,0.0,0.0,0.0,0.0,0.0,0.0,0.0,0.0,0.0,0.0,0.0,0.0,0.4075,0.4009,0.3186,0.3091,0.2785,0.0,0.0,0.0,0.0,0.0,0.0,0.0,0.0,0.0,-0.151,-0.1705,-0.1792,-0.1792,-0.1661,-0.1367,-0.0957,-0.0806,-0.0282,0.0562,0.0218,0.0175,0.0374,-0.0111,-0.1034,-0.228,-0.3544,-0.5193,-0.7101,0.0,0.0,0.0,0.0,0.0,-1.1222,-1.1666,0.0,0.0,0.0,0.0,0.0,0.0,0.0,0.0,0.0,0.0,0.0,0.0,0.0,0.0,-1.4528,-1.4558,-1.4808,-1.5695,-1.5869,-1.6336,0.0,-1.8306,-1.8505,-1.9358,0.0,0.0,0.0,0.0,0.0,-1.1989,-1.0783,-1.0092,-1.0453,-1.0077,-1.0146,-1.0993,-1.0627,-1.0865,-1.2021,-1.2595,-1.3263,-1.4116,-1.4692,-1.5288,0.0,0.0,0.0,0.0,0.0,0.0,0.0,0.0,0.0,0.0,0.0,0.0,0.0,0.0,0.0,0.0,0.0,0.0,0.0,0.0,0.0,0.0,0.0,0.0,0.0,0.0,0.0,0.0,0.4193,0.4264,0.3045,0.3205,0.3125,0.0,0.0,0.0,0.0,0.0,0.0,-0.0067,-0.0754,-0.1296,-0.1644,-0.2065,-0.2244,-0.214,-0.2244,-0.2078,-0.1657,-0.1657,-0.1281,-0.0584,-0.103,-0.0946,-0.0484,-0.0931,-0.1422,-0.2,-0.3356,-0.4941,-0.6771,-0.9107,-1.0428,0.0,-1.2058,-1.1745,-1.0962,-1.1583,-1.1589,-1.1528,-1.244,0.0,-1.377,-1.412,0.0,0.0,0.0,0.0,-1.5118,-1.444,0.0,-1.4337,-1.4329,-1.4334,-1.452,-1.5226,-1.5397,-1.581,0.0,-1.7495,-1.7765,-1.8627,0.0,0.0,0.0,0.0,-1.2858,-1.2368,-1.1367,-1.0883,-1.1388,-1.0838,-1.09,-1.2013,-1.158,-1.1598,-1.241,-1.316,-1.3662,-1.3903,-1.4622,-1.5374,0.0,0.0,0.0,0.0,0.0,0.0,0.0,0.0,0.0,0.0,0.0,0.0,0.0,0.0,0.0,0.0,0.0,0.0,0.0,0.0,0.0,0.0,0.0,0.0,0.0,0.0,0.0,0.0,0.0,0.0,0.289,0.3033,0.0,0.0,0.0,0.0,0.1813,0.0938,0.0179,-0.0356,-0.1245,-0.2024,-0.2619,-0.3252,-0.3418,-0.3035,-0.3424,-0.3278,-0.2627,-0.2627,-0.2445,-0.2082,-0.2129,-0.1978,-0.172,-0.1742,-0.1916,-0.2216,-0.281,-0.4684,-0.7282,-0.8505,-1.042,-1.2498,-1.2565,-1.2313,-1.1976,-1.2399,-1.2261,-1.2041,-1.3015,-1.3894,-1.4575,-1.4785,-1.4925,0.0,0.0,-1.5095,-1.5214,-1.5234,-1.5234,-1.5226,-1.5225,-1.5234,-1.525,-1.5285,-1.5371,-1.5647,0.0,-1.6659,-1.6912,-1.7729,0.0,-1.6044,-1.443,-1.4031,-1.3348,-1.1671,-1.2098,-1.2506,-1.2348,-1.23,-1.2218,-1.2114,-1.2177,-1.257,-1.3384,-1.3594,-1.4082,-1.4981,-1.5068,-1.5177,-1.535,-1.6132,0.0,0.0,0.0,0.0,0.0,0.0,0.0,0.0,0.0,0.0,0.0,0.0,0.0,0.0,0.0,0.0,0.0,0.0,0.0,0.0,0.0,0.0,0.0,0.0,0.0,0.0,0.0,0.0,0.289,0.3012,0.0,0.0,0.2688,0.2375,0.1832,0.0929,0.0155,-0.0379,-0.1622,-0.2509,-0.2953,-0.3724,-0.4076,-0.3929,-0.4076,-0.3934,-0.3526,-0.3526,-0.327,-0.2794,-0.2954,-0.2805,-0.2406,-0.2752,-0.3006,-0.3221,-0.3928,-0.5054,-0.6477,-0.8207,-0.9728,-1.1022,-1.185,-1.1794,-1.1378,-1.2108,-1.2255,-1.2383,-1.373,-1.447,-1.4885,-1.5052,-1.5146,-1.5191,-1.5191,-1.5229,-1.5262,-1.5292,-1.5302,-1.5291,-1.5292,-1.5305,-1.5303,-1.5293,-1.5323,-1.543,-1.5706,-1.5805,-1.6081,-1.6893,-1.6321,-1.5763,-1.5741,-1.4744,-1.3778,-1.3141,-1.2824,-1.2776,-1.3142,-1.2708,-1.2775,-1.369,-1.338,-1.3509,-1.4358,-1.4488,-1.47,-1.5024,-1.5122,-1.5457,-1.6055,-1.6551,-1.6578,0.0,0.0,0.0,0.0,0.0,0.0,0.0,0.0,0.0,0.0,0.0,0.0,0.0,0.0,0.0,0.0,0.0,0.0,0.0,0.0,0.0,0.0,0.0,0.0,0.0,0.0,0.2299,0.2636,0.2868,0.2929,0.2739,0.2565,0.2142,0.1377,0.0575,-0.0134,-0.0764,-0.2049,-0.2939,-0.3335,-0.4243,-0.4678,-0.4549,-0.4678,-0.4479,-0.3992,-0.4087,-0.3876,-0.3387,-0.3647,-0.3577,-0.3262,-0.3715,-0.4002,-0.4211,-0.5023,-0.5852,-0.6771,-0.8354,-0.9566,-1.0576,-1.1721,-1.1975,-1.185,-1.2591,-1.2941,-1.3265,-1.437,-1.4904,-1.5127,-1.5216,-1.5259,-1.5293,-1.5299,-1.5288,-1.5267,-1.5291,-1.5292,-1.5286,-1.5238,-1.5226,-1.5223,-1.5159,-1.5192,-1.5222,-1.524,-1.5303,-1.5543,-1.6064,-1.5676,-1.5516,-1.6135,-1.5212,-1.4543,-1.484,-1.4076,-1.3771,-1.4444,-1.377,-1.3686,-1.469,-1.4616,-1.4647,-1.495,-1.5257,-1.5326,-1.5038,-1.5106,-1.5387,-1.5948,-1.6894,-1.7462,-1.7668,0.0,0.0,0.0,0.0,0.0,0.0,0.0,0.0,0.0,0.0,0.0,0.0,0.0,0.0,0.0,0.0,0.0,0.0,0.0,0.0,0.0,0.0,0.0,-0.0329,0.0692,0.1455,0.2094,0.2519,0.2652,0.2416,0.2244,0.167,0.0486,-0.0111,-0.0764,-0.1551,-0.2552,-0.3309,-0.3788,-0.4816,-0.5211,-0.485,-0.5204,-0.4948,-0.4053,-0.4306,-0.4238,-0.3931,-0.4191,-0.4313,-0.4342,-0.4637,-0.4889,-0.5177,-0.602,-0.7114,-0.8309,-0.888,-1.0031,-1.1419,-1.2281,-1.2962,-1.3494,-1.3953,-1.4323,-1.4663,-1.4927,-1.5146,-1.5291,-1.5322,-1.5327,-1.5314,-1.5351,-1.5312,-1.5254,-1.5351,-1.5362,-1.5307,-1.5177,-1.5122,-1.5065,-1.4924,-1.4992,-1.5095,-1.5095,-1.5203,-1.5285,-1.5291,-1.5291,-1.5291,-1.5291,-1.5325,0.0,-1.6495,-1.5874,-1.5613,-1.6269,-1.5586,-1.5049,-1.4954,-1.5778,-1.5963,-1.514,-1.5812,-1.5909,-1.5117,-1.5021,-1.4981,-1.4963,-1.7141,-1.8831,-1.9955,0.0,0.0,0.0,0.0,0.0,0.0,0.0,0.0,0.0,0.0,0.0,0.0,0.0,0.0,0.0,0.0,0.0,0.0,0.0,0.0,0.0,0.0,-0.2737,-0.1477,-0.0734,0.0119,0.1274,0.158,0.1789,0.1937,0.1541,0.1024,0.0435,-0.0413,-0.1008,-0.1218,-0.2434,-0.3327,-0.3798,-0.4453,-0.5075,-0.5596,-0.5717,-0.5504,-0.5019,-0.5093,-0.4797,-0.4191,-0.4466,-0.4809,-0.5208,-0.5651,-0.6413,-0.7359,-0.783,-0.8461,-0.9172,-0.9434,-1.0513,-1.1952,-1.2595,-1.3372,-1.4142,-1.4277,-1.4575,-1.4912,-1.5027,-1.5171,-1.5413,-1.5986,-1.5757,-1.5547,-1.6764,-1.6687,-1.6348,-1.6962,-1.6617,-1.6073,-1.5994,-1.5459,-1.4938,-1.4919,-1.4925,-1.4965,-1.5011,-1.5066,-1.5107,-1.5203,-1.5234,-1.5234,-1.5291,0.0,0.0,-1.6559,-1.6863,-1.7113,-1.7311,-1.7091,-1.6693,-1.6044,-1.6278,-1.6035,0.0,-1.5101,-1.5012,-1.4757,-1.4578,-1.5091,-1.6407,-1.7274,-1.8183,0.0,0.0,0.0,0.0,0.0,0.0,0.0,0.0,0.0,0.0,0.0,0.0,0.0,0.0,0.0,0.0,0.0,0.0,0.0,0.0,0.0,0.0,-0.3833,-0.3142,-0.2176,-0.1262,-0.0354,0.0546,0.1118,0.1456,0.1492,0.1141,0.0718,0.0275,-0.0595,-0.1194,-0.1394,-0.2668,-0.3549,-0.3889,-0.4552,-0.5144,-0.5648,-0.5828,-0.5641,-0.5152,-0.5432,-0.5229,-0.4657,-0.5152,-0.5674,0.0,-0.6904,-0.7718,-0.8609,-0.9182,-0.9787,0.0,0.0,0.0,0.0,0.0,-1.3854,-1.45,-1.4526,-1.4756,-1.5121,-1.5553,-1.5762,-1.5991,-1.6836,-1.6737,-1.6548,-1.7461,-1.7363,-1.7076,-1.7486,-1.693,-1.6251,-1.6158,-1.5715,-1.5216,-1.4811,-1.5047,-1.5245,-1.5017,0.0,0.0,-1.5722,-1.5734,-1.5888,-1.6279,-1.6711,-1.7287,0.0,-1.7891,-1.7703,-1.7693,-1.7707,-1.7225,-1.6035,-1.6561,0.0,0.0,0.0,-1.486,-1.4324,-1.4289,0.0,0.0,0.0,-1.803,0.0,0.0,0.0,0.0,-1.9957,-1.9322,0.0,0.0,0.0,0.0,0.0,0.0,0.0,0.0,0.0,0.0,0.0,0.0,0.0,0.0,0.0,0.0,-0.3769,-0.3314,-0.2557,-0.1313,-0.0397,-0.009,0.0895,0.1404,0.1081,0.0956,0.063,-0.0025,-0.0735,-0.1336,-0.1884,0.0,0.0,0.0,0.0,-0.5277,-0.5372,-0.5729,-0.5597,-0.4989,-0.5557,-0.5638,-0.5283,-0.5979,-0.6704,-0.745,-0.8185,-0.8885,-0.9555,-1.0351,-1.1122,-1.1759,-1.1557,-1.1641,-1.2074,-1.3596,-1.4368,0.0,0.0,0.0,0.0,-1.6331,-1.668,-1.6908,-1.7779,-1.792,-1.7811,-1.7852,-1.7766,-1.7642,-1.7581,-1.6966,-1.6325,-1.6217,-1.6098,-1.5792,-1.4945,-1.542,-1.5841,-1.5264,-1.5833,-1.6453,-1.6572,-1.6592,-1.6875,-1.7657,-1.7783,0.0,-1.9915,-1.8832,-1.795,-1.7958,0.0,0.0,-1.5808,-1.6949,-1.697,-1.514,-1.5372,-1.5111,-1.4015,-1.4167,-1.494,-1.6373,-1.6706,-1.8052,-2.0457,-2.0457,-2.0834,-2.151,-1.8787,-1.8265,0.0,0.0,0.0,0.0,0.0,0.0,0.0,0.0,0.0,0.0,0.0,0.0,0.0,0.0,0.0,-0.4569,-0.364,-0.2835,-0.2662,-0.1765,-0.092,-0.0395,0.0475,0.0979,0.0804,0.0854,0.0489,-0.0491,-0.0989,-0.1638,-0.2485,-0.3075,0.0,-0.4468,-0.4634,-0.5074,-0.5765,-0.5857,-0.5984,-0.617,0.0,0.0,-0.6227,-0.6212,-0.7137,-0.8764,-0.9072,-1.0245,-1.1947,-1.2269,-1.2841,-1.3491,-1.3301,-1.338,-1.3704,-1.4282,-1.4727,-1.512,-1.5825,-1.6136,-1.6379,-1.7262,-1.7559,-1.7722,-1.859,-1.837,0.0,-1.922,-1.9059,-1.8669,-1.9171,-1.8643,-1.7949,-1.7925,-1.7299,-1.6673,-1.6468,-1.6586,-1.6706,-1.6678,-1.6918,-1.7113,-1.7131,-1.7234,-1.736,-1.7521,-1.8013,-1.8488,-1.8871,-1.9252,-1.9503,-1.9545,-1.9656,-1.9245,-1.8061,-1.8336,-1.7927,-1.6428,-1.5482,-1.4809,-1.44,-1.4637,-1.492,-1.5218,-1.6171,-1.7198,-1.8307,-1.8307,-1.8542,-1.904,-1.9745,-2.0085,0.0,0.0,0.0,0.0,0.0,0.0,0.0,0.0,0.0,0.0,0.0,-0.5212,0.0,0.0,-0.4574,-0.4282,-0.3435,-0.264,-0.2201,-0.1474,-0.088,-0.0584,0.0149,0.0616,0.0545,0.061,0.035,-0.039,-0.0975,-0.1717,-0.2659,-0.329,-0.3951,-0.457,-0.4826,-0.5144,-0.5585,-0.5786,-0.5872,-0.5864,-0.6523,-0.6728,-0.6533,-0.7237,-0.8166,-0.9304,-1.01,-1.1202,-1.2453,-1.322,-1.4307,-1.541,-1.5061,-1.4717,-1.4521,-1.52,-1.5601,-1.5919,-1.6766,-1.7048,-1.719,-1.8027,-1.8266,-1.8355,-1.925,-1.9172,-1.8935,-1.9617,-1.9797,-1.975,-1.958,-1.9207,-1.8749,-1.8342,-1.7872,-1.7385,-1.7,-1.722,-1.7422,-1.7151,-1.7513,-1.7986,-1.8422,-1.8539,-1.8421,-1.8059,-1.8661,-1.9149,-1.9195,-1.9585,-1.9695,-1.93,-1.9706,-1.943,-1.808,-1.7858,-1.7436,-1.655,-1.5797,-1.5295,-1.5054,-1.5098,-1.5173,-1.5245,-1.6046,-1.6694,-1.7134,-1.7484,-1.7739,-1.7968,-1.9137,-1.9371,0.0,0.0,0.0,0.0,0.0,0.0,0.0,0.0,-0.5456,-0.6349,-0.618,-0.5975,-0.6349,-0.5808,-0.4969,-0.3853,-0.3255,-0.2644,-0.1804,-0.125,-0.0872,-0.0785,-0.007,0.0379,0.0335,0.036,0.0167,-0.0363,-0.0971,-0.1769,-0.2896,-0.3662,-0.4263,-0.473,-0.5139,-0.5401,-0.5404,-0.5815,-0.5915,-0.5779,-0.7077,-0.7517,-0.7271,-0.8549,-0.9464,-1.0084,-1.1493,-1.2437,-1.3043,-1.4121,-1.5498,-1.6853,-1.6421,-1.5794,-1.5264,-1.6152,-1.6529,-1.6691,-1.7501,-1.7752,-1.7855,-1.8657,-1.8888,-1.8958,-1.9676,-1.9844,-1.9793,-1.9823,-2.029,-2.0637,-1.9957,-1.9656,-1.9363,-1.872,-1.8434,-1.8097,-1.7457,-1.7822,-1.8122,-1.7567,-1.8222,-1.9076,-1.9744,-1.9796,-1.9564,-1.897,-1.932,-1.9632,-1.9569,-1.9556,-1.9313,-1.8584,-1.9214,-1.9169,-1.7862,-1.7383,-1.7028,-1.6762,-1.636,-1.6014,-1.5718,-1.5473,-1.5355,-1.5398,-1.5779,-1.613,-1.6446,-1.697,-1.7282,-1.7408,-1.7873,-1.7946,-0.4641,-0.4284,-0.4369,-0.5135,-0.5617,-0.6269,0.0,0.0,-0.7374,-0.7733,-0.7294,-0.6683,-0.6166,-0.5507,-0.4716,-0.368,-0.3274,-0.2804,-0.205,-0.1788,-0.1523,-0.1118,-0.0187,0.0312,0.0067,0.0258,-0.0028,-0.1086,-0.1253,-0.2034,-0.3761,-0.4175,-0.4632,-0.5189,-0.5498,-0.5703,-0.5828,-0.617,-0.6822,-0.7783,-0.8134,-0.8814,-0.9793,-0.9972,-1.0817,-1.2226,-1.3648,-1.4781,-1.5683,-1.5838,-1.6292,-1.6881,-1.6823,-1.6645,-1.6461,-1.6996,-1.7044,-1.6975,-1.7844,-1.8135,-1.8279,-1.9083,-1.9481,-1.9673,-1.9778,-1.9797,-1.9924,-2.0494,-2.0736,-2.0916,-2.1393,-2.0941,-2.0338,-2.0246,-1.955,-1.8855,-1.8783,-1.8837,-1.889,-1.8799,-1.9721,-2.0507,-2.0415,-2.0347,-2.0273,-2.0197,-1.9561,-1.8999,-1.8753,-1.8717,-1.8699,-1.861,-1.9004,-1.9294,-1.9335,-1.8758,-1.8376,-1.8356,-1.7265,-1.6458,-1.6149,-1.5484,-1.5011,-1.4719,-1.476,-1.5119,-1.5799,-1.5879,-1.6166,-1.6623,-1.6698,-1.7221,-0.6439,-0.6352,0.0,0.0,-0.7067,-0.8134,-0.8612,-0.9051,-0.9292,-0.9092,-0.8686,-0.8147,-0.7378,-0.6438,-0.5521,0.0,-0.4008,-0.3369,-0.2625,-0.2227,-0.1837,-0.1283,-0.0838,-0.0488,-0.0246,0.0,-0.0241,-0.1221,-0.1544,-0.238,-0.3918,-0.4796,-0.5384,-0.5655,-0.6229,-0.6521,-0.6545,-0.6874,-0.7444,-0.8282,-0.9354,-1.0088,-1.0511,-1.1267,-1.2176,-1.3253,-1.4445,-1.5721,-1.6952,-1.6755,-1.7312,-1.8173,-1.7507,-1.7343,-1.7469,-1.7553,-1.751,-1.7556,-1.8554,-1.8855,-1.8855,-1.9351,-1.9508,-1.9518,-1.9518,-1.9838,-2.027,-2.0551,-2.1405,-2.2207,-2.1977,-2.2077,-2.21,-2.1513,-2.0602,-1.9839,-1.9721,-1.9542,-1.9467,-1.9669,-2.0461,-2.1276,-2.186,-2.1388,-2.088,-2.0769,-1.9447,-1.8438,-1.8321,-1.8145,-1.826,-1.8874,-1.9266,-1.9543,-1.965,-1.9395,-1.9004,-1.8388,-1.7873,-1.7347,-1.6851,-1.6345,-1.5743,-1.5032,-1.4932,-1.4839,-1.4758,-1.5241,-1.5587,-1.5815,-1.6539,-1.7112,-0.7461,0.0,0.0,-0.74,-0.8427,-0.96,-0.9741,-1.0445,-1.0924,-1.0507,-1.0006,-0.9347,-0.837,-0.7393,0.0,-0.5455,-0.4958,-0.4404,-0.3656,-0.3105,-0.2655,-0.2363,-0.2115,-0.1808,-0.1418,-0.07,-0.0571,-0.1384,-0.1857,-0.2769,-0.4252,-0.5401,-0.62,-0.6618,-0.7204,-0.7662,-0.795,-0.8228,-0.8737,-0.9465,-1.0832,-1.1477,-1.1493,-1.2918,-1.4008,-1.4824,-1.5562,-1.6677,-1.79,-1.7592,-1.8154,-1.9112,-1.8241,-1.8126,-1.8409,-1.8271,-1.8176,-1.8177,-1.8836,-1.9191,-1.9381,-1.9492,-1.9534,-1.956,-1.9683,-2.0187,-2.0785,-2.1054,-2.2175,-2.3223,-2.2869,-2.3136,-2.3323,-2.254,-2.1509,-2.0639,-2.0444,-2.0134,-1.9952,-2.0194,-2.0936,-2.1754,-2.2567,-2.1972,-2.1292,-2.104,-1.932,-1.8007,-1.789,-1.7743,-1.8037,-1.9062,-1.939,-1.9564,-1.963,-1.9581,-1.9206,-1.8489,-1.8217,-1.7883,-1.7364,-1.7104,-1.6491,-1.5559,-1.5561,-1.5284,-1.4647,-1.5239,-1.5523,-1.5608,-1.6461,-1.6987,0.0,0.0,-0.8325,-0.9278,-0.9735,-1.038,-1.1951,-1.2208,-1.2115,-1.1974,-1.1057,-0.9877,-0.8622,-0.7976,-0.7214,-0.5822,-0.5992,-0.6058,-0.5239,-0.4598,-0.4402,-0.483,-0.4133,-0.3703,0.0,-0.2054,-0.1114,-0.1747,-0.215,-0.3214,-0.507,-0.589,-0.6929,-0.8376,-0.8517,-0.9152,-1.0363,-1.0534,-1.111,-1.2096,-1.2667,-1.307,-1.3372,-1.5177,-1.654,-1.7491,-1.7578,-1.8063,-1.8749,-1.8481,-1.8691,-1.9167,-1.9031,-1.9085,-1.926,-1.9265,-1.9052,-1.871,-1.837,-1.8904,-1.9722,-1.9418,-1.9687,-2.0258,-2.0631,-2.1001,-2.1475,-2.2447,-2.3007,-2.3515,-2.4463,-2.4106,-2.346,-2.3291,-2.2187,-2.111,-2.0918,-2.063,-2.0396,-2.0396,-2.1243,-2.1975,-2.2033,-2.1785,-2.1443,-2.1062,-1.9234,-1.7763,-1.7378,-1.7601,-1.8129,-1.9001,-1.9094,-1.9213,-1.9478,-1.9267,-1.9094,-1.9078,-1.828,-1.7728,-1.7488,-1.7349,-1.6891,-1.6094,-1.6592,-1.6592,-1.6036,-1.6077,-1.6133,-1.6284,-1.6323,-1.6665,0.0,0.0,-0.8552,-0.9287,-1.0284,-1.1175,-1.135,-1.2254,-1.2698,-1.1401,-1.1045,-1.045,-0.8761,-0.8039,-0.7525,-0.6942,-0.6876,-0.6719,-0.6244,-0.6251,-0.6234,-0.6075,-0.5733,0.0,0.0,0.0,0.0,-0.4105,-0.5021,-0.6201,-0.7586,-0.8922,-0.9903,-1.0546,-1.1373,-1.1971,-1.2347,-1.2613,-1.3232,-1.4138,-1.5159,-1.5842,-1.6196,-1.6772,-1.7589,-1.8589,-1.8481,-1.8897,-1.9674,-1.9948,-1.98,-1.943,-1.9732,-1.98,-1.9687,-1.9754,-2.0235,-2.0745,-1.9946,-1.9906,-2.022,-2.0266,-2.0442,-2.0635,-2.0762,-2.1408,-2.2177,-2.251,-2.3433,-2.4358,-2.4714,-2.4655,-2.4467,-2.4346,-2.312,-2.1862,-2.1404,-2.0866,-2.0458,-2.0348,-2.1042,-2.1837,-2.2302,-2.2134,-2.1556,-2.05,-1.8805,-1.7455,-1.6972,-1.7302,-1.8053,-1.9185,-1.9507,-1.9519,-1.9257,-1.9136,-1.8734,-1.7899,-1.7546,-1.7279,-1.6973,-1.6917,-1.6651,-1.6118,-1.601,-1.5878,-1.5694,-1.5387,-1.5265,-1.5298,-1.5246,-1.5365,0.0,-0.8261,-0.874,-0.9477,-1.0818,-1.1815,-1.1308,-1.238,-1.2964,-1.108,-1.1113,-1.0908,-0.9056,-0.8587,-0.8256,-0.7554,-0.7472,-0.739,-0.7095,-0.716,-0.7338,-0.764,-0.7832,0.0,0.0,0.0,0.0,-0.616,-0.753,-0.8841,-0.9738,-1.1189,-1.2292,-1.2981,-1.3668,-1.4248,-1.464,-1.4733,-1.5152,-1.5852,-1.6871,-1.7531,-1.7909,-1.8486,-1.9124,-1.9783,-1.9975,-2.0347,-2.0853,-2.0936,-2.0781,-2.0508,-2.0581,-2.0797,-2.104,-2.1112,-2.1752,-2.2383,-2.1079,-2.0807,-2.0992,-2.0893,-2.0884,-2.0892,-2.1034,-2.1673,-2.2405,-2.2629,-2.3489,-2.4346,-2.4428,-2.4516,-2.4542,-2.436,-2.3454,-2.246,-2.1838,-2.1145,-2.0557,-2.0326,-2.0526,-2.0971,-2.1616,-2.1716,-2.1256,-2.0001,-1.8766,-1.7821,-1.7456,-1.7563,-1.8119,-1.9366,-1.971,-1.9597,-1.9069,-1.9034,-1.8599,-1.7582,-1.7303,-1.7079,-1.6913,-1.685,-1.6633,-1.6242,-1.5958,-1.5722,-1.5524,-1.503,-1.4766,-1.4778,-1.4744,-1.4698,-0.6783,-0.7654,-0.8785,-0.9808,-1.1175,-1.2117,-1.164,-1.2462,-1.2827,-1.0985,-1.1216,-1.1209,0.0,0.0,-0.9373,-0.7714,-0.7903,-0.8171,-0.7842,-0.7504,-0.788,0.0,0.0,0.0,0.0,0.0,0.0,-0.8121,0.0,-1.1176,-1.1729,-1.2805,-1.4098,-1.5661,-1.5503,-1.5962,-1.7177,-1.6949,-1.6982,-1.7329,-1.7933,-1.8333,-1.8591,-2.0276,-2.1072,-2.1174,-2.1941,-2.2251,-2.2183,-2.1481,-2.1616,-2.2216,-2.158,-2.2068,-2.3149,-2.3212,-2.3503,-2.3603,-2.1816,-2.1628,-2.2044,-2.1332,-2.1073,-2.1118,-2.146,-2.177,-2.2129,-2.2698,-2.3092,-2.3401,-2.3575,-2.3654,-2.3651,-2.3461,-2.3173,-2.279,-2.2201,-2.1374,-2.0622,-2.0239,-1.9732,-1.9542,-2.0088,-2.0602,-2.0607,-1.959,-1.906,-1.8775,-1.8673,-1.8214,-1.8303,-1.9492,-1.9603,-1.9406,-1.8855,-1.8817,-1.8574,-1.8066,-1.7413,-1.7112,-1.7203,-1.7074,-1.6811,-1.6423,-1.6373,-1.6046,-1.5543,-1.4971,-1.4652,-1.4652,-1.4617,-1.4617,-0.5786,-0.656,-0.7549,-0.8237,-0.9369,-1.0159,-0.9466,-1.0212,-1.0749,-0.9712,-1.0331,-1.0769,0.0,0.0,0.0,-0.9477,-0.9316,0.0,-0.9141,-0.9577,0.0,0.0,0.0,-1.218,-1.2817,-1.4566,0.0,0.0,-1.3561,-1.4887,-1.6595,-1.6131,-1.6581,-1.8274,-1.8031,-1.8037,-1.836,-1.9223,-1.9372,-1.8863,-2.0457,-2.0896,-2.0358,-2.1307,-2.214,-2.2825,-2.2046,-2.212,-2.2778,-2.2593,-2.2281,-2.2006,-2.2829,-2.3377,-2.3682,-2.3656,-2.4129,-2.4687,-2.4052,-2.3521,-2.3058,-2.2468,-2.2055,-2.1707,-2.1176,-2.1019,-2.1,-2.0762,-2.1011,-2.1356,-2.1402,-2.1696,-2.2104,-2.2398,-2.24,-2.2211,-2.1732,-2.0973,-2.0122,-1.939,-1.909,-1.9134,-1.9647,-2.01,-2.0325,-2.0082,-1.9343,-1.8627,-1.8172,-1.771,-1.773,-1.843,-1.8496,-1.8302,-1.7747,-1.7706,-1.7463,-1.6951,-1.6738,-1.646,-1.6058,-1.6009,-1.5738,-1.5152,-1.5141,-1.505,-1.4926,-1.4329,-1.405,-1.4003,-1.3563,-1.3344,-0.4765,-0.538,-0.6263,-0.6896,-0.8271,-0.9372,-0.8948,-0.9764,-1.0451,-0.998,-1.0843,0.0,0.0,0.0,0.0,0.0,0.0,0.0,-0.8975,-0.9609,-1.03,0.0,-1.2247,0.0,-1.3862,-1.5959,-1.6899,0.0,-1.6355,-1.6929,-1.7635,-1.759,-1.8036,-1.9133,-1.9056,-1.9073,-1.9151,-1.9974,-2.012,-1.9601,-2.1325,-2.1732,-2.095,-2.2179,-2.2848,-2.3043,0.0,-2.2582,-2.3066,-2.2777,-2.2606,-2.261,-2.3233,-2.3735,-2.4102,-2.4209,-2.4545,-2.4948,-2.4836,-2.4493,-2.394,-2.3109,-2.2479,-2.1893,-2.0863,-2.0509,-2.0299,-1.9504,-1.9477,-1.9622,-1.9364,-1.9686,-2.024,-2.0747,-2.1203,-2.148,-2.1334,-2.0718,-1.9778,-1.8468,-1.8182,-1.8246,-1.8555,-1.9148,-1.9546,-1.9339,-1.8598,-1.7843,-1.731,-1.729,-1.7504,-1.8027,-1.8106,-1.7867,-1.7353,-1.7312,-1.7076,-1.6522,-1.6522,-1.6238,-1.5632,-1.5588,-1.532,-1.4698,-1.4422,-1.4329,-1.4283,-1.3369,-1.3102,-1.3372,-1.2745,-1.2608,-0.3746,-0.4084,-0.4879,-0.5566,-0.7217,-0.8771,-0.8853,-0.9786,-1.0677,-1.0735,0.0,0.0,-1.2474,0.0,-1.168,-1.0638,0.0,-0.887,-0.8338,-0.8725,-0.9479,-1.0584,-1.2643,-1.4053,-1.4279,-1.6975,-1.845,-1.7896,-1.8179,-1.8019,-1.716,-1.8031,-1.8698,-1.9035,-1.9209,-1.9419,-1.9643,-2.0026,-2.0068,-1.9843,-2.1335,-2.1608,-2.0852,-2.27,-2.3169,-2.2533,0.0,0.0,-2.3088,-2.2509,-2.2712,-2.3379,-2.3215,-2.3585,-2.4239,-2.4591,-2.4733,-2.4754,-2.4812,-2.4824,-2.4628,-2.3538,-2.2729,-2.1978,-2.0623,-2.0061,-1.9617,-1.8341,-1.7921,-1.7702,-1.7128,-1.7468,-1.8111,-1.8717,-1.9718,-2.0557,-2.0765,-2.0353,-1.9373,-1.7545,-1.7133,-1.7092,-1.7175,-1.7918,-1.8373,-1.8039,-1.7411,-1.6798,-1.6213,-1.6634,-1.712,-1.7491,-1.7585,-1.7423,-1.6857,-1.6912,-1.6769,-1.6281,-1.625,-1.6008,-1.541,-1.5353,-1.5096,-1.4468,-1.3862,-1.3521,-1.3521,-1.2297,-1.1981,-1.2618,-1.1981,-1.203,-0.268,-0.2621,-0.3196,-0.3691,-0.4788,-0.5909,-0.645,-0.7499,0.0,0.0,0.0,-1.2232,-1.3118,-1.2952,0.0,-1.2025,0.0,0.0,0.0,0.0,-0.9609,0.0,0.0,0.0,0.0,0.0,0.0,0.0,0.0,0.0,-1.9791,-1.8836,-1.8532,-1.9157,-1.9308,-1.9563,-1.9933,-2.0794,-2.0803,-1.9973,-2.1513,-2.1732,-2.0834,-2.2117,-2.2643,-2.2512,0.0,0.0,-2.278,-2.2648,-2.2716,-2.2877,-2.3286,-2.3519,-2.3692,-2.4193,-2.4415,-2.4525,-2.4905,-2.498,-2.4788,-2.4249,-2.3509,-2.2513,-2.0754,-1.928,-1.7788,-1.5813,-1.49,-1.4395,-1.3701,-1.4362,-1.5452,-1.635,-1.7821,-1.914,-1.9718,-1.9119,-1.809,-1.6802,-1.6176,-1.6058,-1.6476,-1.6705,-1.6944,-1.7301,-1.6889,-1.6102,-1.4979,-1.5015,-1.4971,-1.4495,-1.4948,-1.5016,-1.438,-1.4835,-1.5096,-1.5017,-1.5017,-1.4744,-1.4143,-1.4086,-1.3826,-1.32,-1.2521,-1.2159,-1.2159,-1.1366,-1.1015,-1.1174,-1.1015,-1.1015,-0.2092,-0.1354,-0.1397,-0.1798,-0.2656,-0.3761,-0.5112,0.0,0.0,0.0,0.0,-1.2237,-1.3338,0.0,0.0,0.0,0.0,0.0,0.0,0.0,0.0,0.0,0.0,0.0,0.0,0.0,0.0,0.0,0.0,0.0,-1.9235,-1.8735,-1.8624,-1.9081,-1.9228,-1.9393,-1.9582,-2.0281,-2.0373,-1.992,-2.0991,-2.138,-2.1189,-2.2096,-2.2547,-2.2611,0.0,0.0,-2.2695,-2.2563,-2.2573,-2.2746,-2.2975,-2.3193,-2.3392,-2.3814,-2.4173,-2.4503,-2.4837,-2.4988,-2.502,-2.4868,-2.4252,-2.3207,-2.1222,-1.9613,-1.7889,-1.5282,-1.3932,-1.2926,-1.15,-1.2069,-1.3222,-1.4026,-1.6227,-1.8266,-1.8587,-1.8096,-1.7356,-1.6536,-1.5696,-1.5231,-1.5487,-1.5796,-1.5947,-1.5922,-1.5506,-1.4693,-1.3216,-1.2657,-1.2596,-1.3107,-1.3476,-1.3684,-1.3695,-1.3996,-1.4354,-1.4698,-1.4698,-1.4272,-1.3321,-1.3273,-1.2793,-1.1841,-1.1475,-1.1266,-1.1266,-1.023,-0.9872,-1.0214,-0.9489,-0.9327,-0.1811,-0.0525,-0.005,-0.0189,-0.092,-0.2093,-0.3981,-0.5591,0.0,0.0,-1.0267,-1.2106,-1.3141,0.0,0.0,0.0,0.0,0.0,0.0,0.0,0.0,0.0,0.0,0.0,0.0,0.0,0.0,0.0,0.0,0.0,0.0,-1.8311,-1.8606,-1.8734,-1.8856,-1.8901,-1.8901,-1.9309,-1.9519,-1.9519,-2.0159,-2.0689,-2.1188,-2.1832,-2.2255,-2.2444,0.0,0.0,0.0,-2.2388,-2.2426,-2.2625,-2.2669,-2.2873,-2.3141,-2.3613,-2.4023,-2.4441,-2.4746,-2.4991,-2.5187,-2.5232,-2.4764,-2.3818,-2.1884,-2.0224,-1.8375,-1.5465,-1.3543,-1.1899,-0.998,-1.0132,-1.1088,-1.2025,-1.4635,-1.6916,-1.7196,-1.6994,-1.6619,-1.6127,-1.5207,-1.4514,-1.4514,-1.4915,-1.4994,-1.4411,-1.4045,-1.3303,-1.1598,-1.0737,-1.0545,-1.1187,-1.1749,-1.2233,-1.2599,-1.2916,-1.3318,-1.382,-1.3867,-1.3443,-1.2425,-1.222,-1.1621,-1.0594,-1.0442,-1.0348,-1.0348,-0.9103,-0.8783,-0.9231,-0.7976,-0.7712,-0.1718,-0.036,0.0154,0.0783,0.012,-0.1086,-0.2478,0.0,0.0,-0.7662,-0.9557,-1.1348,-1.2247,-1.269,0.0,0.0,0.0,0.0,0.0,0.0,0.0,0.0,0.0,0.0,0.0,0.0,0.0,0.0,0.0,0.0,0.0,-1.7999,-1.8233,-1.7847,-1.7962,-1.7999,-1.7927,-1.8395,-1.8614,-1.8632,-1.9099,-1.9581,-2.0065,-2.067,-2.1196,-2.1625,0.0,0.0,0.0,-2.231,-2.2293,-2.236,-2.2599,-2.2721,-2.2855,-2.3671,-2.3988,-2.4137,-2.4823,-2.5098,-2.5104,-2.5116,-2.4822,-2.4195,-2.2712,-2.0735,-1.8447,-1.5778,-1.3052,-1.0547,-0.9179,-0.8397,-0.8599,-1.104,-1.2712,-1.4105,-1.5298,-1.5603,-1.5481,-1.4902,-1.4275,-1.3862,-1.3862,-1.3909,-1.3758,-1.3062,-1.3175,-1.2573,-1.0569,-1.0493,-0.9617,-0.6817,-0.8612,-0.9775,-0.9179,-1.0324,-1.1107,-1.1157,-1.1157,-1.1107,-1.1015,-1.0359,-0.9929,-0.9783,-0.9186,-0.8888,-0.8888,-0.8125,-0.7824,-0.7871,-0.7069,-0.6745,-0.1683,-0.0463,0.01,0.0916,0.0563,-0.0459,-0.2219,0.0,0.0,-0.7005,-0.8727,-1.0406,-1.1644,-1.2231,-1.2748,0.0,0.0,0.0,0.0,0.0,0.0,0.0,0.0,0.0,0.0,0.0,0.0,0.0,0.0,0.0,0.0,-1.827,-1.8342,-1.7958,-1.7843,-1.7662,-1.7434,-1.7971,-1.8321,-1.8467,-1.9378,-2.0029,-2.0456,-2.1393,-2.1879,-2.201,0.0,0.0,0.0,-2.2986,-2.3076,-2.3153,-2.3316,-2.3408,-2.3545,-2.4057,-2.4409,-2.4704,-2.5003,-2.5214,-2.5301,-2.5114,-2.4758,-2.421,-2.3052,-2.1189,-1.9021,-1.6771,-1.4328,-1.1877,-0.9292,-0.7834,-0.737,-0.8817,-1.0499,-1.1918,-1.2434,-1.2892,-1.3152,-1.2877,-1.2546,-1.2471,-1.2953,-1.3439,-1.3596,-1.2945,-1.2537,-1.1659,-0.989,-0.8788,-0.713,-0.4446,-0.6084,-0.7753,-0.8626,-0.92,-0.9872,-1.0762,-1.0375,-0.9959,-0.9563,-0.8808,-0.8449,-0.8475,-0.8224,-0.8343,-0.8778,-0.7605,-0.702,-0.702,-0.5878,-0.5336,-0.18,-0.0839,-0.0386,0.0527,0.0351,-0.0552,0.0,0.0,-0.5672,-0.6506,-0.8362,-1.0166,-1.1198,-1.2001,-1.2839,0.0,0.0,0.0,0.0,0.0,0.0,0.0,0.0,0.0,0.0,0.0,0.0,0.0,0.0,0.0,0.0,-1.8578,-1.8623,-1.8,-1.7715,-1.7466,-1.7205,-1.7708,-1.809,-1.8331,-1.9596,-2.0362,-2.0727,-2.1832,-2.2383,0.0,0.0,0.0,0.0,-2.3455,-2.362,-2.3783,-2.393,-2.4056,-2.4192,-2.4523,-2.4823,-2.512,-2.5193,-2.5283,-2.5314,-2.5034,-2.4643,-2.4151,-2.336,-2.1783,-1.9886,-1.8058,-1.5478,-1.2549,-0.9438,-0.7757,-0.702,-0.7511,-0.896,-1.0308,-1.0522,-1.1116,-1.1624,-1.1687,-1.1496,-1.1506,-1.2166,-1.2744,-1.296,-1.2355,-1.1551,-1.0409,-0.8546,-0.6986,-0.5364,-0.3635,-0.4933,-0.6504,-0.7947,-0.8488,-0.9169,-1.0167,-0.9511,-0.8881,-0.8429,-0.7511,-0.6983,-0.7069,-0.7069,-0.7283,-0.7824,-0.7015,-0.6588,-0.6588,-0.5332,-0.4787,-0.2138,-0.1547,-0.1324,-0.0239,-0.0639,-0.1539,0.0,0.0,-0.6748,-0.6207,-0.8699,-1.0966,-1.0846,-1.2048,-1.3532,-1.4878,0.0,0.0,0.0,0.0,0.0,0.0,0.0,0.0,0.0,0.0,0.0,0.0,0.0,0.0,0.0,0.0,-1.902,-1.7737,-1.7452,-1.7271,-1.7205,-1.7541,-1.7829,-1.8125,-1.9539,-2.0263,-2.0448,-2.1522,0.0,0.0,0.0,0.0,0.0,-2.3578,-2.3715,-2.3929,-2.4341,-2.448,-2.4561,-2.5023,-2.5139,-2.5141,-2.5408,-2.5272,-2.4976,-2.4851,-2.4445,-2.3968,-2.3759,-2.2555,-2.0996,-1.9657,-1.6021,-1.1901,-0.9278,-0.8072,-0.7617,-0.7658,-0.8492,-0.9398,-1.0137,-1.0832,-1.1358,-1.1646,-1.1497,-1.1366,-1.1662,-1.1727,-1.1503,-1.085,-1.0079,-0.8743,-0.6269,-0.5392,-0.489,-0.4546,-0.536,-0.6119,-0.6588,-0.7943,-0.8811,-0.8804,-0.8156,-0.7723,-0.7723,-0.6303,-0.5538,-0.5538,-0.5538,-0.5538,-0.5542,-0.6253,-0.6588,-0.6588,-0.5814,-0.5487,-0.2943,-0.2542,-0.2389,-0.1893,-0.2145,-0.2868,-0.4083,0.0,-0.7602,-0.8398,-1.0087,-1.1617,-1.2248,-1.2457,-1.2872,-1.386,-1.367,0.0,0.0,0.0,0.0,0.0,0.0,0.0,0.0,0.0,0.0,0.0,0.0,0.0,0.0,0.0,-1.8641,-1.8665,-1.8395,-1.8138,-1.7888,-1.8163,-1.8446,-1.8717,-2.0372,-2.1171,-2.1197,-2.2539,0.0,0.0,0.0,0.0,0.0,-2.4328,-2.437,-2.4334,-2.4607,-2.4611,-2.4533,-2.4826,-2.4918,-2.4905,-2.4992,-2.4941,-2.4864,-2.4813,-2.4439,-2.3988,-2.3909,-2.2935,-2.1335,-1.8941,-1.6093,-1.3267,-1.1239,-0.9837,-0.8788,-0.8154,-0.8612,-0.9183,-0.9118,-0.969,-1.0236,-1.0329,-1.0386,-1.0661,-1.1333,-1.1598,-1.1503,-1.0709,-0.9676,-0.8346,-0.6561,-0.5918,-0.5575,-0.5474,-0.7173,-0.7816,-0.6712,-0.7509,-0.8268,-0.8752,-0.8103,-0.745,-0.6966,-0.6032,-0.5487,-0.5487,-0.5487,-0.576,-0.6253,-0.5982,-0.5873,-0.5814,-0.5113,-0.5332,0.0,-0.3162,-0.2947,-0.3054,-0.3331,0.0,0.0,0.0,-0.8327,-0.9451,-1.0929,-1.2213,-1.2804,-1.3141,-1.3682,-1.4787,-1.476,0.0,0.0,0.0,0.0,0.0,0.0,0.0,0.0,0.0,0.0,0.0,0.0,0.0,0.0,0.0,-1.901,-1.9351,-1.8911,-1.8626,-1.8573,-1.8772,-1.9188,-1.9811,-2.1149,-2.1869,-2.2044,0.0,0.0,0.0,0.0,0.0,0.0,-2.4718,-2.4665,-2.4491,-2.463,-2.4522,-2.433,-2.4582,-2.4667,-2.4659,-2.4771,-2.4792,-2.4798,-2.4794,-2.4743,-2.4653,-2.4697,-2.3545,-2.1718,-1.9354,-1.7287,-1.5351,-1.3552,-1.2143,-1.0889,-0.9945,-1.0151,-1.0461,-1.0198,-1.0464,-1.0741,-1.0509,-1.0534,-1.0678,-1.0966,-1.096,-1.064,-1.0129,-0.8795,-0.7485,-0.6487,-0.5863,-0.5566,-0.5896,-0.7361,-0.8055,-0.7274,-0.787,-0.8429,-0.8758,-0.8103,-0.7343,-0.6642,-0.5873,-0.5378,-0.5109,-0.5109,-0.5328,-0.5828,-0.5673,-0.5554,-0.5487,-0.5123,-0.529,0.0,0.0,0.0,0.0,0.0,0.0,0.0,0.0,0.0,-0.9585,-1.1442,-1.2913,-1.2801,-1.4062,-1.5639,-1.7202,0.0,0.0,0.0,0.0,0.0,0.0,0.0,0.0,0.0,0.0,0.0,0.0,0.0,0.0,0.0,0.0,0.0,-1.9831,-1.9037,-1.8802,-1.9239,-1.9294,-1.9915,-2.1055,-2.1794,-2.2365,-2.2811,0.0,0.0,0.0,0.0,0.0,0.0,-2.4794,-2.4625,-2.4369,-2.4411,-2.4254,-2.3963,-2.4304,-2.4373,-2.4394,-2.4645,-2.4748,-2.4775,-2.479,-2.5233,-2.5727,-2.5739,-2.4242,-2.2216,-2.0682,-1.9313,-1.7835,-1.601,-1.4741,-1.3672,-1.2842,-1.2813,-1.2875,-1.2762,-1.2689,-1.2494,-1.1958,-1.1578,-1.1172,-1.0752,-0.9913,-0.9268,-0.9204,-0.7585,-0.6316,-0.613,-0.5317,-0.51,-0.5878,-0.6406,-0.7039,-0.8037,-0.8769,-0.905,-0.8851,-0.8187,-0.7436,-0.6688,-0.6009,-0.5293,-0.4532,-0.4522,-0.4522,-0.4532,-0.5352,-0.5632,-0.5529,-0.564,-0.5345,0.0,0.0,0.0,0.0,0.0,0.0,0.0,0.0,0.0,0.0,0.0,-1.4342,-1.4607,-1.5602,-1.6759,0.0,0.0,0.0,0.0,0.0,0.0,0.0,0.0,0.0,0.0,0.0,0.0,0.0,0.0,0.0,0.0,0.0,0.0,-1.9986,-1.9155,-1.8981,-1.9638,-1.9676,-1.9952,-2.0508,-2.1839,-2.2532,-2.2703,0.0,0.0,0.0,0.0,0.0,-2.4788,-2.4701,-2.4431,-2.4079,-2.3948,-2.3674,-2.3395,-2.3481,-2.3664,-2.3873,-2.3937,-2.4229,-2.461,-2.4746,-2.5409,-2.5895,-2.4476,-2.3885,-2.3321,-2.1544,-1.999,-1.8567,-1.7216,-1.6326,-1.5654,-1.5143,-1.4631,-1.4184,-1.3848,-1.3322,-1.2849,-1.2749,-1.2135,-1.1682,-1.1516,-1.0275,-0.9075,-0.842,-0.7203,-0.6133,-0.5297,-0.5479,-0.5758,-0.5842,-0.6606,-0.7145,-0.7203,-0.8257,-0.8971,-0.907,-0.8967,-0.8323,-0.7191,-0.6867,-0.6049,-0.4694,-0.4577,-0.4577,-0.4636,-0.4843,-0.525,-0.586,-0.5246,-0.5124,0.0,0.0,0.0,0.0,0.0,0.0,0.0,0.0,0.0,0.0,0.0,-1.505,-1.5893,-1.6877,0.0,0.0,0.0,0.0,0.0,0.0,0.0,0.0,0.0,0.0,0.0,0.0,0.0,0.0,0.0,0.0,0.0,0.0,0.0,0.0,-1.8762,-1.8958,-1.9978,-1.9927,-2.0428,-2.1507,-2.2211,-2.2917,-2.3634,0.0,0.0,0.0,0.0,0.0,-2.447,-2.4376,-2.4054,-2.3645,-2.3678,-2.35,-2.3212,-2.3369,-2.3544,-2.3714,-2.3876,-2.4229,-2.4798,-2.5893,-2.6192,-2.6061,-2.5498,-2.4962,-2.4147,-2.2174,-2.0808,-1.9712,-1.8741,-1.8096,-1.7486,-1.6888,-1.648,-1.6094,-1.5766,-1.536,-1.508,-1.4956,-1.413,-1.3105,-1.2259,-1.0485,-0.8854,-0.7727,-0.6651,-0.595,-0.5918,-0.6068,-0.6285,-0.6564,-0.6958,-0.7312,-0.7643,-0.8213,-0.8574,-0.8726,-0.867,-0.8211,-0.7339,-0.6798,-0.591,-0.4652,-0.4529,-0.4562,-0.4588,-0.4723,-0.5036,-0.5589,-0.5214,-0.5164,0.0,0.0,0.0,0.0,0.0,0.0,0.0,0.0,0.0,0.0,0.0,0.0,0.0,0.0,0.0,0.0,0.0,0.0,0.0,0.0,0.0,0.0,0.0,0.0,0.0,0.0,0.0,0.0,0.0,0.0,0.0,0.0,0.0,0.0,-1.8257,-1.876,-2.0044,-1.9899,-2.078,-2.2644,-2.2525,-2.3267,-2.4701,-2.4784,0.0,0.0,0.0,0.0,-2.3961,-2.3958,-2.3666,-2.3212,-2.3522,-2.3437,-2.3212,-2.3459,-2.361,-2.3735,-2.4114,-2.4554,-2.5215,-2.6878,-2.686,-2.6263,-2.6739,-2.6003,-2.4578,-2.2483,-2.1396,-2.0741,-2.0053,-1.9566,-1.9048,-1.8377,-1.8166,-1.8116,-1.7816,-1.7688,-1.7579,-1.7417,-1.6267,-1.4737,-1.3103,-1.0771,-0.8756,-0.7414,-0.616,-0.5771,-0.6836,-0.6683,-0.6719,-0.7389,-0.728,-0.7538,-0.8352,-0.8293,-0.83,-0.8342,-0.8154,-0.7769,-0.7235,-0.6217,-0.5189,-0.4176,-0.4143,-0.4166,-0.4127,-0.435,-0.4601,-0.4755,-0.5171,-0.5273,-0.3294,-0.2224,-0.1132,-0.0514,-0.1824,0.0,0.0,0.0,0.0,0.0,0.0,0.0,0.0,0.0,0.0,0.0,0.0,0.0,0.0,0.0,0.0,0.0,0.0,0.0,0.0,0.0,0.0,0.0,0.0,0.0,0.0,0.0,0.0,0.0,0.0,-1.8409,-1.933,-1.9152,-1.9905,-2.1554,-2.2072,-2.3029,-2.4316,-2.4752,-2.4764,0.0,0.0,-2.3795,-2.3353,-2.3631,-2.3526,-2.3212,-2.3277,-2.3253,-2.3165,-2.2947,-2.3212,-2.3777,-2.4284,-2.4943,-2.5514,-2.5347,-2.6076,-2.6658,-2.4697,-2.4335,-2.4125,-2.1938,-2.1112,-2.0716,-1.998,-1.9853,-1.9816,-1.9573,-1.947,-1.9263,-1.8691,-1.8058,-1.7723,-1.8215,-1.6665,-1.5128,-1.4601,-1.1534,-0.8873,-0.8027,-0.6474,-0.5698,-0.6417,-0.6587,-0.6795,-0.7275,-0.7486,-0.7578,-0.7483,-0.8153,-0.8646,-0.8866,-0.8745,-0.8133,-0.693,-0.5825,-0.4381,-0.2563,-0.2583,-0.2535,-0.2538,-0.2624,-0.2792,-0.3105,-0.4675,-0.5399,-0.3889,-0.2905,-0.1709,-0.0472,0.0,-0.268,-0.461,0.0,0.0,0.0,0.0,0.0,0.0,0.0,0.0,0.0,0.0,0.0,0.0,0.0,0.0,0.0,0.0,0.0,0.0,0.0,0.0,0.0,0.0,0.0,0.0,0.0,0.0,0.0,0.0,0.0,-1.8986,-1.882,-1.9807,-2.1905,-2.2323,-2.323,-2.4526,-2.4774,-2.4666,-2.4264,0.0,-2.3534,-2.3459,-2.3437,-2.3346,-2.3253,-2.3588,-2.3628,-2.3437,-2.33,-2.3323,-2.3482,-2.3832,-2.4207,-2.4558,-2.4872,-2.5059,-2.4983,-2.3929,-2.3501,-2.2945,-2.0914,-2.0837,-2.1086,-2.0112,-2.0147,-2.0338,-1.9907,-1.9762,-1.9658,-1.9359,-1.9044,-1.8988,-1.9593,-1.8324,-1.6775,-1.5613,-1.3017,-1.0099,-0.7081,-0.6689,-0.7033,-0.7604,-0.7916,-0.8154,-0.8182,-0.8304,-0.856,-0.8902,-0.926,-0.9149,-0.8242,-0.8589,-0.7933,-0.5988,-0.3622,-0.1882,-0.0841,-0.0929,-0.1014,-0.1029,-0.0981,-0.106,-0.1271,-0.3105,-0.4475,-0.4513,-0.3661,-0.2467,0.0,0.0,-0.1967,-0.4031,0.0,0.0,0.0,0.0,0.0,0.0,0.0,0.0,0.0,0.0,0.0,0.0,0.0,0.0,0.0,0.0,0.0,0.0,0.0,0.0,0.0,0.0,0.0,0.0,0.0,0.0,0.0,0.0,0.0,-1.879,-1.8718,-1.9842,-2.2109,-2.2352,-2.3181,-2.4489,-2.4655,-2.4408,-2.3859,-2.341,-2.3193,-2.3187,-2.3118,-2.3093,-2.3141,-2.3735,-2.3816,-2.3588,-2.3588,-2.3351,-2.3082,-2.3249,-2.3285,-2.3359,-2.4107,-2.3853,-2.3236,-2.3189,-2.2647,-2.1744,-2.0065,-2.0414,-2.106,-1.9993,-2.0227,-2.0641,-1.9963,-1.9937,-2.0003,-1.985,-1.9798,-2.0026,-2.0752,-1.9687,-1.8193,-1.6728,-1.4423,-1.1328,-0.6958,-0.7205,-0.8024,-0.8458,-0.8828,-0.919,-0.9405,-0.9497,-0.9918,-1.0873,-1.076,-0.9842,-0.8001,-0.8489,-0.7316,-0.4041,-0.1415,0.051,0.155,0.1344,0.0845,0.0,0.0,-0.0404,-0.1273,-0.2275,-0.3818,-0.5152,-0.4385,-0.3173,-0.2064,-0.178,0.0,-0.3861,-0.7947,0.0,-1.4874,0.0,0.0,0.0,0.0,0.0,0.0,0.0,0.0,0.0,0.0,0.0,0.0,0.0,0.0,0.0,0.0,0.0,0.0,0.0,0.0,0.0,0.0,0.0,0.0,0.0,0.0,-1.8803,-1.8912,-1.9726,-2.1196,-2.159,-2.241,-2.3608,-2.4228,-2.3946,-2.2905,-2.3101,-2.2617,-2.1707,-2.2443,-2.2746,-2.2772,-2.3117,-2.3277,-2.3253,-2.3253,-2.2992,-2.2667,-2.2675,-2.2576,-2.2434,-2.2197,-2.2299,-2.2391,-2.1827,-2.1408,-2.088,-1.9885,-1.9848,-1.9947,-1.9271,-1.9938,-2.0633,-1.9953,-2.027,-2.0547,-1.9952,-1.9798,-2.0168,-2.129,-1.998,-1.8553,-1.8104,-1.5119,-1.1943,-0.934,-0.8127,-0.7529,-0.7596,-0.8078,-0.9045,-1.0594,-1.0975,-1.1578,-1.2692,-1.2104,-1.0954,-0.922,-0.8888,-0.6294,-0.0574,-0.0131,0.1577,0.4957,0.5042,0.3353,0.0,0.0,-0.1751,-0.4998,-0.3422,-0.4215,-0.5005,-0.4646,-0.3856,-0.2736,-0.1947,0.0,0.0,-0.6249,-0.9925,-1.1045,0.0,0.0,0.0,0.0,0.0,0.0,0.0,0.0,0.0,0.0,0.0,0.0,0.0,0.0,0.0,0.0,0.0,0.0,0.0,0.0,0.0,0.0,0.0,0.0,0.0,0.0,0.0,-1.8773,-1.8832,-1.9368,-2.0153,-2.124,-2.2573,-2.2789,-2.2788,-2.2602,-2.2316,-2.2183,-2.2136,-2.2052,-2.2304,-2.2721,-2.2848,-2.2898,-2.2855,-2.2609,-2.23,-2.1938,-2.1691,-2.1352,-2.1006,-2.0879,-2.0686,-2.0431,-1.9951,-1.9722,-1.9419,-1.8448,-1.8765,-1.9297,-1.9089,-1.9594,-2.0105,-1.985,-2.0003,-2.0105,-1.985,-1.9798,-1.9913,-2.0373,-1.9872,-1.9028,-1.8011,-1.5857,-1.3517,-1.1098,-0.9803,-0.8995,-0.865,-0.9132,-0.9993,-1.1316,-1.2839,-1.397,-1.4368,-1.4141,-1.2825,-1.0101,-0.8935,-0.5814,-0.0262,0.2192,0.4008,0.5377,0.5372,0.4718,0.3362,-0.1141,-0.4048,-0.541,-0.5439,-0.6028,-0.5148,-0.5037,-0.4531,0.0,0.0,0.0,-0.1904,-0.5601,-0.9122,0.0,0.0,0.0,0.0,0.0,0.0,0.0,0.0,0.0,0.0,0.0,0.0,0.0,0.0,0.0,0.0,0.0,0.0,0.0,0.0,0.0,0.0,0.0,0.0,0.0,0.0,0.0,0.0,-1.8778,-1.8238,-1.7933,-1.8305,-1.9297,-2.0831,-2.0856,-2.1062,-2.1392,-2.1053,-2.1201,-2.1644,-2.1139,-2.1438,-2.2203,-2.2177,-2.2307,-2.2468,-2.1955,-2.1502,-2.1165,-2.0878,-2.0218,-1.9566,-1.9723,-1.9301,-1.8734,-1.8603,-1.8464,-1.8235,-1.7731,-1.7865,-1.8236,-1.8399,-1.912,-1.9761,-1.9597,-1.956,-1.956,-1.956,-1.956,-1.9661,-2.0016,-1.9734,-1.902,-1.7773,-1.6033,-1.4042,-1.1682,-1.0629,-0.9875,-0.9247,-0.9598,-1.0615,-1.2221,-1.4354,-1.5783,-1.6001,-1.5591,-1.4006,-1.0906,-0.9011,-0.5567,-0.0199,0.3451,0.5411,0.5389,0.4846,0.4852,0.5413,-0.1878,-0.541,-0.5406,-0.6589,-0.7358,-0.5691,-0.5618,0.0,0.0,0.0,0.0,-0.2515,-0.6512,-1.0511,0.0,0.0,0.0,0.0,0.0,0.0,0.0,0.0,0.0,0.0,0.0,0.0,0.0,0.0,0.0,0.0,0.0,0.0,0.0,0.0,0.0,0.0,0.0,0.0,0.0,0.0,0.0,0.0,-1.8995,-1.8084,-1.7096,-1.6066,-1.6519,-1.8287,-1.8567,-1.8794,-1.8989,-1.9273,-1.9571,-1.9866,-1.9608,-2.013,-2.1068,-2.1028,-2.1442,-2.1984,-2.1243,-2.0682,-2.028,-2.028,-1.9317,-1.8185,-1.8688,-1.8185,-1.7394,-1.7907,-1.7706,-1.7444,-1.7995,-1.7332,-1.6538,-1.7135,-1.851,-1.966,-1.9096,-1.897,-1.897,-1.8983,-1.8983,-1.9369,-2.0542,-1.9658,-1.8442,-1.7517,-1.5528,-1.3262,-1.085,-1.0274,-0.9797,-0.8918,-0.9373,-1.0747,-1.3435,-1.5372,-1.6821,-1.7523,-1.6172,-1.416,-1.1461,-0.9209,-0.5598,-0.0265,0.3448,0.537,0.5376,0.3618,0.3558,0.5276,-0.1878,-0.5406,-0.5396,-0.6581,-0.7847,-0.5844,0.0,0.0,0.0,0.0,0.0,0.0,-0.6518,0.0,0.0,0.0,0.0,0.0,0.0,0.0,0.0,0.0,0.0,0.0,0.0,0.0,0.0,0.0,0.0,0.0,0.0,0.0,0.0,0.0,0.0,0.0,0.0,0.0,0.0,0.0,0.0,0.0,-1.875,-1.7669,-1.6652,-1.5079,-1.5012,-1.627,-1.6349,-1.6653,-1.7117,-1.7283,-1.7866,-1.8776,-1.9789,-2.0176,-2.0137,-2.0368,-2.0342,-2.0131,-1.9622,-1.9611,-1.9728,-1.8985,-1.8468,-1.8066,-1.7867,-1.7312,-1.6752,-1.6909,-1.6879,-1.6791,-1.6969,-1.6687,-1.6455,-1.661,-1.7024,-1.7458,-1.7763,-1.8141,-1.8555,-1.8895,-1.8983,-1.9071,-1.93,-1.898,-1.8132,-1.6213,-1.4907,-1.3519,-1.168,-1.0649,-0.9992,-0.9736,-1.1044,-1.2738,-1.4563,-1.6248,-1.7578,-1.8328,-1.6948,-1.4725,-1.1615,-1.0134,-0.6853,-0.1289,0.3099,0.5394,0.5399,0.2342,-0.02,-0.2214,-0.437,-0.5386,-0.5449,-0.7007,-0.827,-0.6607,0.0,0.0,0.0,0.0,0.0,0.0,0.0,0.0,0.0,0.0,0.0,0.0,0.0,0.0,0.0,0.0,0.0,0.0,0.0,0.0,0.0,0.0,0.0,0.0,0.0,0.0,0.0,0.0,0.0,0.0,0.0,0.0,0.0,0.0,0.0,-1.9623,-1.8337,-1.7105,-1.5964,-1.4101,-1.3259,-1.3361,-1.3771,-1.4379,-1.5101,-1.579,-1.6307,-1.6787,-1.8699,-1.9124,-1.8605,-1.8901,-1.909,-1.909,-1.8408,-1.8527,-1.891,-1.8327,-1.7947,-1.7747,-1.7435,-1.6951,-1.6522,-1.6522,-1.6522,-1.6466,-1.6194,-1.596,-1.5695,-1.5452,-1.5359,-1.5552,-1.6379,-1.7063,-1.7661,-1.8216,-1.8498,-1.871,-1.8689,-1.8436,-1.7533,-1.5225,-1.4191,-1.3003,-1.108,-1.02,-0.9792,-0.9792,-1.1406,-1.308,-1.4587,-1.5904,-1.7092,-1.8167,-1.6731,-1.4535,-1.1621,-1.014,-0.7257,-0.2423,0.1283,0.3934,0.5343,0.1873,-0.1806,-0.5413,-0.5389,-0.5379,-0.5442,-0.7044,-0.8249,0.0,0.0,0.0,0.0,0.0,0.0,0.0,0.0,0.0,0.0,0.0,0.0,0.0,0.0,0.0,0.0,0.0,0.0,0.0,0.0,0.0,0.0,0.0,0.0,0.0,0.0,0.0,0.0,0.0,0.0,0.0,0.0,0.0,0.0,0.0,0.0,-1.9211,-1.7847,-1.6496,0.0,-1.3194,-1.1534,-1.0215,-1.1148,-1.2102,-1.3055,-1.4485,-1.475,-1.4418,-1.6727,-1.7245,-1.6624,-1.6874,-1.7556,-1.8261,-1.733,-1.7397,-1.7933,-1.7933,-1.7666,-1.7271,-1.7188,-1.6824,-1.6423,-1.6337,-1.6337,-1.6238,-1.5676,-1.5096,-1.4468,-1.3956,-1.3779,-1.3979,-1.503,-1.5787,-1.6444,-1.7087,-1.7616,-1.8068,-1.8382,-1.7847,-1.6616,-1.4298,-1.3339,-1.2074,-0.9646,-0.921,-0.9204,-0.9274,-1.071,-1.2289,-1.3936,-1.4819,-1.5924,-1.7401,-1.586,-1.3802,-1.1437,-0.9558,-0.7029,-0.3656,-0.1413,0.1303,0.4584,0.1271,-0.214,-0.541,-0.5386,-0.5442,-0.5568,-0.694,-0.8067,0.0,0.0,0.0,0.0,0.0,0.0,0.0,0.0,0.0,0.0,0.0,0.0,0.0,0.0,0.0,0.0,0.0,0.0,0.0,0.0,0.0,0.0,0.0,0.0,0.0,0.0,0.0,0.0,0.0,0.0,0.0,0.0,0.0,0.0,0.0,-1.849,-1.9275,-1.7697,-1.6333,0.0,-1.2872,-1.1205,-1.0176,-1.0002,-1.0446,-1.1383,-1.2365,-1.3144,-1.3792,-1.5239,-1.5278,-1.4466,-1.5145,-1.5299,-1.5145,-1.5379,-1.6028,-1.676,-1.6824,-1.7034,-1.7133,-1.6275,-1.5896,-1.5732,-1.5242,-1.5107,-1.5062,-1.4926,-1.4468,-1.3956,-1.3815,-1.3467,-1.3182,-1.3417,-1.4258,-1.536,-1.6385,-1.6314,-1.6213,-1.6632,-1.5956,-1.4697,-1.2716,-1.219,-1.1454,-0.9588,-0.8742,-0.8549,-0.9204,-1.0192,-1.165,-1.3868,-1.4819,-1.5802,-1.7042,-1.5159,-1.3116,-1.1098,-0.8782,-0.6719,-0.5045,-0.3117,-0.1755,-0.1002,-0.3145,-0.4631,-0.5386,-0.5372,-0.5756,-0.6465,-0.7459,-0.9,0.0,0.0,0.0,0.0,0.0,0.0,0.0,0.0,0.0,0.0,0.0,0.0,0.0,0.0,0.0,0.0,0.0,0.0,0.0,0.0,0.0,0.0,0.0,0.0,0.0,0.0,0.0,0.0,0.0,0.0,0.0,0.0,0.0,0.0,-1.7077,-1.8045,-1.7868,-1.6903,-1.5831,-1.463,-1.2167,-1.0031,-0.8312,-0.8841,-0.9169,-0.9412,-1.0389,-1.1217,-1.2001,-1.3155,-1.346,-1.3223,-1.3611,-1.3887,-1.4111,-1.4089,-1.4908,-1.5971,-1.5732,-1.6027,-1.6361,-1.5454,-1.5186,-1.5096,-1.4789,-1.4698,-1.4652,-1.4329,-1.405,-1.3732,-1.342,-1.3152,-1.2881,-1.2881,-1.361,-1.4507,-1.535,-1.5522,-1.5534,-1.5662,-1.5038,-1.3917,-1.2197,-1.0694,-0.9425,-0.8565,-0.7827,-0.7567,-0.8027,-0.918,-1.0551,-1.2181,-1.3099,-1.3979,-1.4838,-1.3318,-1.184,-1.0533,-0.8746,-0.737,-0.6662,-0.5708,-0.5254,-0.5229,-0.5907,-0.6246,-0.6246,-0.5634,-0.5881,-0.6719,-0.7402,-0.8663,0.0,0.0,0.0,0.0,0.0,0.0,0.0,0.0,0.0,0.0,0.0,0.0,0.0,0.0,0.0,0.0,0.0,0.0,0.0,0.0,0.0,0.0,0.0,0.0,0.0,0.0,0.0,0.0,0.0,0.0,0.0,0.0,-0.8814,-0.9179,-1.4373,-1.6749,-1.5934,-1.5871,-1.5254,-1.4097,-1.1395,-0.8691,-0.6203,-0.7568,-0.8028,-0.7795,-0.8713,-0.9424,-1.0011,-1.1102,-1.1751,-1.2062,-1.2265,-1.2914,-1.3597,-1.3222,-1.4027,-1.5219,-1.4835,-1.5017,-1.5365,-1.4744,-1.456,-1.4525,-1.4433,-1.4387,-1.4294,-1.3779,-1.3637,-1.3552,-1.3017,-1.2881,-1.2881,-1.2881,-1.3286,-1.3788,-1.4359,-1.4774,-1.4991,-1.4818,-1.4079,-1.3011,-1.1758,-0.9231,-0.7414,-0.7494,-0.6894,-0.6555,-0.6911,-0.8156,-0.9512,-1.0613,-1.1334,-1.1912,-1.2464,-1.1638,-1.0833,-1.0125,-0.9322,-0.8673,-0.8254,-0.8463,-0.8506,-0.822,-0.7447,-0.7034,-0.7034,-0.5962,-0.5947,-0.6911,-0.7389,-0.8178,0.0,0.0,0.0,0.0,0.0,0.0,0.0,0.0,0.0,0.0,0.0,0.0,0.0,0.0,0.0,0.0,0.0,0.0,0.0,0.0,0.0,0.0,0.0,0.0,0.0,0.0,0.0,0.0,0.0,0.0,0.0,-0.2215,-0.3323,-0.5848,-0.9426,-1.2323,-1.4359,-1.4892,-1.4841,-1.4235,-1.0815,-0.8058,-0.5955,-0.6051,-0.6587,-0.7461,-0.7931,-0.839,-0.899,-1.0,-1.0234,-1.0026,-1.1297,-1.184,-1.2031,-1.2796,-1.3496,-1.4097,-1.456,-1.4744,-1.4744,-1.4097,-1.3909,-1.3826,-1.3286,-1.3162,-1.3113,-1.3065,-1.3017,-1.3017,-1.2929,-1.2881,-1.2881,-1.2881,-1.2968,-1.3162,-1.3757,-1.356,-1.3242,-1.3144,-1.1639,-1.0272,-1.0037,-0.8322,-0.7125,-0.7444,-0.6274,-0.5905,-0.7613,-0.8027,-0.9046,-1.1384,-1.145,-1.1557,-1.1945,-1.1944,-1.1527,-1.0607,-1.0777,-1.0342,-0.911,-1.0441,-1.0537,-0.9163,-0.7582,-0.6728,-0.6728,-0.5818,-0.6207,-0.7832,-0.7931,-0.918,0.0,0.0,0.0,0.0,0.0,0.0,0.0,0.0,0.0,0.0,0.0,0.0,0.0,0.0,0.0,0.0,0.0,0.0,0.0,0.0,0.0,0.0,0.0,0.0,0.0,0.0,0.0,0.0,0.0,0.0,0.3644,0.3559,0.2311,-0.0271,-0.498,0.0,-1.1431,-1.3279,-1.3645,-1.249,-0.9944,-0.7642,-0.5686,-0.5545,-0.5668,-0.6019,-0.6687,-0.7266,-0.7784,-0.861,-0.8981,-0.9136,-1.0101,-1.048,-1.0615,-1.1417,-1.2355,-1.3168,-1.2667,-1.3004,-1.349,-1.2434,-1.2355,-1.2618,-1.2384,-1.2559,-1.2881,-1.2881,-1.2881,-1.2881,-1.2881,-1.2881,-1.2881,-1.2881,-1.2881,-1.2968,-1.3238,-1.3104,-1.255,-1.1306,-1.0383,-0.9432,-0.8183,-0.7346,-0.6802,-0.6579,-0.5681,-0.531,-0.6225,-0.71,-0.8062,-0.924,-1.0007,-1.043,-1.0379,-1.1025,-1.123,-1.0812,-1.1534,-1.1809,-1.1327,-1.1596,-1.1432,-1.071,-0.9018,-0.7867,-0.7437,-0.6079,-0.6272,-0.8027,-0.8027,-0.9116,0.0,0.0,0.0,0.0,0.0,0.0,0.0,0.0,0.0,0.0,0.0,0.0,0.0,0.0,0.0,0.0,0.0,0.0,0.0,0.0,0.0,0.0,0.0,0.0,0.0,0.0,0.0,0.0,0.0,0.0,0.7839,0.7172,0.5862,0.3808,-0.1532,-0.5663,-0.8415,-1.1775,-1.2801,-1.143,-0.9677,-0.785,-0.5965,-0.5443,-0.5029,-0.4704,-0.5598,-0.6209,-0.6609,-0.721,-0.7758,-0.8349,-0.9063,-0.9469,-0.9802,-1.0602,-1.1593,-1.2434,-1.1616,-1.1864,-1.2385,-1.1358,-1.1283,-1.1592,-1.1774,-1.2187,-1.2666,-1.2832,-1.2881,-1.2881,-1.2881,-1.2774,-1.2666,-1.2881,-1.2627,-1.2461,-1.2822,-1.2618,-1.1882,-1.0316,-0.957,-0.8817,-0.7391,-0.6829,-0.6445,-0.6107,-0.5369,-0.4972,-0.5366,-0.6489,-0.7415,-0.7772,-0.8841,-0.9479,-0.9203,-1.0221,-1.1012,-1.1189,-1.2348,-1.3084,-1.3295,-1.2749,-1.2197,-1.1834,-1.0342,-0.9012,-0.8027,-0.6465,-0.6531,-0.8027,-0.8221,-0.9128,0.0,0.0,0.0,0.0,0.0,0.0,0.0,0.0,0.0,0.0,0.0,0.0,0.0,0.0,0.0,0.0,0.0,0.0,0.0,0.0,0.0,0.0,0.0,0.0,0.0,0.0,0.0,0.0,0.0,0.0,0.707,0.6526,0.5663,0.4376,0.0417,-0.3008,-0.5766,-1.0655,-1.2905,-1.2412,-1.0658,-0.8944,-0.7255,-0.5719,-0.465,-0.409,-0.4952,-0.5346,-0.5432,-0.5962,-0.6548,-0.7209,-0.8431,-0.9265,-0.9868,-1.123,-1.1778,-1.1913,-1.2559,-1.2393,-1.1864,-1.1765,-1.1366,-1.0965,-1.1616,-1.1814,-1.1972,-1.2715,-1.2881,-1.2881,-1.2881,-1.2393,-1.203,-1.2715,-1.19,-1.1275,-1.2618,-1.1841,-1.0872,-1.0762,-0.9169,-0.799,-0.8593,-0.6961,-0.5835,-0.6704,-0.5612,-0.5045,-0.6032,-0.6823,-0.7591,-0.8451,-0.8972,-0.9203,-0.9183,-1.0221,-1.1238,-1.1983,-1.3348,-1.4127,-1.4145,-1.4085,-1.3356,-1.1834,-1.0927,-0.9603,-0.8027,-0.7111,-0.7111,-0.8027,-0.8877,-0.9722,0.0,0.0,0.0,0.0,0.0,0.0,0.0,0.0,0.0,0.0,0.0,0.0,0.0,0.0,0.0,0.0,0.0,0.0,0.0,0.0,0.0,0.0,0.0,0.0,0.0,0.0,0.0,0.0,0.0,0.0,0.7001,0.7509,0.7099,0.5535,0.1953,-0.2364,-0.7412,-1.0016,-1.1221,-1.1077,-1.0135,-0.8837,-0.7162,-0.6181,-0.5163,-0.4252,-0.4243,-0.447,-0.497,-0.5397,-0.5772,-0.6152,-0.7443,-0.7972,-0.8214,-0.9614,-1.0573,-1.1116,-1.0981,-1.1023,-1.1065,-1.0661,-1.0364,-1.0261,-1.0965,-1.1466,-1.1972,-1.2666,-1.2881,-1.2774,-1.2344,-1.1972,-1.1765,-1.1584,-1.1174,-1.0922,-1.1434,-1.083,-0.9894,-0.8919,-0.8541,-0.8043,-0.6897,-0.6416,-0.6168,-0.6018,-0.5206,-0.4713,-0.5155,-0.5764,-0.6469,-0.7412,-0.7956,-0.8482,-0.917,-1.0221,-1.1339,-1.238,-1.3564,-1.4451,-1.4932,-1.3965,-1.3183,-1.2573,-1.0173,-0.8592,-0.8027,-0.7111,-0.7177,-0.8027,-0.8291,-0.8941,0.0,0.0,0.0,0.0,0.0,0.0,0.0,0.0,0.0,0.0,0.0,0.0,0.0,0.0,0.0,0.0,0.0,0.0,0.0,0.0,0.0,0.0,0.0,0.0,0.0,0.0,0.0,0.0,0.0,0.0,0.7335,0.7613,0.6814,0.4782,0.2097,-0.1935,-0.7367,-0.8809,-0.9793,-1.037,-0.9721,-0.8793,-0.7547,-0.6819,-0.5756,-0.4487,-0.4104,-0.4126,-0.4351,-0.4675,-0.4825,-0.4993,-0.6178,-0.6678,-0.6941,-0.848,-0.9503,-1.0084,-1.0108,-1.0261,-1.0415,-0.9969,-0.9666,-0.9562,-1.0261,-1.0762,-1.1275,-1.199,-1.2206,-1.2098,-1.1566,-1.1466,-1.1266,-1.0364,-1.0312,-1.0312,-0.9843,-0.9585,-0.9162,-0.814,-0.7794,-0.7391,-0.6411,-0.6036,-0.5878,-0.5873,-0.5113,-0.4556,-0.4602,-0.5349,-0.6087,-0.6728,-0.762,-0.8578,-0.9542,-1.0485,-1.1626,-1.292,-1.3762,-1.4451,-1.4991,-1.3726,-1.2757,-1.2189,-0.9742,-0.8156,-0.7567,-0.6981,-0.6981,-0.7567,-0.7897,-0.8156,0.0,0.0,0.0,0.0,0.0,0.0,0.0,0.0,0.0,0.0,0.0,0.0,0.0,0.0,0.0,0.0,0.0,0.0,0.0,0.0,0.0,0.0,0.0,0.0,0.0,0.0,0.0,0.0,0.0,0.7882,0.7841,0.6559,0.4683,0.214,0.0924,-0.1501,-0.5187,-0.6954,-0.8674,-1.0372,-0.9484,-0.8838,-0.8462,-0.7562,-0.6275,-0.4732,-0.464,-0.4244,-0.3626,-0.3762,-0.3751,-0.3718,-0.4701,-0.5434,-0.6173,-0.7959,-0.8678,-0.8888,-1.0238,-1.0312,-0.9814,-0.9814,-0.9361,-0.891,-0.9614,-0.9814,-0.9969,-1.061,-1.0813,-1.0813,-1.0762,-1.0762,-1.0415,-0.9113,-0.9263,-0.9347,-0.7984,-0.8171,-0.8626,-0.8626,-0.6924,-0.5977,-0.7396,-0.5932,-0.5007,-0.6367,-0.5391,-0.4519,-0.4519,-0.5714,-0.6588,-0.6588,-0.8117,-0.9563,-1.0431,-1.102,-1.2046,-1.3702,-1.3997,-1.4213,-1.4213,-1.3425,-1.2181,-1.0551,-0.9697,-0.842,-0.6719,-0.6719,-0.6719,-0.6719,-0.7567,-0.7502,-0.3091,0.0,0.0,0.0,0.0,0.0,0.0,0.0,0.0,0.0,0.0,0.0,0.0,0.0,0.0,0.0,0.0,0.0,0.0,0.0,0.0,0.0,0.0,0.0,0.0,0.0,0.0,0.0,0.7412,0.7371,0.6632,0.5479,0.4271,0.3112,0.127,-0.0966,-0.3601,-0.5222,-0.6619,-0.7834,-0.7765,-0.7835,-0.7951,-0.6895,-0.6085,-0.5446,-0.3473,-0.2998,-0.3557,-0.2729,-0.2954,-0.3847,-0.4118,-0.4685,-0.5484,-0.6728,-0.7847,-0.8731,-0.9148,-0.9526,-0.9814,-0.9814,-0.9361,-0.891,-0.9614,-0.9814,-0.9969,-1.061,-1.0813,-1.0669,-1.0218,-0.971,-0.9263,-0.891,-0.8527,-0.8196,-0.7777,-0.7004,-0.6392,-0.6392,-0.6352,-0.6258,-0.614,-0.5597,-0.5382,-0.576,-0.5058,-0.4519,-0.4519,-0.5277,-0.5982,-0.6534,-0.7732,-0.9082,-1.0636,-1.109,-1.2083,-1.3974,-1.3614,-1.3606,-1.4213,-1.287,-1.1633,-1.0544,-0.9111,-0.7827,-0.6719,-0.6719,-0.6719,-0.6719,-0.6981,-0.6915,0.0,0.0,0.0,0.0,0.0,0.0,0.0,1.2559,0.0,0.0,0.0,0.0,0.0,0.0,0.0,0.0,0.0,0.0,0.0,0.0,0.0,0.0,0.0,0.0,0.0,0.0,0.0,0.0,0.7379,0.7031,0.5721,0.462,0.3755,0.3175,0.0721,-0.1352,-0.3024,-0.4127,-0.5253,-0.6336,-0.6505,-0.6744,-0.7074,-0.6419,-0.5953,-0.551,-0.3429,-0.2912,-0.3484,-0.1748,-0.1542,-0.2375,-0.3483,-0.4257,-0.4857,-0.5788,-0.6838,-0.7847,-0.8171,-0.8764,-0.9361,-0.9361,-0.8896,-0.8421,-0.8823,-0.8922,-0.9026,-0.9377,-0.9747,-0.9865,-0.9465,-0.9106,-0.8699,-0.8427,-0.799,-0.7503,-0.6902,-0.6086,-0.5487,-0.5487,-0.5601,-0.566,-0.5542,-0.5273,-0.5164,-0.5433,-0.4948,-0.465,-0.5098,-0.5716,-0.6471,-0.7359,-0.839,-0.9711,-1.1441,-1.1886,-1.2769,-1.461,-1.4273,-1.3906,-1.3734,-1.281,-1.1377,-0.9476,-0.8468,-0.7372,-0.6141,-0.6141,-0.6141,-0.6141,-0.6141,-0.6141,0.0,0.0,0.0,0.0,0.0,0.0,1.2146,1.332,1.359,0.0,0.0,0.0,0.0,0.0,0.0,0.0,0.0,0.0,0.0,0.0,0.0,0.0,0.0,0.0,0.0,0.0,0.7402,0.7112,0.7246,0.6617,0.4964,0.3962,0.3085,0.2439,-0.0203,-0.2086,-0.314,-0.3537,-0.4304,-0.5454,-0.5528,-0.5698,-0.5993,-0.5956,-0.5707,-0.5223,-0.4024,-0.3407,-0.3033,-0.09,0.0,-0.0225,-0.254,-0.3783,-0.4275,-0.5099,-0.5873,-0.6583,-0.7343,-0.8049,-0.8699,-0.8699,-0.8209,-0.767,-0.7616,-0.7563,-0.7563,-0.7563,-0.8103,-0.8699,-0.8699,-0.8699,-0.8533,-0.783,-0.7557,-0.7122,-0.576,-0.5433,-0.5378,-0.5378,-0.4893,-0.4677,-0.5269,-0.4893,-0.4732,-0.5378,-0.4948,-0.4894,-0.5936,-0.6648,-0.7421,-0.8422,-0.9471,-1.0728,-1.2472,-1.2862,-1.3674,-1.5294,-1.5225,-1.451,-1.307,-1.2826,-1.1308,-0.8221,-0.7962,-0.7051,-0.5428,-0.5428,-0.5428,-0.5428,-0.5428,-0.5428,0.0,0.0,0.0,0.0,0.0,0.0,1.1443,1.2148,1.2617,0.0,0.0,0.0,0.0,0.0,0.0,0.0,0.0,0.0,0.0,0.0,0.0,0.0,0.0,0.0,0.0,0.0,0.6223,0.7049,0.6206,0.5242,0.4251,0.3341,0.2135,0.0588,-0.0039,-0.1374,-0.3465,-0.3423,-0.3522,-0.376,-0.4375,-0.4947,-0.5427,-0.5145,-0.5091,-0.5228,-0.4099,-0.2471,-0.0674,-0.018,0.0,-0.0045,-0.0538,-0.2164,-0.4228,-0.4581,-0.512,-0.5814,-0.6583,-0.7289,-0.7937,-0.7937,-0.783,-0.7616,-0.702,-0.6804,-0.6804,-0.6804,-0.7343,-0.7937,-0.7937,-0.7937,-0.7883,-0.7723,-0.6794,-0.5869,-0.5542,-0.5058,-0.4677,-0.4677,-0.457,-0.4519,-0.468,-0.457,-0.4732,-0.5378,-0.4948,-0.4967,-0.6315,-0.6594,-0.7125,-0.8158,-0.9176,-1.0551,-1.2456,-1.2862,-1.3674,-1.5294,-1.4213,-1.3312,-1.3009,-1.1787,-1.0415,-0.9075,-0.7697,-0.6465,-0.5428,-0.5428,-0.5428,-0.5428,-0.5428,-0.5428,0.0,0.0,0.0,0.9138,0.0,0.0,0.0,1.2177,0.0,0.0,0.0,0.0,0.0,0.0,0.0,0.0,0.0,0.0,0.0,0.0,0.0,0.0,0.0,0.0,0.0,0.0,0.5957,0.6463,0.5435,0.4355,0.3355,0.2903,0.188,0.0039,0.0,-0.0593,-0.178,-0.2298,-0.2856,-0.3456,-0.3843,-0.4148,-0.4456,-0.4248,-0.4268,-0.4422,-0.3839,-0.225,0.0,0.0,0.0,0.0,0.0,-0.1309,-0.3304,-0.4203,-0.5179,-0.6091,-0.6475,-0.7074,-0.7723,-0.7723,-0.7176,-0.6524,-0.6145,-0.6036,-0.6145,-0.648,-0.6858,-0.7154,-0.7081,-0.7089,-0.7047,-0.6607,-0.6079,-0.5559,-0.512,-0.4743,-0.4525,-0.4525,-0.4522,-0.4519,-0.4519,-0.4787,-0.5003,-0.5003,-0.5003,-0.5474,-0.6683,-0.6865,-0.7442,-0.8982,-0.9571,-1.0538,-1.2046,-1.272,-1.3545,-1.4756,-1.4025,-1.3425,-1.3009,-1.1841,-1.0401,-0.8678,-0.7372,-0.6268,-0.5428,-0.5428,-0.5428,-0.5428,-0.5428,-0.5428,0.0,0.0,0.0,0.0,0.0,1.0552,0.0,0.0,0.0,0.0,0.0,0.0,0.0,0.0,0.0,0.0,0.0,0.0,0.0,0.0,0.0,0.0,0.0,0.0,0.0,0.0,0.5847,0.5587,0.4953,0.3991,0.2656,0.2344,0.1498,0.004,0.0,0.0,0.0,-0.0982,-0.1921,-0.2915,-0.3141,-0.3233,-0.3277,-0.3506,-0.3605,-0.3567,-0.3111,-0.1798,0.0,0.0,0.0,0.0,0.0,-0.09,-0.2385,-0.3955,-0.532,-0.6421,-0.6367,-0.6858,-0.745,-0.7343,-0.6362,-0.5328,-0.5328,-0.5328,-0.5437,-0.6041,-0.6312,-0.6372,-0.6209,-0.6283,-0.6149,-0.5423,-0.543,-0.5366,-0.4601,-0.4343,-0.4252,-0.4473,-0.4525,-0.4519,-0.468,-0.5164,-0.5433,-0.5167,-0.5437,-0.6146,-0.7277,-0.7346,-0.8,-0.9854,-1.0087,-1.0587,-1.168,-1.2389,-1.3183,-1.4145,-1.3906,-1.3545,-1.3009,-1.1896,-1.0382,-0.8285,-0.7372,-0.6527,-0.562,-0.562,-0.5557,-0.5428,-0.5428,-0.5428,0.0,0.0,0.0,0.0,0.8717,0.0,0.0,0.0,0.0,0.0,0.0,0.0,0.0,0.0,0.0,0.0,0.0,0.0,0.0,0.0,0.0,0.0,0.0,0.0,0.0,0.0,0.0,0.4435,0.4903,0.4443,0.2711,0.1137,0.02,0.0,0.0,0.0,0.0,-0.0134,-0.0268,-0.0402,-0.1474,-0.201,-0.2055,-0.3105,-0.3612,-0.3478,-0.1348,-0.0269,0.0,0.0,0.0,0.0,0.0,-0.0881,-0.2379,-0.3912,-0.5008,-0.571,-0.5651,-0.6091,-0.6642,-0.5977,-0.5218,-0.4625,-0.4625,-0.4625,-0.4625,-0.4736,-0.5167,-0.5608,-0.5479,-0.5449,-0.5414,-0.5173,-0.473,-0.434,-0.4277,-0.3658,-0.3453,-0.4349,-0.4519,-0.4677,-0.5269,-0.5433,-0.5923,-0.7176,-0.6853,-0.6972,-0.8419,-0.83,-0.8506,-0.9635,-0.996,-1.0587,-1.168,-1.1896,-1.2565,-1.4085,-1.2862,-1.232,-1.2948,-1.0829,-0.946,-0.9139,-0.8285,-0.7437,-0.6527,-0.6527,-0.6141,-0.5428,-0.5428,-0.5428,0.0,0.0,0.0,0.0,0.0,0.0,0.0,0.0,1.0833,0.0,0.0,0.0,0.0,0.0,0.0,0.0,0.0,0.0,0.0,0.0,0.0,0.0,0.0,0.0,0.0,0.0,0.0,0.0,0.0,0.3986,0.2662,0.0951,0.0,0.0,0.0,0.0674,0.2068,0.2111,0.1389,-0.0,-0.0491,-0.076,-0.0761,-0.1302,-0.0762,0.0626,0.1661,0.1705,0.1029,0.1029,0.1029,0.0986,0.0274,-0.0907,-0.2377,-0.3945,-0.5206,-0.6095,-0.5651,-0.5982,-0.6426,-0.5277,-0.4732,-0.4519,-0.4519,-0.4522,-0.4525,-0.4519,-0.4691,-0.4852,-0.4635,-0.454,-0.4496,-0.4439,-0.439,-0.4376,-0.4369,-0.4098,-0.4021,-0.4415,-0.4522,-0.4736,-0.5378,-0.5873,-0.6199,-0.6411,-0.6907,-0.7289,-0.7503,-0.7763,-0.8153,-0.8764,-0.9453,-1.0331,-1.1398,-1.2149,-1.2757,-1.3485,-1.2443,-1.171,-1.16,-1.0604,-0.9786,-0.9338,-0.8941,-0.835,-0.7437,-0.6981,-0.6527,-0.6137,-0.562,-0.5428,0.715,0.0,0.0,0.0,0.0,0.0,0.0,0.0,0.0,0.0,0.0,0.0,0.0,0.0,0.0,0.0,0.0,0.0,0.0,0.0,0.0,0.0,0.0,0.0,0.0,0.0,0.0,0.0,0.4135,0.0,0.2689,0.0959,0.0,0.0,0.0663,0.1743,0.3328,0.3416,0.2651,0.0967,0.0308,0.0,0.0,0.0674,0.1934,0.3615,0.3612,0.3102,0.2279,0.2279,0.2279,0.2192,0.1314,-0.0095,-0.1917,-0.3801,-0.5275,-0.6204,-0.5492,-0.5601,-0.5882,-0.4846,-0.4519,-0.4515,-0.4416,-0.444,-0.446,-0.4365,-0.4385,-0.4358,-0.4043,-0.3949,-0.3878,-0.3423,-0.3863,-0.4383,-0.4421,-0.4436,-0.4532,-0.4746,-0.4632,-0.4736,-0.5378,-0.5928,-0.6204,-0.5873,-0.6686,-0.7289,-0.6966,-0.7458,-0.8009,-0.8428,-0.9285,-1.0116,-1.0907,-1.1829,-1.2336,-1.2336,-1.202,-1.1469,-1.0618,-1.0364,-1.0047,-0.9658,-0.9325,-0.8833,-0.8185,-0.7291,-0.6757,-0.651,-0.5774,-0.5428,0.0,0.0,0.0,0.0,0.0,0.0,0.0,0.0,1.1297,0.0,0.0,0.0,0.0,0.0,0.0,0.0,0.0,0.0,0.0,0.0,0.0,0.0,0.0,0.0,0.0,0.0,0.0,0.0,0.3924,0.0,0.2733,0.098,0.0,0.0,0.2248,0.3228,0.2747,0.3004,0.322,0.3437,0.1135,0.0,0.009,0.2429,0.3523,0.3615,0.3602,0.3595,0.3551,0.3551,0.3551,0.3523,0.3485,0.185,-0.0803,-0.3494,-0.4964,-0.5433,-0.4787,-0.4574,-0.4574,-0.4519,-0.4525,-0.445,-0.4247,-0.4362,-0.4416,-0.4117,-0.409,-0.4137,-0.3942,-0.3917,-0.3579,-0.2184,-0.2947,-0.4046,-0.4184,-0.4379,-0.4691,-0.5328,-0.4948,-0.4736,-0.5378,-0.5542,-0.576,-0.648,-0.6588,-0.6912,-0.7557,-0.794,-0.8441,-0.9072,-0.9701,-1.0107,-1.0114,-1.045,-1.0681,-1.0681,-1.1406,-1.1469,-1.0618,-0.9786,-0.9722,-1.0561,-0.9383,-0.8807,-0.8746,-0.7777,-0.6837,-0.6017,-0.561,-0.5428,0.0,0.0,0.7042,0.7263,0.0,0.0,0.0,0.0,0.0,0.0,0.0,0.0,0.0,0.0,0.0,0.0,0.0,0.0,0.0,0.0,0.0,0.0,0.0,0.0,0.0,0.0,0.0,0.3634,0.3269,0.2973,0.0,0.0965,0.0727,0.2325,0.3155,0.3493,0.329,0.338,0.3383,0.3256,0.1837,0.0794,0.009,0.2521,0.3612,0.3602,0.3592,0.3585,0.3585,0.3585,0.3643,0.3734,0.361,0.2374,0.0259,-0.3237,-0.4619,-0.4875,-0.5105,-0.4772,-0.4321,-0.4431,-0.4421,-0.4195,-0.3591,-0.3742,-0.4143,-0.4123,-0.3987,-0.3815,-0.3863,-0.2614,-0.1615,-0.2721,-0.2898,-0.3107,-0.4184,-0.4429,-0.4577,-0.4787,-0.468,-0.457,-0.4787,-0.4842,-0.5058,-0.5764,-0.6312,-0.6529,-0.6249,-0.6758,-0.7247,-0.7466,-0.8277,-0.9233,-1.025,-1.0791,-1.1088,-1.1088,-1.0798,-1.0561,-1.0267,-1.0014,-0.9952,-1.0267,-0.9855,-0.9586,-0.94,-0.8463,-0.7881,-0.7532,-0.6362,-0.5564,0.728,0.7107,0.0,0.0,0.836,0.0,0.0,0.0,0.0,0.0,0.0,0.0,0.0,0.0,0.0,0.0,0.0,0.0,0.0,0.0,0.0,0.0,0.0,0.0,0.0,0.0,0.3644,0.3508,0.2937,0.25,0.0,0.0,0.1805,0.2909,0.339,0.3571,0.3503,0.35,0.337,0.3159,0.2316,0.1453,0.0717,0.2695,0.3598,0.3592,0.3585,0.3581,0.3585,0.3636,0.3707,0.3802,0.3736,0.2806,0.1005,-0.2438,-0.4009,-0.4542,-0.4931,-0.4695,-0.4295,-0.4351,-0.4328,-0.4106,-0.3203,-0.3402,-0.4006,-0.403,-0.3873,-0.3687,-0.3792,-0.2209,-0.1121,-0.315,-0.2901,-0.2594,-0.4075,-0.4426,-0.457,-0.4787,-0.468,-0.457,-0.4842,-0.468,-0.4625,-0.5058,-0.555,-0.5878,-0.5873,-0.6312,-0.6696,-0.6966,-0.7952,-0.8987,-1.0091,-1.053,-1.0703,-1.0703,-1.0244,-1.0007,-1.0114,-1.002,-0.9918,-0.9907,-0.9586,-0.9394,-0.9288,-0.8288,-0.792,-0.8097,-0.691,-0.5914]}]]